[[[{"header":{"parameterUnit":"kt","parameterCategory":2,"dx":1,"dy":1,"la1":29.285339999999998,"la2":30.599998999999997,"lo1":-89.70041500000002,"lo2":-87.6738589999976,"nx":112,"ny":82,"refTime":"2022-10-07T00:00:00:Z","depth":0,"parameterNumber":1,"parameterNumberName":"U-component_of_WINDS"},"data":[-0.0,0.2374,0.0,0.0816,0.131,0.0,0.2484,0.0,0.1459,0.0,0.0,0.0,0.0,0.0,0.0,0.0,0.0,0.0,0.0,0.2849,0.0,0.0,0.0,0.0,0.0,0.0,0.0,0.0,0.0,0.0,0.0,0.0,1.0792,1.0964,1.097,1.097,1.097,1.097,1.103,1.1128,1.169,1.1962,1.1925,1.1289,1.1925,1.3847,2.0908,2.37,2.3386,2.3683,2.3903,2.3892,2.3853,2.3774,2.3607,2.3607,2.3591,2.3706,2.5411,2.7968,3.0583,3.052,3.0709,3.0676,3.0126,3.0948,3.2149,3.2697,3.4555,3.6505,3.7026,3.7791,3.8485,3.8485,3.8485,3.8485,3.8485,3.9496,4.0581,4.093,4.2064,4.3308,4.4554,4.4724,4.4724,4.4724,4.4724,4.5036,4.5806,4.5864,4.5864,4.5864,4.5864,4.5864,4.5864,4.5864,4.5864,4.5864,4.5864,4.6032,4.6417,4.6417,4.6552,4.6959,4.6959,4.6959,4.6959,4.6959,4.6959,4.6959,4.6959,4.6959,0.0,0.0,-0.0,-0.0,0.0,0.0,0.0,0.0,0.0,0.0,0.0,0.0,0.0,0.0,0.0,0.0,0.0,0.0,0.0,0.0,0.0,0.0,0.0,0.0,0.0,0.0,0.0,0.0,0.0,0.0,0.0,1.1214,1.1089,1.1267,1.1273,1.1273,1.1273,1.1273,1.1326,1.1425,1.1326,1.1326,1.1284,1.1379,1.2272,1.4089,1.8215,2.1423,2.3892,2.3837,2.3903,2.3918,2.3918,2.3918,2.3918,2.3918,2.3918,2.384,2.3933,2.7018,3.0939,3.014,3.0496,3.1173,3.0202,3.0612,3.1505,3.1928,3.348,3.5091,3.6048,3.7048,3.7842,3.8336,3.8485,3.8485,3.8485,3.9126,3.9884,4.0358,4.1025,4.2029,4.3216,4.3167,4.3054,4.3417,4.3875,4.4439,4.5207,4.5635,4.5864,4.5864,4.5864,4.5864,4.5864,4.5864,4.5864,4.5864,4.5864,4.5864,4.5864,4.5864,4.5864,4.5864,4.5864,4.5864,4.5864,4.5864,4.5864,4.5864,4.5864,4.5864,0.0,0.0,0.0,-0.0,0.0,0.0,0.0,0.0,-0.0,0.0,0.0,0.0,0.0,0.0,0.0,0.0,0.0,0.0,0.0,0.0,0.0,0.0,0.0,0.0,0.0,0.0,0.0,0.0,0.0,0.0,1.1227,1.13,1.1293,1.1306,1.1306,1.1306,1.1306,1.1306,1.1451,1.1728,1.1445,1.1458,1.1735,1.1735,1.3579,1.6835,1.3579,1.6652,2.3749,2.3905,2.3918,2.3918,2.3918,2.3918,2.3918,2.3918,2.3918,2.3918,2.3918,2.5742,2.8187,2.9409,3.0416,3.1094,3.0221,2.9955,3.0181,3.1616,3.2026,3.2682,3.5468,3.6275,3.6639,3.799,3.836,3.846,3.846,3.8485,3.8829,4.0153,4.0333,4.0773,4.1922,4.1113,4.077,4.196,4.3204,4.4101,4.4128,4.5123,4.5864,4.5864,4.5864,4.5864,4.5864,4.5864,4.5864,4.5864,4.5864,4.5864,4.5864,4.5864,4.5864,4.5864,4.5864,4.5864,4.5864,4.5864,4.5864,4.5864,4.5864,4.5864,-0.0,0.0,0.0,0.0,0.0,0.0,0.0,0.0,0.0,0.0,0.0,0.0,0.0,0.0,0.0,0.0,0.0,-0.0,0.0,0.0,0.0,0.0,0.0,0.0,0.0,0.0,0.0,0.0,0.0,1.0608,1.186,1.1722,1.1695,1.192,1.1926,1.1926,1.1926,1.1926,1.1966,1.2045,1.1966,1.1966,1.2045,1.2045,1.2599,1.3546,1.2649,1.5011,1.9936,2.2681,2.3918,2.3918,2.3918,2.3918,2.3918,2.3918,2.3918,2.3918,2.3918,2.4358,2.5603,2.8701,2.9995,3.01,2.9912,2.9955,3.0068,3.0387,3.1275,3.2245,3.3063,3.3971,3.4884,3.5323,3.6173,3.6957,3.6957,3.7793,3.8637,3.8993,3.8976,3.9402,4.0666,3.9919,3.9483,4.069,4.1997,4.3071,4.4017,4.5123,4.5864,4.5864,4.5864,4.5864,4.5864,4.5864,4.5864,4.5864,4.5864,4.5864,4.5864,4.5864,4.5864,4.5864,4.5864,4.5864,4.5864,4.5864,4.5864,4.5864,4.5864,4.5864,0.0,0.0,0.0,0.0,0.0,0.0,-0.0,0.0,-0.0,0.0,0.0,0.0,0.0,0.0,0.0,0.0,-0.0,0.0,0.0,0.0,0.0,0.0,0.0,0.0,0.0,0.0,0.0,0.0,1.0526,1.1076,1.213,1.2012,1.1992,1.2314,1.2321,1.2321,1.2321,1.2321,1.2321,1.2321,1.2321,1.2321,1.2321,1.2321,1.3201,1.4657,1.4079,1.5794,1.9201,2.2538,2.3918,2.3918,2.3918,2.3918,2.3918,2.3918,2.3918,2.3918,2.3918,2.3918,2.4398,2.7718,2.8831,2.8805,2.9201,2.9187,2.9141,2.9728,3.0554,3.1354,3.1872,3.2718,3.3437,3.4055,3.4847,3.5627,3.626,3.7005,3.7793,3.8336,3.8485,3.8735,3.9449,3.9039,3.8707,3.9528,4.0628,4.1692,4.2489,4.3646,4.4496,4.5065,4.5094,4.5293,4.5835,4.5864,4.5864,4.5864,4.5864,4.5864,4.5864,4.5864,4.5864,4.5864,4.5864,4.5864,4.5864,4.5864,4.5864,4.5864,4.5864,4.5864,0.0,0.0,0.0,0.0,-0.0,0.0,0.0,0.0,-0.0,-0.0,0.0,0.0,0.0,0.0,0.0,0.0,0.0,0.0,0.0,0.0,0.0,0.0,0.0,0.0,0.0,0.4667,0.8934,1.203,1.0885,1.0613,1.2111,1.2282,1.2276,1.2276,1.2269,1.2249,1.2216,1.2216,1.2203,1.2321,1.2321,1.2321,1.2321,1.2321,1.4145,1.7345,1.6263,1.7367,2.019,2.2562,2.3619,2.3918,2.3918,2.3918,2.3918,2.3918,2.3918,2.3918,2.3918,2.3918,2.4348,2.6537,2.7189,2.7373,2.7925,2.7955,2.7975,2.9482,2.9955,3.0257,3.1493,3.1819,3.2125,3.3395,3.3859,3.4329,3.5643,3.6113,3.6686,3.799,3.8336,3.8485,3.8485,3.8485,3.8485,3.8485,3.9553,4.0404,4.0423,4.1422,4.2632,4.379,4.4016,4.4527,4.5554,4.578,4.5864,4.5864,4.5864,4.5864,4.5864,4.5864,4.5864,4.5864,4.5864,4.5864,4.5864,4.5864,4.5864,4.5864,4.5864,4.5864,0.0,0.0,0.0,0.0,0.0,-0.0,0.0,0.0,0.0,0.0,0.0,0.0,0.0,0.0,0.0,0.0,0.0,0.0,0.0,0.0,0.0,0.0,0.0,0.0,-0.0,0.685,1.1546,1.2159,0.8921,0.8414,1.2115,1.2595,1.2749,1.2749,1.2882,1.2744,1.2506,1.25,1.2388,1.2321,1.2321,1.2321,1.2321,1.2321,1.2622,1.338,1.3122,1.5646,2.0073,2.0525,2.1961,2.3918,2.3918,2.3918,2.3918,2.3918,2.3918,2.3918,2.3918,2.3918,2.3918,2.4491,2.5436,2.6213,2.5787,2.656,2.7975,2.9482,2.9955,2.9974,3.0257,3.0296,3.0428,3.0712,3.1646,3.2597,3.289,3.4692,3.6468,3.6662,3.7669,3.8485,3.8485,3.8485,3.8485,3.8485,3.9553,4.0451,4.046,4.1446,4.2243,4.2533,4.3538,4.4265,4.4465,4.5357,4.5864,4.5864,4.5864,4.5864,4.5864,4.5864,4.5864,4.5864,4.5864,4.5864,4.5864,4.5864,4.5864,4.5864,4.5864,4.5864,0.0,0.0,0.0,-0.142,0.0,0.0,0.0,-0.1709,-0.1754,-0.1795,-0.2742,-0.4084,-0.5837,-0.2792,-0.0,-0.0,-0.0,0.0,0.0,0.0,0.0,0.0,0.0,0.0,-0.0,0.3769,0.6064,0.6055,0.8013,0.998,1.2138,1.2607,1.2762,1.2762,1.2885,1.2955,1.2803,1.2803,1.2737,1.2599,1.2447,1.2528,1.2528,1.2381,1.2321,1.2321,1.3308,1.5689,1.9161,2.0089,2.1817,2.3918,2.3918,2.3918,2.3918,2.3918,2.3918,2.3918,2.3918,2.3918,2.3918,2.3918,2.4447,2.481,2.419,2.5015,2.6569,2.8259,2.8756,2.8967,2.9747,2.9955,2.9955,2.9955,3.0428,3.1188,3.1952,3.3774,3.5448,3.616,3.6944,3.7679,3.8406,3.8485,3.8485,3.8485,3.903,3.9503,3.9503,3.9969,4.0599,4.1222,4.1895,4.2814,4.4026,4.4639,4.5271,4.5864,4.5864,4.5864,4.5864,4.5864,4.5864,4.5864,4.5864,4.5864,4.5864,4.5864,4.5864,4.5864,4.5864,4.5864,-0.0691,-0.0995,-0.1823,-0.3669,0.0,0.0,-0.4597,-0.437,-0.4273,0.0,-0.6403,-0.8911,-1.2026,-0.565,-0.0,-0.0,-0.0,-0.0,-0.0,0.0,0.0,0.0,0.0,0.0,-0.0,-0.0,-0.0,-0.0,0.6135,0.98,0.98,1.1785,1.2936,1.3094,1.3061,1.3172,1.3113,1.3113,1.308,1.3021,1.2783,1.2821,1.2821,1.2534,1.2401,1.2394,1.3973,1.5863,1.8218,1.9976,2.2021,2.3918,2.3918,2.3918,2.3918,2.3918,2.3918,2.3918,2.3918,2.3918,2.3918,2.3918,2.3918,2.3802,2.323,2.3959,2.5163,2.6495,2.7254,2.7993,2.9501,2.9955,2.9955,2.9955,2.9955,3.0257,3.136,3.2759,3.4176,3.5297,3.6014,3.6775,3.7838,3.8276,3.8485,3.8485,3.8485,3.8485,3.8485,3.8485,3.8884,3.9988,4.0272,4.1286,4.3284,4.3643,4.4174,4.5129,4.5413,4.5527,4.5527,4.578,4.5864,4.5864,4.5864,4.5864,4.5864,4.5864,4.5864,4.5864,4.5864,4.5864,-0.3102,-0.4596,-0.6305,-0.6548,-0.6646,0.0,-0.8519,-0.768,-0.7059,0.0,-1.0387,-1.2094,-1.3408,-0.6087,-0.0,-0.0,-0.0,-0.0,-0.0,-0.0,-0.0,-0.0,0.0,0.0,-0.0,-0.0,-0.0,-0.0,0.0867,0.1387,0.1387,0.9203,1.3745,1.3712,1.3686,1.3537,1.3423,1.3423,1.3284,1.3027,1.2988,1.2974,1.2968,1.2828,1.2694,1.2681,1.2579,1.4689,1.8227,1.9486,2.1669,2.3918,2.3918,2.3918,2.3918,2.3918,2.3918,2.3918,2.3918,2.3918,2.3918,2.3918,2.3918,2.3802,2.3065,2.3959,2.5172,2.4362,2.5776,2.7979,2.954,2.9955,2.9955,2.9955,2.9955,2.9974,3.0125,3.1321,3.2351,3.2526,3.4645,3.6435,3.6555,3.7679,3.8485,3.8485,3.8485,3.8485,3.8485,3.8485,3.856,3.8686,3.9694,4.0494,4.0807,4.1765,4.2477,4.2541,4.3704,4.429,4.429,4.5357,4.5864,4.5864,4.5864,4.5864,4.5864,4.5864,4.5864,4.5864,4.5864,4.5864,-0.5555,-0.6234,-0.7062,-0.7147,0.0,0.0,-0.8879,-0.8863,0.0,0.0,-1.1882,-1.2501,-1.0255,-0.4378,-0.0,-0.0,-0.0,-0.0,-0.0,-0.0,-0.0,-0.0,-0.0,-0.0,-0.0,-0.0,-0.0,-0.0,-0.0,-0.0,-0.0,0.8742,1.3862,1.3843,1.3797,1.3706,1.3576,1.3719,1.3647,1.3522,1.3357,1.3284,1.3271,1.2981,1.3001,1.2981,1.2539,1.4352,1.7335,1.8375,1.9669,2.1156,2.3641,2.4362,2.3918,2.3918,2.3918,2.3918,2.3918,2.3918,2.3918,2.3918,2.3918,2.3866,2.3478,2.3727,2.3891,2.3016,2.4008,2.5849,2.7957,2.855,2.8804,2.9766,2.9955,2.9955,2.9955,3.1036,3.2045,3.2029,3.3043,3.4423,3.6024,3.6833,3.7478,3.8406,3.8485,3.8485,3.8485,3.8485,3.8485,3.8485,3.8983,3.9647,4.0327,4.0876,4.1485,4.2175,4.3436,4.4114,4.4114,4.5271,4.5864,4.5864,4.5864,4.5864,4.5864,4.5864,4.5864,4.5864,4.5864,4.5864,-0.6962,0.0,0.0,0.0,0.0,0.0,0.0,0.0,-1.0627,-1.1669,-1.291,-1.2359,-0.7908,-0.3103,-0.0,-0.0,-0.0,-0.0,-0.0,-0.0,-0.0,-0.0,-0.0,-0.0,-0.0,-0.0,-0.0,0.0,-0.0,-0.0,-0.0,0.6288,1.1212,1.3695,1.2567,1.2538,1.3771,1.3732,1.3878,1.3878,1.368,1.3581,1.3574,1.3278,1.3146,1.3133,1.2836,1.3952,1.5999,1.7274,1.8403,1.9784,2.3582,2.4672,2.4152,2.4152,2.4048,2.3918,2.3918,2.3918,2.3918,2.3918,2.3918,2.3918,2.3918,2.362,2.3256,2.2659,2.3211,2.432,2.6037,2.7068,2.7931,2.898,2.9671,2.9955,2.9955,3.0732,3.1527,3.1454,3.1817,3.282,3.5322,3.6045,3.68,3.8329,3.8485,3.8485,3.8485,3.8485,3.8485,3.8485,3.8485,3.8884,3.9842,3.9842,4.0301,4.1082,4.232,4.3104,4.3104,4.4524,4.5357,4.5357,4.5696,4.5864,4.5864,4.5864,4.5864,4.5864,4.5864,4.5864,0.0,0.0,0.0,-0.9137,-0.9078,-0.9444,-1.1887,0.0,-1.1649,-1.3106,-1.3642,-1.2409,-0.7774,-0.3132,-0.0,-0.0,-0.0,-0.0,-0.0,-0.0,-0.0,-0.0,-0.0,-0.0,-0.0,-0.0,-0.0,-0.0,-0.0,-0.0,-0.0,0.0175,0.4539,1.3514,0.9576,0.938,1.3771,1.3732,1.3878,1.3878,1.3871,1.3864,1.3858,1.3581,1.3456,1.3436,1.3139,1.3288,1.4119,1.6859,1.8907,2.0925,2.3838,2.5104,2.5059,2.4898,2.4399,2.3918,2.3918,2.3918,2.3918,2.3918,2.3918,2.3918,2.3918,2.3892,2.3723,2.3243,2.3819,2.4564,2.3909,2.5752,2.7629,2.7612,2.8786,2.9955,2.9955,2.9974,2.9974,2.9955,3.1164,3.2561,3.4002,3.5476,3.6781,3.8312,3.8485,3.8485,3.8485,3.8485,3.8485,3.8485,3.8485,3.8485,3.8585,3.8585,3.8585,3.8585,3.9842,4.0519,4.0519,4.2923,4.4202,4.4202,4.5271,4.5864,4.5864,4.5864,4.5864,4.5864,4.5864,4.5864,-0.7661,-0.7794,-0.8158,-0.952,-1.012,-1.0687,-1.1761,-1.2381,-1.2875,-1.3555,-1.3686,-1.1419,-0.3816,-0.1045,-0.0,-0.0,-0.0,-0.0,-0.0,-0.0,-0.0,-0.0,-0.0,-0.0,-0.0,-0.0,-0.0,-0.0,-0.0,0.0,-0.0,-0.0,0.1397,0.4539,0.9099,1.2256,1.3797,1.3764,1.3738,1.3878,1.3878,1.3878,1.3878,1.3785,1.3739,1.3726,1.3442,1.3462,1.4032,1.6427,1.8527,2.0373,2.28,2.4429,2.5538,2.5373,2.5079,2.4735,2.4735,2.4396,2.4058,2.4572,2.4317,2.3985,2.4477,2.4217,2.3762,2.3268,2.34,2.3495,2.2844,2.3871,2.5493,2.7189,2.7983,2.8683,2.9728,2.9955,2.9955,2.9955,3.0349,3.1046,3.2545,3.3204,3.4278,3.6662,3.7129,3.7449,3.8336,3.8485,3.8485,3.8485,3.8485,3.8485,3.8485,3.8485,3.8485,3.8485,3.9745,4.0423,4.0423,4.1951,4.2868,4.2868,4.4086,4.4726,4.4726,4.4726,4.51,4.5864,4.5864,4.5864,-0.7924,-0.823,-0.8709,-0.9975,-1.0865,-1.157,-1.2071,-1.2862,-1.3522,-1.3809,-1.2442,-0.906,-0.1391,-0.0,-0.0,-0.0,-0.0,-0.0,-0.0,-0.0,-0.0,-0.0,-0.0,-0.0,-0.0,-0.0,-0.0,-0.0,-0.0,-0.0,-0.0,-0.0,-0.0,-0.0,0.895,1.3727,1.383,1.379,1.3751,1.3878,1.3878,1.3878,1.3878,1.3878,1.3878,1.3871,1.3693,1.3713,1.4049,1.6259,1.7975,1.9233,2.218,2.3999,2.484,2.5658,2.5866,2.5864,2.5864,2.5517,2.5158,2.5325,2.4903,2.4546,2.4827,2.4516,2.4165,2.3631,2.3284,2.3054,2.2628,2.2836,2.3623,2.5759,2.6629,2.7592,2.9557,2.9955,2.9955,2.9955,2.9955,3.0409,3.1819,3.2128,3.3001,3.5872,3.6344,3.6834,3.8312,3.8485,3.8485,3.8485,3.8485,3.8485,3.8485,3.8485,3.8485,3.8485,3.9279,3.9745,3.9745,4.0919,4.1579,4.1579,4.2778,4.3436,4.3436,4.3937,4.4726,4.5864,4.5864,4.5864,-0.7996,-0.8564,-0.925,-1.0594,-1.1372,-1.2012,-1.2856,0.0,-1.3776,-1.3534,-0.9931,-0.5746,-0.1565,-0.0697,-0.0524,-0.0,-0.0,-0.0,-0.0,-0.0,-0.0,-0.0,-0.0,-0.0,-0.0,-0.0,-0.0,-0.0,-0.0,-0.0,-0.0,-0.0,-0.0,-0.0,0.8592,1.3378,1.3875,1.381,1.3758,1.3884,1.3878,1.3878,1.3878,1.3878,1.3878,1.3878,1.3878,1.3878,1.4049,1.6267,1.7111,1.7791,2.2122,2.3503,2.3428,2.556,2.6767,2.7366,2.7366,2.7366,2.7184,2.611,2.5749,2.5619,2.5035,2.5002,2.4723,2.4126,2.3581,2.3265,2.3206,2.2703,2.2497,2.3439,2.4873,2.6731,2.9247,2.9898,3.0012,2.9974,2.9955,3.0409,3.1666,3.1952,3.2857,3.5754,3.622,3.6786,3.8163,3.8485,3.8485,3.8485,3.8485,3.8485,3.8485,3.8485,3.8485,3.8485,3.8485,3.8485,3.8485,3.9647,4.0352,4.0352,4.1391,4.199,4.2083,4.3347,4.4639,4.578,4.5894,4.5864,-0.9124,-0.9915,-1.0608,-1.1834,-1.2421,-1.281,-1.3251,0.0,-1.2767,0.0,-0.7815,-0.7652,-0.9955,-1.0322,-0.8041,-0.1048,-0.0,-0.0,-0.0,-0.0,-0.0,-0.0,-0.0,-0.0,-0.0,-0.0,-0.0,-0.0,-0.0,-0.0,-0.0,-0.0,-0.0,-0.0,0.2272,0.6827,1.3746,1.3869,1.3817,1.3758,1.3725,1.3878,1.3878,1.3878,1.3878,1.3878,1.3878,1.3878,1.3878,1.4392,1.5755,1.7621,2.0289,2.2391,2.3945,2.6311,2.7262,2.7494,2.7494,2.7494,2.7319,2.7118,2.6313,2.5745,2.5956,2.5801,2.5338,2.4801,2.4568,2.4278,2.3802,2.3243,2.2951,2.3188,2.4668,2.6266,2.694,2.9082,3.0714,3.0088,2.9955,3.0106,3.0428,3.0428,3.1132,3.2907,3.4054,3.5323,3.6662,3.7818,3.8485,3.8485,3.8485,3.8485,3.8485,3.8485,3.8485,3.8485,3.8485,3.8485,3.8485,3.8784,3.8983,3.8983,3.923,3.9914,4.0876,4.2136,4.3319,4.4552,4.5442,4.5864,-0.8842,-1.0027,-1.1142,-1.2295,-1.2803,-1.3106,-1.3403,-1.37,-1.3037,-1.0599,-0.9903,-1.0797,-1.3328,-1.3869,-1.0854,-0.1572,-0.0,-0.0,-0.0,-0.0,-0.0,-0.0,-0.0,-0.0,-0.0,-0.0,-0.0,-0.0,-0.0,-0.0,-0.0,-0.0,-0.0,-0.0,-0.0,0.4373,1.3759,1.372,1.2776,1.0777,1.2846,1.3878,1.3878,1.3878,1.3878,1.3878,1.3878,1.3878,1.3878,1.3878,1.4557,1.6096,1.8639,2.1179,2.3721,2.6461,2.745,2.7385,2.7385,2.7385,2.7385,2.7385,2.6976,2.6492,2.6434,2.6214,2.5866,2.5048,2.4866,2.4788,2.41,2.3685,2.3386,2.3126,2.5075,2.6989,2.6989,2.8627,3.0231,3.0485,3.0202,2.9955,2.9955,2.9955,3.0368,3.1827,3.3246,3.4714,3.6183,3.7607,3.8485,3.8485,3.8485,3.8485,3.8485,3.8485,3.8485,3.8485,3.8485,3.8485,3.8485,3.8485,3.8485,3.8485,3.8973,3.9678,4.0423,4.1561,4.3101,4.5044,4.6656,4.7543,-0.8445,-0.9744,-1.1208,-1.2355,-1.2836,-1.3113,-1.3449,-1.3569,-1.3764,0.0,-1.3771,-1.3784,-1.3843,-1.3328,-1.0496,-0.2968,-0.0873,-0.0,-0.0,-0.0,-0.0,-0.0,-0.0,-0.0,-0.0,-0.0,-0.0,-0.0,-0.0,-0.0,-0.0,-0.0,-0.0,-0.0,-0.0,0.3847,1.197,1.3185,1.1897,0.7988,1.1979,1.3719,1.3878,1.3878,1.3878,1.3878,1.3878,1.3878,1.3878,1.3878,1.3878,1.4049,1.7322,2.0067,2.2806,2.6087,2.702,2.6538,2.7208,2.7018,2.6664,2.7208,2.7385,2.7294,2.6788,2.6541,2.6387,2.5433,2.5159,2.4879,2.4295,2.4087,2.3905,2.3425,2.5732,2.8119,2.8181,2.862,2.9431,3.1179,3.0714,3.0126,3.0126,3.0031,3.0409,3.1646,3.32,3.4696,3.5924,3.7507,3.8485,3.8485,3.8485,3.8485,3.8485,3.8485,3.8485,3.8485,3.8485,3.8485,3.8485,3.8631,3.8778,3.8924,3.99,4.0519,4.0592,4.166,4.3489,4.6084,4.844,4.9749,-0.9962,-1.0691,-1.1388,-1.2665,-1.2988,-1.3159,-1.3686,-1.3851,-1.3732,-1.3764,-1.3745,-1.3732,-1.3777,-1.0792,-0.8878,-1.1028,-0.5065,-0.0,-0.0,-0.0,-0.0,-0.0,-0.0,-0.0,-0.0,-0.0,-0.0,-0.0,-0.0,-0.0,-0.0,-0.0,-0.0,-0.0,-0.0,0.0699,0.2446,1.0007,1.3372,1.2609,1.3457,1.3758,1.3878,1.3878,1.3878,1.3878,1.3878,1.3878,1.3878,1.3878,1.3878,1.4049,1.7322,1.8701,1.9897,2.5396,2.498,2.231,2.6031,2.4908,2.245,2.6134,2.7385,2.7359,2.7256,2.7217,2.7048,2.6399,2.6217,2.6087,2.5529,2.4996,2.4754,2.465,2.6201,2.7763,2.8135,2.9389,3.0868,3.2036,3.1587,3.0999,3.0999,3.0429,2.9974,3.0257,3.2585,3.4345,3.4493,3.6861,3.8485,3.8485,3.8485,3.8485,3.8485,3.8485,3.8485,3.8485,3.8485,3.8485,3.8485,3.9388,4.0291,4.1194,4.1389,4.1496,4.1514,4.2695,4.4221,4.598,4.8437,5.0204,-0.8341,-0.9728,-1.1323,-1.2309,-1.2903,-1.3139,-1.3568,-1.3779,-1.393,-1.4108,-1.4003,-1.3719,-1.3764,-1.2013,-1.1333,-1.3508,-0.6114,-0.0,-0.0,-0.0,-0.0,-0.0,-0.0,-0.0,-0.0,-0.0,-0.0,-0.0,-0.0,-0.0,-0.0,-0.0,-0.0,-0.0,-0.0,-0.0,-0.0,0.9124,1.374,1.3869,1.3849,1.3803,1.3738,1.3738,1.3732,1.3878,1.3878,1.3878,1.3878,1.3878,1.3878,1.3878,1.5427,1.6081,1.6375,1.926,2.1902,2.3868,2.1174,2.0978,2.2101,2.4448,2.5382,2.5811,2.707,2.7385,2.7243,2.658,2.6386,2.6282,2.5801,2.5464,2.5165,2.5002,2.5757,2.7054,2.8894,2.9627,3.0639,3.281,3.248,3.1758,3.1421,3.0885,3.0467,3.0031,3.2374,3.4184,3.4234,3.6688,3.8485,3.8485,3.8485,3.8485,3.8485,3.8485,3.8485,3.8485,3.9046,3.9363,3.9363,4.095,4.1804,4.1779,4.2316,4.2341,4.1779,4.2948,4.4254,4.576,4.8777,5.0529,-0.6871,-0.8998,-1.1316,-1.0916,-1.2026,-1.3135,-1.3449,-1.368,-1.3878,-1.4168,-1.3996,-1.3654,-1.3751,-1.3738,-1.3043,-1.1186,-0.4714,-0.0,-0.0,-0.0,-0.0,-0.0,-0.0,-0.0,-0.0,-0.0,-0.0,-0.0,-0.0,-0.0,-0.0,-0.0,-0.0,-0.0,-0.0,-0.0,-0.0,0.7183,1.0884,1.0859,1.2807,1.3843,1.379,1.379,1.3771,1.3725,1.3725,1.3719,1.3878,1.3878,1.3878,1.3878,1.3878,1.3838,1.3949,1.4978,1.9192,2.3643,1.779,1.8329,2.1744,2.2278,2.2843,2.3633,2.5903,2.6677,2.6688,2.6658,2.6661,2.6596,2.6126,2.5957,2.5736,2.5269,2.5516,2.6745,2.9887,3.0167,3.0547,3.3782,3.3638,3.2726,3.1682,3.1459,3.0942,3.0088,3.2111,3.3801,3.3783,3.6275,3.8059,3.8059,3.8284,3.8485,3.8485,3.8485,3.8607,3.8851,3.9681,4.0371,4.0616,4.256,4.3317,4.2463,4.3536,4.3536,4.2463,4.3536,4.4696,4.5886,4.8927,5.0752,-0.7511,-1.0532,-1.126,-0.7514,-0.9738,-1.3032,-1.3607,-1.3667,-1.3587,-1.3864,-1.37,-1.3594,-1.3719,-1.3412,-1.0577,-0.26,-0.0523,-0.0,-0.0,-0.0,-0.0,-0.0,-0.0,-0.0,-0.0,-0.0,-0.0,-0.0,-0.0,-0.0,-0.0,-0.0,-0.0,-0.0,-0.0,-0.0,-0.0,0.0874,0.1223,0.1397,0.98,1.3869,1.3862,1.3862,1.3836,1.3797,1.3777,1.3745,1.3878,1.3878,1.3878,1.3878,1.3878,1.3878,1.4386,1.8395,1.7875,1.577,2.0535,2.0188,1.813,2.0121,2.0901,2.1372,2.3521,2.426,2.4614,2.6739,2.7282,2.7269,2.723,2.684,2.6424,2.6373,2.6399,2.7341,3.0719,3.14,3.216,3.5302,3.5346,3.4283,3.2669,3.1739,3.0942,3.0088,3.1283,3.23,3.2259,3.4808,3.6585,3.6585,3.7756,3.8485,3.8485,3.8485,3.8924,4.0053,4.0224,4.0713,4.1584,4.3683,4.4664,4.4683,4.5782,4.5806,4.4683,4.5806,4.6634,4.7092,4.8464,5.0386,-0.3982,-0.5295,-0.7394,-0.9248,-0.9236,-0.9558,-1.2499,-1.3172,-1.333,-1.3785,-1.3937,-1.3917,-1.37,-1.3563,0.0,-0.4775,-0.6223,-0.6291,-0.0699,-0.0,-0.0,-0.0,-0.0,-0.0,-0.0,-0.0,-0.0,-0.0,-0.0,-0.0,-0.0,-0.0,-0.0,-0.0,-0.0,-0.0,-0.0,-0.0,-0.0,-0.0,0.3667,0.5414,0.5591,1.1212,1.3862,1.3843,1.379,1.3764,1.3745,1.3719,1.3878,1.3878,1.3878,1.3878,1.4056,1.5792,1.5271,1.4221,1.6624,1.6445,1.5576,1.7943,1.8648,1.9219,2.2862,2.3956,2.4438,2.6816,2.7385,2.7385,2.7385,2.7217,2.7035,2.7035,2.7035,2.7963,3.1268,3.202,3.3021,3.6267,3.6732,3.6124,3.4834,3.3657,3.248,3.1625,3.1081,3.106,3.1948,3.5231,3.7432,3.7432,3.9208,4.0462,4.0462,4.0462,4.0657,4.112,4.1755,4.2585,4.3658,4.4397,4.5294,4.5977,4.6416,4.6758,4.6953,4.7392,4.7417,4.6951,4.862,4.9687,-0.3466,-0.3523,-0.5256,-0.7917,-0.7275,-0.7175,-1.1605,-1.2856,-1.3081,-1.3396,-1.366,-1.3739,-1.3354,-1.3426,-1.2306,-0.8849,-1.0195,-0.9447,-0.2987,-0.2099,-0.2621,-0.4402,-0.4384,-0.2969,-0.0349,-0.0,-0.0,-0.0,-0.0,-0.0,-0.0,-0.0,-0.0,-0.0,-0.0,-0.0,-0.0,-0.0,-0.0,-0.0,-0.0,-0.0,0.0175,0.6814,1.1217,1.3888,1.383,1.3797,1.3777,1.3745,1.3719,1.3878,1.3878,1.3878,1.3878,1.3878,1.3878,1.3878,1.3878,1.3878,1.4049,1.5755,1.6313,1.7094,2.1642,2.3017,2.3537,2.6626,2.7385,2.7385,2.7385,2.7385,2.7385,2.7385,2.7385,2.8369,3.1966,3.277,3.3783,3.7265,3.7852,3.751,3.6409,3.508,3.3865,3.303,3.1663,3.1062,3.2076,3.4634,3.6598,3.7044,3.9479,4.1076,4.1076,4.1537,4.1901,4.2219,4.2951,4.3854,4.4811,4.4859,4.5513,4.6636,4.6977,4.749,4.8246,4.8539,4.8149,4.7173,4.8637,4.9101,-0.808,-0.7797,-0.5903,-0.1255,-0.3068,-0.7076,-1.1245,-1.2572,-1.2751,-1.2694,-1.2592,-1.2783,-1.3217,-1.2949,-1.2955,-1.3706,-0.9913,-0.6988,-0.6959,-0.6856,-0.9116,-1.4643,-1.4416,-1.0148,-0.0873,-0.0,-0.0,-0.0,-0.0,-0.0,-0.0,-0.0,-0.0,-0.0,-0.0,-0.0,-0.0,-0.0,-0.0,-0.0,-0.0,-0.0,-0.0,0.0175,0.5074,1.3759,1.3714,1.3843,1.3803,1.3784,1.3745,1.3878,1.3878,1.3878,1.3878,1.3878,1.3878,1.3878,1.3878,1.3878,1.3878,1.3878,1.3878,1.4763,1.9266,2.0655,2.1568,2.6096,2.7385,2.7385,2.7385,2.7385,2.7385,2.7385,2.7385,2.8491,3.2746,3.3537,3.4562,3.7955,3.8687,3.8174,3.6504,3.5536,3.472,3.3903,3.3049,3.2499,3.2499,3.2518,3.3091,3.4462,3.7453,3.9317,3.9317,4.0832,4.2219,4.3292,4.3366,4.3854,4.4811,4.4859,4.5513,4.6636,4.7685,4.8222,4.8246,4.9247,4.9223,4.8222,4.8246,4.8808,-0.7464,-0.6084,-0.3908,-0.0726,-0.5143,-1.0674,-1.1983,-1.2273,-1.2494,-1.2975,-1.2895,-1.2638,-1.2836,-1.297,-1.3185,0.0,-1.2466,-1.1944,-1.1671,-1.2312,-1.353,-1.535,-1.5283,-1.1089,-0.0891,-0.0,-0.0,-0.0,-0.0,-0.0,-0.0,-0.0,-0.0,-0.0,-0.0,-0.0,-0.0,-0.0,-0.0,-0.0,-0.0,-0.0,-0.0,-0.0,0.1584,0.4634,1.1106,1.2065,0.9384,1.2538,1.3745,1.3878,1.3878,1.3878,1.3878,1.3878,1.3878,1.3878,1.3878,1.3878,1.3878,1.3878,1.3878,1.4413,1.7453,1.9361,2.1195,2.4112,2.6118,2.7385,2.7385,2.7385,2.7385,2.7385,2.7385,2.8178,3.0846,3.2587,3.4415,3.6992,3.8641,3.9408,3.8877,3.7643,3.6428,3.5593,3.4283,3.3182,3.2593,3.2395,3.3323,3.5433,3.9199,4.1555,4.1555,4.3007,4.4098,4.4439,4.4464,4.4494,4.4835,4.5708,4.6636,4.7734,4.8759,4.9662,5.0418,5.0736,5.0345,4.9296,5.0077,5.0199,-0.714,-0.527,-0.2887,-0.0604,-0.3898,-0.8428,-1.1507,-1.2248,-1.2264,-1.2437,-1.2221,-1.1994,-1.2051,-1.2757,-1.3324,-1.3211,-1.3673,-1.4103,-1.4158,-1.4623,-1.5153,-1.5444,-1.3878,-0.9257,-0.0899,-0.0,-0.0,-0.0,-0.0,-0.0,-0.0,-0.0,-0.0,-0.0,-0.0,-0.0,-0.0,-0.0,-0.0,-0.0,-0.0,-0.0,-0.0,-0.0,-0.0,0.0359,0.6035,0.9004,0.9864,1.2597,1.3764,1.3732,1.3884,1.3878,1.3878,1.3878,1.3878,1.3878,1.3878,1.3878,1.3878,1.3878,1.3878,1.4234,1.6555,1.8906,2.1071,2.3338,2.5587,2.7385,2.7385,2.7385,2.7385,2.7385,2.7385,2.8014,3.0056,3.211,3.434,3.654,3.8574,3.9978,3.9978,3.8858,3.7681,3.6827,3.584,3.4777,3.3619,3.3605,3.4364,3.554,3.8053,4.0274,4.153,4.363,4.4859,4.4859,4.4859,4.5147,4.5586,4.627,4.7343,4.8783,4.9442,5.0321,5.1577,5.1577,5.1077,5.0418,5.1126,5.1053,-0.7126,-0.5324,-0.3011,-0.0735,-0.0512,-0.2889,-1.0561,-1.2003,-1.1539,-1.0876,-1.0789,-1.096,-1.1089,-1.2104,-1.3067,-1.3686,-1.3858,-1.4115,-1.4688,0.0,-1.4682,-1.5471,-1.0694,-0.5505,-0.144,-0.0359,-0.0,-0.0,-0.0,-0.0,-0.0,-0.0,-0.0,-0.0,-0.0,-0.0,-0.0,-0.0,-0.0,-0.0,-0.0,-0.0,-0.0,-0.0,-0.0,-0.0,-0.0,0.5221,1.3767,1.3441,1.347,1.3797,1.3758,1.3897,1.3878,1.3878,1.3878,1.3878,1.3878,1.3878,1.3878,1.3878,1.3878,1.4234,1.6375,1.8763,2.1001,2.3044,2.5396,2.7221,2.7385,2.7385,2.7385,2.7385,2.7385,2.8014,2.9895,3.211,3.4167,3.6213,3.8556,3.9978,3.9978,3.9313,3.8516,3.77,3.7586,3.6998,3.5384,3.5859,3.601,3.5194,3.5099,3.6469,3.9775,4.2865,4.4624,4.4957,4.4957,4.5586,4.6709,4.6831,4.7783,4.9711,4.9833,5.0394,5.1577,5.1577,5.1577,5.1577,5.1577,5.1577,-0.7118,-0.5286,-0.3422,-0.2829,-0.6092,-0.9904,-1.184,-0.9756,-0.7405,-0.7203,-0.8675,-0.9998,-1.0219,-1.0878,0.0,-1.2717,-1.364,-1.4352,-1.4721,-1.5119,-1.5296,-1.5618,-0.7447,-0.41,-0.9953,-0.4081,-0.0,-0.0,-0.0,-0.0,-0.0,-0.0,-0.0,-0.0,-0.0,-0.0,-0.0,-0.0,-0.0,-0.0,-0.0,-0.0,-0.0,-0.0,-0.0,-0.0,-0.0,0.5264,1.3493,1.0073,1.0684,1.3743,1.4064,1.4082,1.3878,1.3878,1.3878,1.3878,1.3878,1.3878,1.3878,1.3878,1.3878,1.3884,1.4413,1.7459,2.0674,2.1259,2.293,2.5063,2.6892,2.7385,2.7385,2.7385,2.7385,2.7549,2.8014,3.1021,3.3852,3.434,3.7466,3.9978,3.9978,3.9807,3.9389,3.8554,3.8421,3.8061,3.7035,3.7073,3.6865,3.6029,3.5934,3.6969,3.984,4.0769,4.2583,4.6076,4.627,4.6758,4.7832,4.8612,4.9247,4.9735,5.0589,5.1308,5.1577,5.1577,5.1577,5.1577,5.1577,5.1577,-0.7038,-0.6433,-0.5987,-0.6609,-0.913,-1.0981,-0.9062,-0.6693,-0.5262,-0.6472,-0.7784,-0.8907,-0.9702,-1.0133,-1.0733,-1.2157,0.0,-1.3719,-1.428,-1.4598,-1.4865,0.0,0.0,-0.8794,-1.4906,-0.6128,-0.0,-0.0,-0.0,-0.0,-0.0,-0.0,-0.0,-0.0,-0.0,-0.0,-0.0,-0.0,-0.0,-0.0,-0.0,-0.0,-0.0,-0.0,-0.0,-0.0,-0.0,0.2766,0.7508,0.9468,1.1756,1.4228,1.424,1.4247,1.4249,1.393,1.3878,1.3878,1.3878,1.3878,1.3878,1.3878,1.3878,1.3878,1.3878,1.6251,1.9297,2.0347,2.2217,2.4399,2.688,2.7385,2.7385,2.7385,2.7385,2.7385,2.7385,3.0627,3.3691,3.3691,3.7069,3.9978,3.9978,3.9978,3.9693,3.8839,3.9048,3.8934,3.7641,3.7842,3.7762,3.6894,3.6818,3.7849,4.034,4.0551,4.2083,4.5616,4.6831,4.7856,4.8905,4.9467,5.0003,5.0516,5.1126,5.1577,5.1577,5.1577,5.1577,5.1577,5.1931,5.2175,-0.704,-0.7988,-0.9115,-1.019,-1.0499,-0.9569,-0.5973,-0.4637,-0.4744,-0.7038,-0.7516,-0.7889,-0.9226,-0.9584,-1.0127,-1.1586,-1.2167,-1.2781,0.0,0.0,-1.4048,-1.5242,0.0,-1.4384,-1.4562,-0.7124,-0.16,-0.0175,-0.0,-0.0,-0.0,-0.0,-0.0,-0.0,-0.0,-0.0,-0.0,-0.0,-0.0,-0.0,-0.0,-0.0,-0.0,-0.0,-0.0,-0.0,-0.0,-0.0,0.0765,1.0166,1.3816,1.3589,1.3892,1.4292,1.4721,1.4062,1.3771,1.3764,1.3725,1.3878,1.3878,1.3878,1.3878,1.3878,1.3878,1.5413,1.7799,2.0057,2.1913,2.4077,2.6715,2.7385,2.7385,2.7385,2.7385,2.7385,2.7385,3.0714,3.3669,3.3695,3.7063,3.9978,3.9978,3.9978,3.9731,3.901,3.9522,3.9448,3.8135,3.8539,3.8584,3.7787,3.8008,3.9071,4.1246,4.17,4.284,4.5276,4.7368,4.8881,4.9711,4.993,5.0467,5.1552,5.1577,5.1577,5.1577,5.1724,5.1797,5.1846,5.2785,5.3274,-0.7496,-0.8595,-0.976,-0.9998,-1.0227,-1.0264,-0.9217,-0.8011,-0.7024,-0.7058,-0.7094,-0.7232,-0.7687,-0.9192,-1.016,-0.9701,-1.0666,0.0,-1.3983,-1.3686,-1.3463,-1.3977,-1.5698,0.0,-0.3541,-0.8094,-0.8421,-0.0524,-0.0,-0.0,-0.0,-0.0,-0.0,-0.0,-0.0,-0.0,-0.0,-0.0,-0.0,-0.0,-0.0,-0.0,-0.0,-0.0,-0.0,-0.0,-0.0,-0.0,0.0781,1.1096,1.2524,0.8707,1.3425,1.5137,1.4669,1.4003,1.3718,1.3862,1.379,1.3878,1.3878,1.3878,1.3878,1.3878,1.3878,1.5413,1.7791,1.9972,2.0872,2.2091,2.6386,2.7385,2.7385,2.7385,2.7385,2.7385,2.7385,3.0686,3.3594,3.3681,3.7082,3.9978,3.9978,3.9978,3.994,3.9807,3.9883,3.9902,3.9712,3.9805,3.9572,3.8616,4.0031,4.1424,4.2455,4.4069,4.579,4.7634,4.8881,4.9589,4.9759,5.0662,5.1406,5.1577,5.1577,5.1577,5.1577,5.2346,5.2785,5.281,5.3884,5.4396,-0.7865,-0.89,-0.9896,-0.9586,-0.9654,-0.9721,-0.9299,-0.8445,-0.7635,-0.7245,-0.7061,-0.714,-0.774,-0.8309,-0.9128,-0.9938,-1.0546,-1.1418,0.0,0.0,-1.2728,-1.2105,-1.1885,-1.0833,-0.8588,-0.7117,-0.664,-0.734,-0.2794,-0.0,-0.0,-0.0,-0.0,-0.0,-0.0,-0.0,-0.0,-0.0,-0.0,-0.0,-0.0,-0.0,-0.0,-0.0,-0.0,-0.0,-0.0,-0.0,0.0392,0.5192,0.7281,0.7899,1.2628,1.4788,1.515,1.4863,1.4279,1.3762,1.381,1.3836,1.3878,1.3878,1.3878,1.3878,1.3878,1.4557,1.6089,1.9616,2.0525,2.1597,2.6233,2.7385,2.7385,2.7385,2.7385,2.7385,2.7385,3.0712,3.3572,3.3651,3.7162,3.9978,3.9978,3.9978,3.9978,3.9978,3.9978,3.9978,3.9978,3.9978,3.9957,3.9481,4.0201,4.1471,4.3344,4.4787,4.6498,4.8332,4.8891,4.9553,5.0662,5.115,5.1577,5.1577,5.1577,5.1761,5.2307,5.2765,5.3393,5.3932,5.5027,5.5492,-0.8686,0.0,-1.0172,-0.9737,-0.9579,-0.9414,0.0,-0.8432,-0.7891,-0.7456,-0.7153,-0.7166,-0.7735,-0.7634,-0.799,-0.9849,-1.0397,-1.094,-1.1847,-1.2514,0.0,-1.1325,-0.8903,-0.9387,-1.4576,-0.8109,-0.5439,-1.0157,-0.4016,-0.0,-0.0,-0.0,-0.0,-0.0,-0.0,-0.0,-0.0,-0.0,-0.0,-0.0,-0.0,-0.0,-0.0,-0.0,-0.0,-0.0,-0.0,-0.0,-0.0,-0.0,0.3867,0.9966,1.2945,1.4784,1.5464,1.5555,1.491,1.3965,1.3902,1.3868,1.3983,1.3983,1.3937,1.3878,1.3878,1.3878,1.4728,1.8612,2.0179,2.1566,2.5536,2.7044,2.7385,2.7385,2.7385,2.7385,2.7385,3.0335,3.3046,3.3578,3.6769,3.9484,3.9997,3.9978,3.9978,3.9978,3.9978,3.9978,3.9978,3.9978,3.9978,3.9978,4.0411,4.1534,4.367,4.4568,4.5872,4.7749,4.8328,4.9316,5.0723,5.1285,5.1577,5.1577,5.1797,5.2273,5.3111,5.355,5.4237,5.4962,5.6031,5.6568,0.0,-1.0924,-1.1175,-1.1135,-1.0931,-1.0522,-0.9691,-0.9039,0.0,-0.7542,-0.7153,-0.6982,-0.7041,-0.7335,-0.7635,-0.7964,-0.9844,-1.1157,-1.0939,-1.1762,0.0,0.0,-1.0493,-1.01,-1.3591,-1.3756,-1.0157,-0.1574,-0.0349,-0.0,-0.0,-0.0,-0.0,-0.0,-0.0,-0.0,-0.0,-0.0,-0.0,-0.0,-0.0,-0.0,-0.0,-0.0,-0.0,-0.0,-0.0,-0.0,-0.0,-0.0,0.5882,1.4989,1.5328,1.5483,1.5618,1.5478,1.5143,1.4698,1.4074,1.3991,1.4299,1.4299,1.4108,1.3878,1.3878,1.3878,1.4392,1.677,1.8959,2.1139,2.3465,2.5841,2.7385,2.7385,2.7385,2.7385,2.7385,2.9158,3.1331,3.3221,3.5548,3.7791,3.9732,3.9978,3.9978,3.9978,3.9978,3.9978,3.9978,3.9978,3.9978,3.9978,4.1549,4.2715,4.2885,4.2966,4.3839,4.5708,4.7586,4.8628,4.8743,5.0564,5.1577,5.1577,5.2419,5.2956,5.3054,5.5012,5.5993,5.6137,5.7244,5.7788,-1.0792,-1.1201,-1.1465,-1.1109,-1.1069,-1.0891,-1.0014,-0.9368,-0.8702,-0.7825,-0.7278,-0.6962,-0.6962,-0.7141,-0.7609,-0.8709,-0.9658,-1.0514,-1.1214,0.0,0.0,-1.2895,-1.2475,0.0,-1.4383,-1.4971,-1.2412,-0.5324,-0.722,-0.6128,-0.0349,-0.0,-0.0,-0.0,-0.0,-0.0,-0.0,-0.0,-0.0,-0.0,-0.0,-0.0,-0.0,-0.0,-0.0,-0.0,-0.0,-0.0,0.0,-0.0,0.6086,1.4989,0.8404,0.9763,1.5477,1.5519,1.5341,1.4788,1.4678,1.4537,1.4357,1.4311,1.4174,1.3878,1.3878,1.3878,1.4214,1.66,1.8959,2.1119,2.3288,2.5664,2.7385,2.7385,2.7385,2.7385,2.7385,2.9063,3.1077,3.3254,3.5473,3.7514,3.9732,3.9978,3.9978,3.9978,3.9978,3.9978,3.9978,3.9978,3.9978,3.9978,4.0692,4.1102,4.1043,4.1082,4.1846,4.3693,4.4562,4.5993,4.8466,4.9316,5.0604,5.2419,5.2834,5.3354,5.4019,5.5417,5.66,5.7342,5.7662,5.791,-1.1306,-1.1564,-1.1768,-1.1379,-1.1418,-1.1306,-1.0337,-0.9671,-0.8986,-0.801,-0.7357,-0.6962,-0.6962,-0.7028,-0.7542,-0.8926,-0.9381,-1.0034,-1.1386,0.0,0.0,-1.2856,-1.3673,-1.4458,-1.4852,-1.5173,-1.3779,-0.9975,-1.2201,-0.9823,-0.0524,-0.0,-0.0,-0.0,-0.0,-0.0,-0.0,-0.0,-0.0,-0.0,-0.0,-0.0,-0.0,-0.0,-0.0,-0.0,-0.0,-0.0,-0.0,-0.0,0.4123,0.9825,0.273,0.6434,1.5522,1.5457,1.5314,1.5151,1.5138,1.5008,1.4601,1.459,1.4201,1.3884,1.3878,1.3878,1.4221,1.5755,1.8274,2.0961,2.2456,2.5169,2.7385,2.7385,2.7385,2.7385,2.7385,2.8502,3.0158,3.231,3.4336,3.6521,3.8702,3.9543,3.9978,3.9978,3.9978,3.9978,3.9978,3.9978,3.9978,3.9978,3.9978,3.9978,3.9978,3.9978,4.0542,4.1826,4.2397,4.4192,4.7532,4.8558,5.0317,5.2986,5.3646,5.4431,5.5179,5.6191,5.7143,5.791,5.791,5.791,-1.2091,-1.2321,-1.2321,-1.2321,-1.2321,-1.2007,0.0,-0.9975,-0.923,-0.8056,-0.7357,-0.6962,-0.6962,-0.7186,-0.7568,-0.8067,-0.8881,-0.9962,-1.1122,-1.1801,-1.25,0.0,-1.3719,-1.4128,-1.4721,-1.4984,-1.4603,-1.3914,-1.3701,-0.9626,-0.0524,-0.0,-0.0,-0.0,-0.0,-0.0,-0.0,-0.0,-0.0,-0.0,-0.0,-0.0,-0.0,-0.0,-0.0,-0.0,-0.0,-0.0,-0.0,-0.0,-0.0,-0.0,-0.0,0.6445,1.5588,1.5477,1.5464,1.549,1.5644,1.5374,1.5177,1.4783,1.4565,1.4241,1.3884,1.3884,1.3878,1.3878,1.7086,2.0625,2.0625,2.3997,2.7385,2.7385,2.7385,2.7385,2.7385,2.7385,2.8014,3.0042,3.2133,3.4366,3.6489,3.8684,3.9978,3.9978,3.9978,3.9978,3.9978,3.9978,3.9978,3.9978,3.9978,3.9978,3.9978,3.9978,3.9978,3.9978,4.1678,4.3588,4.5594,4.8498,5.1082,5.3069,5.5157,5.6155,5.6155,5.739,5.791,5.791,5.791,5.791,-1.2144,-1.2321,-1.2321,-1.2321,-1.2321,-1.2007,0.0,0.0,-0.923,-0.8056,-0.7357,-0.6962,-0.6962,-0.7186,-0.77,-0.8702,-0.9256,-1.0034,-1.1399,-1.2269,-1.2948,-1.3416,0.0,-1.4866,-1.5044,-1.5291,-1.4913,-1.3857,-0.7754,-0.2969,-0.0175,-0.0,-0.0,-0.0,-0.0,-0.0,-0.0,-0.0,-0.0,-0.0,-0.0,-0.0,-0.0,-0.0,-0.0,-0.0,-0.0,-0.0,-0.0,-0.0,-0.0,-0.0,-0.0,0.6459,1.5588,1.5509,1.549,1.549,1.5644,1.536,1.5177,1.4853,1.468,1.4288,1.4207,1.4095,1.3878,1.3878,1.4721,1.6584,1.9784,2.3997,2.7385,2.7385,2.7385,2.7385,2.7385,2.7385,2.8014,3.0042,3.1051,3.2552,3.6281,3.737,3.8396,3.9846,3.9978,3.9978,3.9978,3.9978,3.9978,3.9978,3.9978,3.9978,3.9978,3.9978,3.9978,3.9978,4.0542,4.1934,4.4413,4.6859,4.9623,5.3011,5.5043,5.6624,5.739,5.7687,5.791,5.791,5.791,5.791,-1.2321,-1.2321,-1.2321,-1.2321,-1.2321,-1.1893,-1.0838,0.0,-0.9263,-0.8106,-0.7443,-0.6995,-0.71,-0.745,-0.8069,-0.9124,-0.9737,-1.0548,-1.1873,-1.2717,-1.3396,-1.3924,-1.4695,-1.5236,0.0,0.0,-1.4193,-1.132,-0.425,-0.0,-0.0,-0.0,-0.0,-0.0,-0.0,-0.0,-0.0,-0.0,-0.0,-0.0,-0.0,-0.0,-0.0,-0.0,-0.0,-0.0,-0.0,-0.0,-0.0,-0.0,-0.0,0.0393,0.4505,0.7448,0.9812,1.3923,1.5496,1.549,1.5644,1.5431,1.5373,1.5028,1.4768,1.4536,1.4398,1.4161,1.3878,1.3878,1.3878,1.4892,1.9447,2.2644,2.5181,2.7044,2.7385,2.7385,2.7385,2.7385,2.7851,2.9114,2.9895,3.1342,3.3965,3.5727,3.7299,3.8666,3.9543,3.9978,3.9978,3.9978,3.9978,3.9978,3.9978,3.9978,3.9978,3.9978,3.9978,3.9978,3.9978,4.133,4.4068,4.6563,4.9604,5.295,5.5615,5.7167,5.791,5.791,5.791,5.791,5.791,5.791,-1.2321,-1.2321,-1.2321,-1.2321,-1.2321,-1.1939,-1.1062,0.0,-0.9375,-0.8347,-0.7628,-0.7133,-0.7298,-0.7885,-0.8497,-0.9428,-1.0318,-1.1313,-1.25,-1.3152,-1.3831,-1.4708,0.0,0.0,-1.5431,-1.4375,-1.1626,-0.6808,-0.2487,-0.0,-0.0,-0.0,-0.0,-0.0,-0.0,-0.0,-0.0,-0.0,-0.0,-0.0,-0.0,-0.0,-0.0,-0.0,-0.0,-0.0,-0.0,-0.0,-0.0,-0.0,-0.0,0.0981,1.042,0.8432,0.1173,1.174,1.5496,1.549,1.5644,1.5625,1.5425,1.5174,1.4923,1.4748,1.4504,1.4141,1.3878,1.3878,1.3878,1.4721,1.911,2.0457,2.1631,2.6019,2.7208,2.7385,2.7385,2.7385,2.7385,2.7385,2.8951,3.0364,3.0511,3.3852,3.6747,3.6887,3.8666,3.9978,3.9978,3.9978,3.9978,3.9978,3.9978,3.9978,3.9978,3.9978,3.9978,3.9978,3.9978,4.1191,4.387,4.7264,5.0282,5.2809,5.6227,5.791,5.791,5.791,5.791,5.791,5.791,5.791,-1.2177,-1.2321,-1.2321,-1.2321,-1.2321,-1.1939,-1.1062,-1.0542,-0.9863,-0.8425,-0.8009,-0.7793,-0.716,-0.8076,-0.9072,-0.9493,-1.0476,-1.1676,-1.308,-1.3574,-1.4115,-1.4992,-1.5381,0.0,-1.5558,-0.8048,-0.2751,-0.1626,-0.053,-0.0,-0.0,-0.0,-0.0,-0.0,-0.0,-0.0,-0.0,-0.0,-0.0,-0.0,-0.0,-0.0,-0.0,-0.0,-0.0,-0.0,-0.0,-0.0,-0.0,-0.0,-0.0,0.0196,0.2545,0.1955,0.1173,1.174,1.5496,1.549,1.5644,1.5625,1.5552,1.5291,1.4899,1.4814,1.4708,1.4299,1.3878,1.3878,1.3878,1.4386,1.7273,1.9288,2.1296,2.3975,2.6006,2.7385,2.7385,2.7385,2.7385,2.7385,2.77,2.864,3.0203,3.2587,3.4967,3.6747,3.8745,3.9978,3.9978,3.9978,3.9978,3.9978,3.9978,3.9978,3.9978,3.9978,3.9978,3.9978,3.9978,4.0943,4.2813,4.6837,4.9911,5.1766,5.5848,5.791,5.791,5.791,5.791,5.791,5.791,5.791,-1.219,-1.2177,-1.2321,-1.2321,-1.2321,-1.2012,-1.1412,0.0,0.0,-0.9181,-0.8748,-0.8274,-0.7694,-0.865,-0.9579,-0.9731,-1.0858,-1.2117,-1.3304,-1.3733,-1.424,-1.4923,-1.5394,-1.3497,-0.8555,-0.3146,-0.0,-0.0,-0.0,-0.0,-0.0,-0.0,-0.0,-0.0,-0.0,-0.0,-0.0,-0.0,-0.0,-0.0,-0.0,-0.0,-0.0,-0.0,-0.0,-0.0,-0.0,-0.0,-0.0,-0.0,-0.0,-0.0,-0.0,0.3134,0.8034,1.3539,1.5509,1.549,1.5644,1.5625,1.5578,1.5282,1.4899,1.4563,1.4563,1.424,1.3878,1.3878,1.3878,1.4392,1.677,1.895,2.1129,2.3454,2.5676,2.7385,2.7385,2.7385,2.7385,2.7385,2.7385,2.77,2.8789,3.0686,3.2904,3.4967,3.7158,3.8879,3.9959,3.9978,3.9978,3.9978,3.9978,3.9978,3.9978,3.9978,3.9978,3.9978,3.9978,4.0773,4.2431,4.5632,4.8682,5.1427,5.4735,5.6806,5.791,5.791,5.791,5.791,5.791,5.791,-1.219,-1.219,-1.2177,-1.2321,-1.2321,-1.2091,-1.1788,-1.1353,0.0,-1.0179,-0.952,-0.894,-0.8445,-0.9304,-1.0232,-1.0337,-1.1504,-1.2684,-1.3502,-1.4201,-1.4456,-1.3995,-1.3384,-0.942,-0.0749,-0.0,-0.0,-0.0,-0.0,-0.0,-0.0,-0.0,-0.0,-0.0,-0.0,-0.0,-0.0,-0.0,-0.0,-0.0,-0.0,-0.0,-0.0,-0.0,-0.0,-0.0,-0.0,-0.0,-0.0,-0.0,-0.0,0.0196,0.1963,0.6867,1.2982,1.4938,1.5509,1.5483,1.5638,1.5585,1.5519,1.5103,1.4767,1.4326,1.4326,1.4115,1.3878,1.3878,1.3878,1.4221,1.6259,1.8282,2.0625,2.2789,2.5157,2.6867,2.7372,2.7385,2.7385,2.7385,2.7385,2.7385,2.7385,2.9114,3.1152,3.3379,3.5591,3.7637,3.9808,3.9978,3.9978,3.9978,3.9978,3.9978,3.9978,3.9978,3.9978,3.9978,3.9978,4.087,4.2464,4.4543,4.7315,5.094,5.3293,5.5575,5.739,5.7687,5.791,5.791,5.791,5.791,-1.2144,-1.2203,-1.2196,-1.2177,-1.2321,-1.2091,-1.1788,-1.1662,-1.1372,-1.0535,-1.0476,-1.0331,-0.9533,-1.0331,-1.1273,-1.1794,-1.2678,-1.3508,-1.4128,-1.4993,-1.4077,-1.0555,-0.5356,-0.1436,-0.0176,-0.0,-0.0,-0.0,-0.0,-0.0,-0.0,-0.0,-0.0,-0.0,-0.0,-0.0,-0.0,-0.0,-0.0,-0.0,-0.0,-0.0,-0.0,-0.0,-0.0,-0.0,-0.0,-0.0,-0.0,-0.0,-0.0,0.0981,1.0025,0.8816,0.3118,1.2129,1.5477,1.5631,1.5631,1.5407,1.5097,1.4939,1.4629,1.4326,1.4326,1.4115,1.3878,1.3878,1.3878,1.3878,1.4221,1.5918,1.8282,2.0457,2.2789,2.498,2.7031,2.7385,2.7385,2.7385,2.7385,2.7385,2.7385,2.9114,3.1152,3.3379,3.5591,3.7637,3.9808,3.9978,3.9978,3.9978,3.9978,3.9978,3.9978,3.9978,3.9978,3.9978,3.9978,4.0815,4.2536,4.4571,4.6602,4.8652,5.2548,5.4792,5.51,5.6919,5.791,5.791,5.791,5.791,-1.2136,-1.2282,-1.2203,-1.219,-1.2183,-1.2137,-1.2005,-1.1972,-1.1814,-1.126,-1.1254,-1.1128,-1.0423,-1.097,-1.1557,-1.1656,-1.2269,-1.2882,-1.3291,-1.3535,-1.2119,-0.8013,-0.31,-0.0,-0.0,-0.0,-0.0,-0.0,-0.0,-0.0,-0.0,-0.0,-0.0,-0.0,-0.0,-0.0,-0.0,-0.0,-0.0,-0.0,-0.0,-0.0,-0.0,-0.0,-0.0,-0.0,-0.0,-0.0,-0.0,-0.0,-0.0,0.0387,0.5082,0.4116,0.1173,1.174,1.5509,1.5483,1.54,1.509,1.4775,1.4677,1.4319,1.4075,1.4075,1.3983,1.3878,1.3878,1.3878,1.3878,1.3878,1.5584,1.7612,1.8452,2.1464,2.4129,2.5157,2.6525,2.7385,2.7385,2.7385,2.7385,2.7385,2.8164,2.9909,3.3078,3.4497,3.6213,3.9656,3.9978,3.9978,3.9978,3.9978,3.9978,3.9978,3.9978,3.9978,3.9978,3.9978,4.0737,4.2465,4.3496,4.5951,4.991,5.0719,5.2747,5.6425,5.6248,5.6721,5.791,5.791,5.791,-1.163,-1.2184,-1.2241,-1.2301,-1.219,-1.2177,-1.2321,-1.2321,-1.2111,-1.188,-1.1834,-1.1702,-1.128,-1.155,-1.1834,-1.1834,-1.221,-1.2572,-1.246,-1.2388,-1.0383,-0.5088,-0.1819,-0.0,-0.0,-0.0,-0.0,-0.0,-0.0,-0.0,-0.0,-0.0,-0.0,-0.0,-0.0,-0.0,-0.0,-0.0,-0.0,-0.0,-0.0,-0.0,-0.0,-0.0,-0.0,-0.0,-0.0,-0.0,-0.0,-0.0,-0.0,-0.0,-0.0,0.1552,0.4673,1.1264,1.4408,1.5347,1.5157,1.4795,1.4376,1.4343,1.4062,1.3878,1.3878,1.3878,1.3878,1.3878,1.3878,1.3878,1.3878,1.5071,1.66,1.7111,2.0289,2.3288,2.3797,2.5841,2.7385,2.7385,2.7385,2.7385,2.7385,2.7385,2.8816,3.3078,3.371,3.5107,3.9505,3.9978,3.9978,3.9978,3.9978,3.9978,3.9978,3.9978,3.9978,3.9978,3.9978,4.068,4.2218,4.2501,4.4782,4.944,4.919,5.1394,5.6332,5.5715,5.6285,5.791,5.791,5.791,-1.0149,-1.2277,-1.2227,-1.2309,-1.2203,-1.2196,-1.2177,-1.2321,-1.2163,-1.215,-1.2144,-1.2137,-1.2111,-1.213,-1.2414,-1.3225,-1.3383,-1.3071,-1.2425,-1.2289,-0.9217,-0.1234,-0.0156,-0.0,-0.0,-0.0,-0.0,-0.0,-0.0,-0.0,-0.0,-0.0,-0.0,-0.0,-0.0,-0.0,-0.0,-0.0,-0.0,-0.0,-0.0,-0.0,-0.0,-0.0,-0.0,-0.0,-0.0,-0.0,-0.0,-0.0,-0.0,-0.0,-0.0,0.6017,1.4195,0.9872,1.116,1.4852,1.4633,1.4323,1.426,1.399,1.3891,1.3878,1.3878,1.3878,1.3878,1.3878,1.3878,1.3878,1.3878,1.3878,1.4564,1.677,1.9119,2.1296,2.3465,2.5841,2.7385,2.7385,2.7385,2.7385,2.7385,2.7385,2.8816,3.3078,3.371,3.5107,3.9505,3.9978,3.9978,3.9978,3.9978,3.9978,3.9978,3.9978,3.9978,3.9978,3.9978,4.0452,4.122,4.2095,4.3146,4.4197,4.882,5.1579,5.1828,5.5893,5.776,5.791,5.791,5.791,-0.3627,-0.8231,-1.2272,-1.2266,-1.2247,-1.2203,-1.2196,-1.2183,-1.2321,-1.2321,-1.2308,-1.2434,-1.2434,-1.2434,-1.2546,-1.2723,-1.2618,-1.2508,-1.2357,-0.7741,-0.3286,-0.0305,-0.0,-0.0,-0.0,-0.0,-0.0,-0.0,-0.0,-0.0,-0.0,-0.0,-0.0,-0.0,-0.0,-0.0,-0.0,-0.0,-0.0,-0.0,-0.0,-0.0,-0.0,-0.0,-0.0,-0.0,-0.0,-0.0,-0.0,-0.0,-0.0,-0.0,-0.0,0.2232,0.6175,1.097,1.3595,1.4676,1.4187,1.399,1.4023,1.3911,1.3878,1.3878,1.3878,1.3878,1.3878,1.3878,1.3878,1.3878,1.3878,1.3878,1.4049,1.4899,1.7935,2.0793,2.1631,2.4661,2.7385,2.7385,2.7385,2.7385,2.7385,2.7385,2.8816,3.3078,3.371,3.4654,3.7637,3.9183,3.9978,3.9978,3.9978,3.9978,3.9978,3.9978,3.9978,3.9978,3.9978,4.0433,4.1164,4.2153,4.3528,4.586,4.8251,5.0761,5.3542,5.511,5.6578,5.791,5.791,5.791,-0.2438,-0.5423,-0.8437,-0.9864,-1.1147,-1.2234,-1.2058,-1.2124,-1.2183,-1.2183,-1.2322,-1.2447,-1.2447,-1.2447,-1.246,-1.2332,-1.1082,-0.9743,-0.8376,-0.3498,-0.0,-0.0,-0.0,-0.0,-0.0,-0.0,-0.0,-0.0,-0.0,-0.0,-0.0,-0.0,-0.0,-0.0,-0.0,-0.0,-0.0,-0.0,-0.0,-0.0,-0.0,-0.0,-0.0,-0.0,-0.0,-0.0,-0.0,-0.0,-0.0,-0.0,-0.0,-0.0,-0.0,-0.0,0.1282,1.1258,1.3792,1.2301,1.3384,1.3751,1.3878,1.3878,1.3878,1.3878,1.3878,1.3878,1.3878,1.3878,1.3878,1.3878,1.3878,1.3878,1.3878,1.3878,1.7256,2.0625,2.0625,2.4163,2.7385,2.7385,2.7385,2.7385,2.7385,2.7385,2.8328,3.1182,3.2125,3.3063,3.4637,3.7312,3.9201,3.9978,3.9978,3.9978,3.9978,3.9978,3.9978,3.9978,3.9978,4.0282,4.0829,4.1672,4.2995,4.5057,4.7228,4.9863,5.3092,5.4505,5.6068,5.791,5.791,5.791,-0.7207,-0.4555,-0.1175,-0.4945,-0.9036,-1.2113,-1.1735,-1.1805,-1.2026,-1.219,-1.2183,-1.2177,-1.2177,-1.219,-1.2203,-1.1895,-0.8509,-0.4402,-0.0609,-0.0,-0.0,-0.0,-0.0,-0.0,-0.0,-0.0,-0.0,-0.0,-0.0,-0.0,-0.0,-0.0,-0.0,-0.0,-0.0,-0.0,-0.0,-0.0,-0.0,-0.0,-0.0,-0.0,-0.0,-0.0,-0.0,-0.0,-0.0,-0.0,-0.0,-0.0,-0.0,-0.0,-0.0,-0.0,0.1075,1.0082,1.0675,0.7638,1.2209,1.3764,1.3878,1.3878,1.3878,1.3878,1.3878,1.3878,1.3878,1.3878,1.3878,1.3878,1.3878,1.3878,1.3878,1.3878,1.7256,2.0625,2.0625,2.4163,2.7385,2.7385,2.7385,2.7385,2.7385,2.7385,2.7385,2.7385,2.9114,3.0525,3.0511,3.415,3.7619,3.9656,3.9978,3.9978,3.9978,3.9978,3.9978,3.9978,3.9978,3.9978,3.9978,4.0812,4.1253,4.1287,4.6248,4.9109,5.0132,5.4162,5.6739,5.7813,5.7861,5.7861,-0.7588,-0.7587,-0.5571,-0.2396,-0.6937,-1.2155,-1.2175,-0.9818,-0.8563,-1.1579,-1.2234,-1.2216,-1.2216,-1.2223,-1.037,-0.441,-0.2433,-0.1217,-0.0152,-0.0,-0.0,-0.0,-0.0,-0.0,-0.0,-0.0,-0.0,-0.0,-0.0,-0.0,-0.0,-0.0,-0.0,-0.0,-0.0,-0.0,-0.0,-0.0,-0.0,-0.0,-0.0,-0.0,-0.0,-0.0,-0.0,-0.0,-0.0,-0.0,-0.0,-0.0,-0.0,-0.0,-0.0,-0.0,0.0352,0.2802,0.5227,0.7638,1.2209,1.3764,1.3878,1.3878,1.3878,1.3878,1.3878,1.3878,1.3878,1.3878,1.3878,1.3878,1.3878,1.3878,1.4221,1.5925,1.8443,2.1129,2.2622,2.5334,2.7385,2.7385,2.7385,2.7385,2.7385,2.7385,2.7385,2.7385,2.7851,2.8803,3.0364,3.1632,3.3678,3.7466,3.9183,3.9978,3.9978,3.9978,3.9978,3.9978,3.9978,3.9978,3.9978,4.218,4.3351,4.3365,4.8212,5.0834,5.1156,5.3709,5.5226,5.5543,5.6348,5.669,-0.3044,-0.4014,-0.5003,-0.4517,-0.5742,-0.7106,-0.7095,-0.6014,-0.5453,-0.7159,-0.8562,-0.9617,-0.9617,-0.8326,-0.563,-0.0761,-0.0,-0.0,-0.0,-0.0,-0.0,-0.0,-0.0,-0.0,-0.0,-0.0,-0.0,-0.0,-0.0,-0.0,-0.0,-0.0,-0.0,-0.0,-0.0,-0.0,-0.0,-0.0,-0.0,-0.0,-0.0,-0.0,-0.0,-0.0,-0.0,-0.0,-0.0,-0.0,-0.0,-0.0,-0.0,-0.0,-0.0,-0.0,-0.0,-0.0,0.2956,0.7638,1.2198,1.3751,1.3878,1.3878,1.3878,1.3878,1.3878,1.3878,1.3878,1.3878,1.3878,1.4049,1.5427,1.577,1.6275,1.8282,2.0457,2.2289,2.362,2.5841,2.7385,2.7385,2.7385,2.7385,2.7385,2.7385,2.7385,2.7385,2.7385,2.7864,2.9114,3.0056,3.1791,3.5123,3.7466,3.9031,3.9978,3.9978,3.9978,3.9978,3.9978,4.0373,4.1153,4.2656,4.398,4.4781,4.8413,5.0448,5.0985,5.2921,5.4201,5.464,5.5275,5.5096,0.3063,0.2416,-0.132,-0.746,-0.4389,0.0321,0.0,-0.0879,-0.1745,0.0135,-0.2389,-0.489,-0.521,-0.2372,-0.0,-0.0,0.0609,0.0916,0.0153,-0.0,-0.0,-0.0,-0.0,-0.0,-0.0,-0.0,-0.0,-0.0,-0.0,-0.0,-0.0,-0.0,-0.0,-0.0,-0.0,-0.0,-0.0,-0.0,-0.0,-0.0,-0.0,-0.0,-0.0,-0.0,-0.0,-0.0,-0.0,-0.0,-0.0,-0.0,-0.0,-0.0,-0.0,-0.0,-0.0,0.0522,0.3818,0.833,1.2353,1.3738,1.3878,1.3878,1.3878,1.3878,1.3878,1.3878,1.3878,1.3878,1.3878,1.4392,1.7306,1.8352,1.9031,2.0467,2.2456,2.3963,2.4295,2.6006,2.7385,2.7385,2.7385,2.7385,2.7385,2.7385,2.7385,2.7385,2.7385,2.7385,2.7385,2.8951,3.1007,3.3395,3.5435,3.7483,3.9827,3.9978,3.9978,3.9978,3.9978,4.0784,4.2695,4.2969,4.394,4.6015,4.7888,4.9252,5.0137,5.1765,5.3216,5.4163,5.417,5.3293,0.0,0.0,0.0,0.0,0.0,0.0,0.0,0.4889,0.6123,0.7846,0.5418,0.2154,-0.0664,-0.0557,-0.0,-0.0,0.4828,0.643,0.0763,-0.0,-0.0,-0.0,-0.0,-0.0,-0.0,-0.0,-0.0,-0.0,-0.0,-0.0,-0.0,-0.0,-0.0,-0.0,-0.0,-0.0,-0.0,-0.0,-0.0,-0.0,-0.0,-0.0,-0.0,-0.0,-0.0,-0.0,-0.0,-0.0,-0.0,-0.0,-0.0,-0.0,-0.0,-0.0,0.0522,0.4167,0.8511,1.2532,1.3553,1.3884,1.3878,1.3878,1.3878,1.3878,1.3878,1.3878,1.3878,1.3878,1.3878,1.3864,1.4474,1.7459,2.0623,2.2111,2.3266,2.4472,2.6348,2.7044,2.7385,2.7385,2.7385,2.7385,2.7385,2.7385,2.7385,2.7385,2.7385,2.7385,2.7385,2.77,2.9438,3.3237,3.4026,3.5902,3.9656,3.9978,3.9978,3.9978,3.9978,4.0866,4.2723,4.4319,4.5982,4.8027,5.0022,5.052,4.982,5.0238,5.0651,5.1217,5.0898,5.0741,0.0,0.0,0.0,0.0,0.0,0.0,0.0,0.0,0.0,0.0,0.0,0.4407,0.1781,0.0,0.1756,0.3239,0.7487,0.8618,0.3355,0.2596,0.2747,0.3044,0.3042,0.3042,0.3042,0.3042,0.3042,0.3042,0.3042,0.396,0.5959,0.6115,0.4276,0.0153,-0.0,-0.0,-0.0,-0.0,-0.0,-0.0,-0.0,-0.0,-0.0,-0.0,-0.0,-0.0,-0.0,-0.0,-0.0,-0.0,-0.0,-0.0,-0.0,0.2889,0.7094,0.9348,1.1543,1.3535,1.364,1.3673,1.37,1.3831,1.3878,1.3878,1.3878,1.3785,1.3849,1.3849,1.3742,1.4793,1.9458,2.222,2.4129,2.4997,2.5469,2.6006,2.7208,2.7385,2.7385,2.7385,2.7385,2.7385,2.7385,2.7385,2.7385,2.7385,2.7385,2.7385,2.7385,2.8328,2.9813,3.2086,3.2934,3.4827,3.8394,3.7985,3.8011,3.9261,3.9054,3.9938,4.2595,4.3662,4.5526,4.8346,4.891,4.8759,4.8198,4.8326,4.8452,4.8552,4.7901,4.8132,0.0,0.0,0.0,0.0,0.0,0.0,0.0,0.0,0.0,0.0,0.0,0.0,0.0,0.0,0.0,0.6741,0.8409,0.8373,0.5593,0.592,0.6519,0.6946,0.7123,0.7294,0.7294,0.7294,0.7294,0.7294,0.7294,0.8688,1.213,1.1509,0.7951,0.1372,0.1983,0.2442,0.2442,0.0778,-0.0,-0.0,-0.0,0.0,-0.0,-0.0,-0.0,-0.0,-0.0,-0.0,-0.0,-0.0,-0.0,0.0168,0.1328,0.6237,1.2911,1.3094,1.3199,1.3222,1.3258,1.335,1.3423,1.364,1.3569,1.3595,1.3595,1.3762,0.0,1.3555,1.3532,1.5117,2.2641,2.6013,2.7349,2.7349,2.7349,2.7367,2.7087,2.723,2.7346,2.7243,2.7307,2.7385,2.7385,2.7294,2.7178,2.7074,2.7243,2.7458,2.7709,2.927,3.0895,3.2074,3.3091,3.4845,3.7538,3.6089,3.61,3.8839,3.7637,3.8384,4.1773,4.2223,4.3864,4.7172,4.6245,4.6023,4.6654,4.6629,4.6707,4.6923,4.4342,4.4356,0.0,0.0,0.0,0.0,0.0,0.0,0.0,0.0,0.0,0.0,0.0,0.0,0.0,0.0,0.0,0.0,0.6125,0.5016,0.5269,0.8277,1.0667,1.0667,1.1168,1.1611,1.1611,1.1611,1.1611,1.1611,1.1611,1.1769,1.2243,0.8679,0.0,0.0,0.0,1.09,1.09,0.3674,-0.0,-0.0,-0.0,-0.0,-0.0,-0.0,-0.0,-0.0,-0.0,-0.0,-0.0,-0.0,-0.0,0.0492,0.5782,0.8419,0.9667,1.2152,1.2948,1.2955,1.2823,0.0,0.0,1.3113,1.3061,1.3191,1.3191,1.3402,1.3579,1.2743,1.2492,1.271,1.3724,2.0616,2.7456,2.7421,2.7462,2.7044,2.6152,2.6671,2.723,2.671,2.7035,2.7385,2.7385,2.6957,2.645,2.5944,2.6736,2.7629,2.8541,2.9656,3.2034,3.5817,3.6363,0.0,3.8484,3.6371,3.6394,3.9627,3.6389,3.5525,3.8547,4.0079,4.1862,4.3788,4.2878,4.3778,4.6782,4.5889,4.6154,4.7342,3.8534,3.742,0.0,0.0,0.0,0.0,0.0,0.0,0.0,0.0,0.0,0.0,0.0,0.0,0.0,0.0,0.0,0.0,0.8068,0.8,0.8451,0.9959,1.1104,1.1425,1.1713,1.2005,1.2177,1.2196,1.2196,1.2196,1.2196,1.2203,1.2216,1.0661,0.9587,0.9597,1.132,1.1017,0.8693,0.5174,0.3498,0.3498,0.3498,0.3498,0.3498,0.3534,0.355,0.3708,0.6108,0.7089,0.6932,0.4566,0.3461,0.3924,0.0,0.0,0.0,0.0,1.248,1.246,1.2796,1.2895,1.2902,1.3113,1.2996,1.2807,1.2638,1.2961,1.3244,1.2383,1.2222,1.3299,1.7861,2.2211,2.5755,2.7094,2.684,2.6321,2.6084,2.623,2.6321,2.6074,2.623,0.0,2.6399,2.6191,2.5957,2.571,2.6982,2.8165,2.8543,3.1051,3.3054,3.395,3.4646,3.5627,3.7066,3.5476,0.0,0.0,0.0,3.6295,3.6973,3.9167,0.0,0.0,0.0,3.9952,4.085,3.8391,0.0,0.0,3.7037,3.6197,0.0,0.0,0.0,0.0,0.0,0.0,0.0,0.0,0.0,0.0,0.0,0.0,0.0,0.0,0.0,0.0,0.9718,1.0423,1.1093,1.1039,1.1022,1.1499,1.1493,1.159,1.157,1.186,1.2045,1.2045,1.2124,1.2177,1.2196,1.2196,1.2203,1.2216,1.2223,1.0824,0.7748,0.7748,0.7748,0.7752,0.7757,0.7761,0.7761,0.7757,0.7752,0.7908,1.0865,1.1661,1.0258,0.7334,0.5949,0.6399,1.0679,1.2203,1.2321,1.2321,1.2321,1.2229,1.2645,1.2704,1.2788,1.3678,1.3346,1.275,1.3538,1.3363,1.2694,1.2308,1.383,1.6688,2.2468,2.3985,2.4401,2.608,2.6014,2.5564,2.5572,2.5629,2.5632,2.5464,2.5295,2.5243,2.5399,2.5425,2.5525,2.5807,2.7367,2.8641,2.9456,3.2392,3.4132,3.3527,3.4319,3.5194,3.6007,3.4475,3.4755,3.7692,3.6738,3.661,3.7924,3.8487,3.9819,4.2369,3.9577,3.7674,0.0,0.0,0.0,0.0,0.0,0.0,0.0,0.0,0.0,0.0,0.0,0.0,0.0,0.0,0.0,0.0,0.0,0.0,0.0,0.0,0.0,0.0,0.0,0.0,1.1791,1.1344,1.1001,1.1245,1.1324,1.0964,1.0126,1.1069,1.1735,1.1735,1.2005,1.2321,1.2321,1.2321,1.2321,1.2177,1.2196,1.2203,1.2045,1.2045,1.2059,1.2078,1.2104,1.2111,1.2111,1.2091,1.2078,1.2078,1.2236,0.9911,0.6227,0.6072,0.6072,0.6375,1.0638,1.2321,1.2321,1.2321,1.2321,1.2177,1.219,1.2196,1.2635,1.5144,1.4344,1.2966,1.6752,1.53,1.2221,1.2214,1.766,2.3559,2.3862,2.3917,2.3944,2.3944,2.4863,2.5315,2.4245,2.4866,2.5503,2.5068,2.4347,2.4152,2.4859,2.495,2.5343,2.6453,2.7691,0.0,3.211,3.3641,3.5131,3.7113,3.7396,3.7073,3.6295,3.3868,3.4222,3.8387,3.4885,3.5477,4.2126,3.7844,3.6473,3.898,3.8908,3.8162,3.6751,0.0,0.0,0.0,0.0,0.0,0.0,0.0,0.0,0.0,0.0,0.0,0.0,0.0,0.0,0.0,0.0,0.0,0.0,0.0,0.0,0.0,0.0,0.0,0.0,1.0921,1.0443,1.1204,1.0937,1.0234,0.927,1.1575,1.2362,1.0692,1.2286,1.2808,1.186,1.1873,1.1966,1.2314,1.2177,1.2183,1.2183,1.2183,1.219,1.2196,1.2203,1.2203,1.2203,1.2196,1.2196,1.2196,1.221,1.1435,1.0197,1.0197,1.0191,1.0331,1.1712,1.2321,1.2321,1.2321,1.2321,1.2321,1.2321,1.2321,1.2321,1.3201,1.6405,2.0247,2.1547,1.7466,1.3377,1.8539,2.058,2.1732,2.3395,2.3957,2.3918,2.3918,2.4218,2.4468,2.3957,2.423,2.4451,2.4243,2.3425,2.2612,2.2045,2.3836,2.4817,2.3735,2.6765,2.9675,3.0637,3.2717,3.4341,3.5042,3.5517,3.5874,3.6134,3.539,3.5521,3.6952,3.6209,3.6628,3.831,3.7282,3.7884,4.0354,3.9768,3.7499,3.3609,0.0,0.0,0.0,0.0,0.0,0.0,0.0,0.0,0.0,0.0,0.0,0.0,0.0,0.0,0.0,0.0,0.0,0.0,0.0,0.0,0.0,0.0,0.0,0.0,0.0,0.0,1.1373,1.0766,0.0,0.9029,1.1143,1.1856,0.9926,1.1437,1.1996,1.1069,1.1095,1.1379,1.1992,1.1979,1.218,1.217,1.2321,1.2321,1.2321,1.2321,1.2321,1.2321,1.2321,1.2321,1.2321,1.219,1.219,1.219,1.219,1.2183,1.2321,1.2321,1.2321,1.2321,1.2321,1.2321,1.2321,1.2321,1.4084,1.6002,1.3208,1.7582,2.3877,2.3943,2.1298,1.9167,2.2907,2.2291,2.1219,2.3846,2.4189,2.3918,2.3918,2.3918,2.3918,2.3918,2.3594,2.3425,2.384,2.3568,2.2678,2.0807,2.2519,2.3961,2.3049,2.5843,2.856,3.0425,3.259,3.3789,3.3789,3.453,3.5137,3.5681,3.5785,3.5899,3.6089,3.6741,3.6924,3.6686,3.7215,3.7991,3.8944,3.7632,3.5073,0.0,0.0,0.0,0.0,0.0,0.0,0.0,0.0,0.0,0.0,0.0,0.0,0.0,0.0,0.0,0.0,0.0,0.0,0.0,0.0,0.0,0.0,0.0,0.0,0.0,0.0,0.0,1.1679,1.082,0.0,0.0,0.0,0.0,0.9502,0.9754,0.9955,0.9938,0.9863,1.041,1.1733,1.1647,1.18,1.2417,1.2301,1.2321,1.2321,1.2287,1.2287,1.2321,1.2327,1.2478,1.2478,1.2321,1.2321,1.2321,1.2321,1.2451,1.2703,1.2369,1.2273,1.2391,1.2391,1.2509,1.2668,1.2668,1.7485,2.257,1.5005,1.7769,2.3956,2.4177,2.636,0.0,0.0,2.2756,2.2288,2.4694,2.4534,2.3724,2.384,2.3866,2.3879,2.3905,2.3061,2.2555,2.3618,2.4548,2.4078,2.0661,0.0,2.2404,2.3987,2.4525,2.6534,3.1537,3.2962,3.3586,3.3586,3.4231,3.4739,3.491,3.491,3.5189,3.5978,3.607,3.6489,3.7409,3.7293,3.6365,3.4684,3.2841,0.0,0.0,0.0,0.0,0.0,0.0,0.0,0.0,0.0,0.0,0.0,0.0,0.0,0.0,0.0,0.0,0.0,0.0,0.0,0.0,0.0,0.0,0.0,0.0,0.0,0.0,1.2792,1.1461,1.1271,1.0082,0.8546,0.0,0.0,0.0,0.0,0.0,0.0,0.9946,0.9384,1.0317,1.3155,1.0842,1.1317,1.5255,1.3259,1.2321,1.2314,1.3677,1.3564,1.2321,1.4199,1.5142,1.4983,1.3101,1.2321,1.2321,1.2321,1.5227,1.9151,1.4093,1.2999,1.4299,1.4299,1.6056,1.8498,1.8498,1.9817,2.113,1.9158,2.0988,2.4492,2.7447,0.0,0.0,0.0,0.0,2.227,2.2756,2.2284,2.1911,2.3017,2.3295,2.3399,2.3827,2.3685,2.3211,2.2564,2.1985,2.0214,1.5976,1.7518,0.0,1.853,2.2143,2.5681,2.7572,2.9546,3.0746,3.0746,3.0887,3.1511,3.2898,3.2915,3.365,3.5151,3.5286,3.5361,3.5666,3.3759,3.2874,3.3243,0.0,0.0,0.0,0.0,0.0,0.0,0.0,0.0,0.0,0.0,0.0,0.0,0.0,0.0,0.0,0.0,0.0,0.0,0.0,0.0,0.0,0.0,0.0,0.0,0.0,0.0,0.0,1.3718,1.1998,1.1111,0.9852,0.8508,0.0,0.0,0.0,0.0,0.0,0.0,0.0,0.0,0.0,1.2554,1.0239,1.1505,1.6887,1.3312,1.2913,1.5973,1.7983,1.8132,1.6565,1.7603,1.8019,1.81,1.7629,1.6766,1.5964,1.5964,1.6294,1.6681,0.0,0.0,0.0,0.0,1.7779,2.2395,1.9269,2.0064,2.2561,2.2561,0.0,0.0,0.0,0.0,0.0,0.0,0.0,2.1247,2.2142,2.27,2.3008,2.3152,2.3431,2.3715,2.3423,2.4401,2.4678,2.2768,2.1508,1.9153,1.4226,1.5079,0.0,0.0,0.0,2.2971,2.4791,2.7789,2.9525,2.9083,2.9355,3.0002,3.1006,3.1766,3.2677,3.3739,3.4549,3.4324,3.2766,3.1208,2.9253,0.0,0.0,0.0,0.0,0.0,0.0,0.0,0.0,0.0,0.0,0.0,0.0,0.0,0.0,0.0,0.0,0.0,0.0,0.0,0.0,0.0,0.0,0.0,0.0,0.0,0.0,0.0,0.0,0.0,1.3485,1.1298,0.0,0.0,0.0,0.0,0.0,0.0,0.0,0.0,0.0,0.0,0.0,0.0,0.0,1.1599,1.665,1.2943,1.424,2.0665,2.2337,2.2545,2.1614,2.0671,2.0321,2.0358,2.1802,0.0,2.0574,1.9673,0.0,0.0,0.0,0.0,0.0,0.0,0.0,0.0,0.0,0.0,0.0,0.0,0.0,0.0,0.0,0.0,0.0,0.0,0.0,0.0,0.0,0.0,2.427,2.2868,2.3533,2.4151,2.2974,2.4549,2.5355,2.2672,2.1262,1.8916,0.0,0.0,0.0,0.0,0.0,0.0,2.2608,2.6542,2.8787,2.7937,2.8376,2.8877,2.9128,3.0622,3.1678,3.2196,3.3172,3.2579,2.9757,2.9292,0.0,0.0,0.0,0.0,0.0,0.0,0.0,0.0,0.0,0.0,0.0,0.0,0.0,0.0,0.0,0.0,0.0,0.0,0.0,0.0,0.0,0.0,0.0,0.0,0.0,0.0,0.0,0.0,0.0,0.0,0.0,0.0,0.0,0.0,0.0,0.0,0.0,0.0,0.0,0.0,0.0,0.0,0.0,0.0,0.0,0.0,0.0,0.0,0.0,0.0,1.9546,1.8971,1.8821,1.859,1.839,1.8093,1.5743,1.6976,2.0208,1.4487,0.0,0.0,0.0,0.0,0.0,0.0,0.0,0.0,0.0,0.0,0.0,0.0,0.0,0.0,0.0,0.0,0.0,0.0,0.0,0.0,0.0,0.0,1.9493,1.9039,2.1243,2.3283,2.2683,0.0,0.0,0.0,0.0,0.0,0.0,0.0,0.0,0.0,0.0,0.0,2.0172,2.3452,2.5604,2.5972,2.5367,2.5558,2.7096,2.7396,2.8889,3.2014,2.9394,2.7795,0.0,0.0,0.0,0.0,0.0,0.0,0.0,0.0,0.0,0.0,0.0,0.0,0.0,0.0,0.0,0.0,0.0,0.0,0.0,0.0,0.0,0.0,0.0,0.0,0.0,0.0,0.0,0.0,0.0,0.0,0.0,0.0,0.0,0.0,0.0,0.0,0.0,0.0,0.0,0.0,0.0,0.0,0.0,0.0,0.0,0.0,0.0,0.0,0.0,0.0,0.0,0.0,0.0,0.0,0.0,0.0,0.0,0.0,1.5683,1.5156,0.0,0.0,0.0,0.0,0.0,0.0,0.0,0.0,0.0,0.0,0.0,0.0,0.0,0.0,0.0,0.0,0.0,0.0,0.0,0.0,0.0,0.0,0.0,0.0,0.0,0.0,0.0,0.0,0.0,0.0,0.0,0.0,0.0,0.0,0.0,0.0,0.0,0.0,0.0,0.0,1.8119,2.2004,2.469,2.4657,2.4163,2.4244,2.5068,2.6052,2.6939,2.7547,2.6736,0.0,0.0,0.0,0.0,0.0,0.0,0.0,0.0,0.0,0.0,0.0,0.0,0.0,0.0,0.0,0.0,0.0,0.0,0.0,0.0,0.0,0.0,0.0,0.0,0.0,0.0,0.0,0.0,0.0,0.0,0.0,0.0,0.0,0.0,0.0,0.0,0.0,0.0,0.0,0.0,0.0,0.0,0.0,0.0,0.0,0.0,0.0,0.0,0.0,0.0,0.0,0.0,0.0,0.0,0.0,0.0,0.0,0.0,0.0,1.6998,1.4501,0.0,0.0,0.0,0.0,0.0,0.0,0.0,0.0,0.0,0.0,0.0,0.0,0.0,0.0,0.0,0.0,0.0,0.0,0.0,0.0,0.0,0.0,0.0,0.0,0.0,0.0,0.0,0.0,0.0,0.0,0.0,0.0,0.0,0.0,0.0,0.0,0.0,0.0,0.0,0.0,1.6676,2.1091,2.4132,2.3931,2.3918,2.3918,2.3918,2.5553,2.5585,2.3323,2.4464,0.0,0.0,0.0,0.0,0.0,0.0,0.0,0.0,0.0,0.0,0.0,0.0,0.0,0.0,0.0,0.0,0.0,0.0,0.0,0.0,0.0,0.0,0.0,0.0,0.0,0.0,0.0,0.0,0.0,0.0,0.0,0.0,0.0,0.0,0.0,0.0,0.0,0.0,0.0,0.0,0.0,0.0,0.0,0.0,0.0,0.0,0.0,0.0,0.0,0.0,0.0,0.0,0.0,0.0,0.0,0.0,0.0,0.0,0.0,0.0,0.0,0.0,0.0,0.0,0.0,0.0,0.0,0.0,0.0,0.0,0.0,0.0,0.0,0.0,0.0,0.0,0.0,0.0,0.0,0.0,0.0,0.0,0.0,0.0,0.0,0.0,0.0,0.0,0.0,0.0,0.0,0.0,0.0,0.0,0.0,0.0,0.0,0.0,0.0,0.0,0.0,1.6587,2.0055,2.2782,2.3789,2.3918,2.3918,2.3918,2.5553,2.5696,2.323,0.0,0.0,0.0,0.0,0.0,0.0,0.0,0.0,0.0,0.0,0.0,0.0,0.0,0.0,0.0,0.0,0.0,0.0,0.0,0.0,0.0,0.0,0.0,0.0,0.0,0.0,0.0,0.0,0.0,0.0,0.0,0.0,0.0,0.0,0.0,0.0,0.0,0.0,0.0,0.0,0.0,0.0,0.0,0.0,0.0,0.0,0.0,0.0,0.0,0.0,0.0,0.0,0.0,0.0,0.0,0.0,0.0,0.0,0.0,0.0,0.0,0.0,0.0,0.0,0.0,0.0,0.0,0.0,0.0,0.0,0.0,0.0,0.0,0.0,0.0,0.0,0.0,0.0,0.0,0.0,0.0,0.0,0.0,0.0,0.0,0.0,0.0,0.0,0.0,0.0,0.0,0.0,0.0,0.0,0.0,0.0,0.0,0.0,0.0,0.0,0.0,0.0,1.6748,2.0378,2.3035,2.3827,2.3918,2.4335,2.5461,2.6211,2.5269,2.2067,0.0,0.0,0.0,0.0,0.0,0.0,0.0,0.0,0.0,0.0,0.0,0.0,0.0,0.0,0.0,0.0,0.0,0.0,0.0,0.0,0.0,0.0,0.0,0.0,0.0,0.0,0.0,0.0,0.0,0.0,0.0,0.0,0.0,0.0,0.0,0.0,0.0,0.0,0.0,0.0,0.0,0.0,0.0,0.0,0.0,0.0,0.0,0.0,0.0,0.0,0.0,0.0,0.0,0.0,0.0,0.0,0.0,0.0,0.0,0.0,0.0,0.0,0.0,0.0,0.0,0.0,0.0,0.0,0.0,0.0,0.0,0.0,0.0,0.0,0.0,0.0,0.0,0.0,0.0,0.0,0.0,0.0,0.0,0.0,0.0,0.0,0.0,0.0,0.0,0.0,0.0,0.0,0.0,0.0,0.0,0.0,0.0,0.0,0.0,0.0,0.0,0.0,1.6599,2.042,2.3295,2.3853,2.4061,2.4808,2.6451,2.7361,2.6092,2.1994,0.0,0.0,0.0,0.0,0.0,0.0,0.0,0.0,0.0,0.0,0.0,0.0,0.0,0.0,0.0,0.0,0.0,0.0,0.0,0.0,0.0,0.0,0.0,0.0,0.0,0.0,0.0,0.0,0.0,0.0,0.0,0.0,0.0,0.0,0.0,0.0,0.0,0.0,0.0,0.0,0.0,0.0,0.0,0.0,0.0,0.0,0.0,0.0,0.0,0.0,0.0,0.0,0.0,0.0,0.0,0.0,0.0,0.0,0.0,0.0,0.0,0.0,0.0,0.0,0.0,0.0,0.0,0.0,0.0,0.0,0.0,0.0,0.0,0.0,0.0,0.0,0.0,0.0,0.0,0.0,0.0,0.0,0.0,0.0,0.0,0.0,0.0,0.0,0.0,0.0,0.0,0.0,0.0,0.0,0.0,0.0,0.0,0.0,0.0,0.0,0.0,0.0,1.5968,2.0253,2.3295,2.3853,2.4425,2.5395,2.6494,2.8938,2.84,0.0,0.0,0.0,0.0,0.0,0.0,0.0,0.0,0.0,0.0,0.0,0.0,0.0,0.0,0.0,0.0,0.0,0.0,0.0,0.0,0.0,0.0,0.0,0.0,0.0,0.0,0.0,0.0,0.0,0.0,0.0,0.0,0.0,0.0,0.0,0.0,0.0,0.0,0.0,0.0,0.0,0.0,0.0,0.0,0.0,0.0,0.0,0.0,0.0,0.0,0.0,0.0,0.0,0.0,0.0,0.0,0.0,0.0,0.0,0.0,0.0,0.0,0.0,0.0,0.0,0.0,0.0,0.0,0.0,0.0,0.0,0.0,0.0,0.0,0.0,0.0,0.0,0.0,0.0,0.0,0.0,0.0,0.0,0.0,0.0,0.0,0.0,0.0,0.0,0.0,0.0,0.0,0.0,0.0,0.0,0.0,0.0,0.0,0.0,0.0,0.0,0.0,0.0,1.5881,1.8877,2.1496,2.3723,2.4074,2.5339,2.836,2.9394,2.8364,2.487,0.0,0.0,0.0,0.0,0.0,0.0,0.0,0.0,0.0,0.0,0.0,0.0,0.0,0.0,0.0,0.0,0.0,0.0,0.0,0.0,0.0,0.0,0.0,0.0,0.0,0.0,0.0,0.0,0.0,0.0,0.0,0.0,0.0,0.0,0.0,0.0,0.0,0.0,0.0,0.0,0.0,0.0,0.0,0.0,0.0,0.0,0.0,0.0,0.0,0.0,0.0,0.0,0.0,0.0,0.0,0.0,0.0,0.0,0.0,0.0,0.0,0.0,0.0,0.0,0.0,0.0,0.0,0.0,0.0,0.0,0.0,0.0,0.0,0.0,0.0,0.0,0.0,0.0,0.0,0.0,0.0,0.0,0.0,0.0,0.0,0.0,0.0,0.0,0.0,0.0,0.0,0.0,0.0,0.0,0.0,0.0,0.0,0.0,0.0,0.0,0.0,0.0,0.0,1.9477,2.2593,2.4696,2.5095,2.6782,3.0263,3.0425,2.9302,2.6565,0.0,0.0,0.0,0.0,0.0,0.0,0.0,0.0,0.0,0.0,0.0,0.0,0.0,0.0,0.0,0.0,0.0,0.0,0.0,0.0,0.0,0.0,0.0,0.0,0.0,0.0,0.0,0.0,0.0,0.0,0.0,0.0,0.0,0.0,0.0,0.0,0.0,0.0,0.0,0.0,0.0,0.0,0.0,0.0,0.0,0.0,0.0,0.0,0.0,0.0,0.0,0.0,0.0,0.0,0.0,0.0,0.0,0.0,0.0,0.0,0.0,0.0,0.0,0.0,0.0,0.0,0.0,0.0,0.0,0.0,0.0,0.0,0.0,0.0,0.0,0.0,0.0,0.0,0.0,0.0,0.0,0.0,0.0,0.0,0.0,0.0,0.0,0.0,0.0,0.0,0.0,0.0,0.0,0.0,0.0,0.0,0.0,0.0,0.0,0.0,0.0,0.0,0.0,2.1673,2.5675,2.6491,2.7271,2.8919,3.1899,3.1981,3.0896,2.8521,2.4314,0.0,0.0,0.0,0.0,0.0,0.0,0.0,0.0,0.0,0.0,0.0,0.0,0.0,0.0,0.0,0.0,0.0,0.0,0.0,0.0,0.0,0.0,0.0,0.0,0.0,0.0,0.0,0.0,0.0,0.0,0.0,0.0,0.0,0.0,0.0,0.0,0.0,0.0,0.0,0.0,0.0,0.0,0.0,0.0,0.0,0.0,0.0,0.0,0.0,0.0,0.0,0.0,0.0,0.0,0.0,0.0,0.0,0.0,0.0,0.0,0.0,0.0,0.0,0.0,0.0,0.0,0.0,0.0,0.0,0.0,0.0,0.0,0.0,0.0,0.0,0.0,0.0,0.0,0.0,0.0,0.0,0.0,0.0,0.0,0.0,0.0,0.0,0.0,0.0,0.0,0.0,0.0,0.0,0.0,0.0,0.0,0.0,0.0,0.0,0.0,0.0,0.0,2.179,2.4751,2.5981,2.7911,2.9619,3.1064,3.1126,2.9392,2.5137,2.3026,0.0,0.0,0.0,0.0,0.0,0.0,0.0,0.0,0.0,0.0,0.0,0.0,0.0,0.0,0.0,0.0,0.0,0.0,0.0,0.0,0.0,0.0,0.0,0.0,0.0,0.0,0.0,0.0,0.0,0.0,0.0,0.0,0.0,0.0,0.0,0.0,0.0,0.0,0.0,0.0,0.0,0.0,0.0,0.0,0.0,0.0,0.0,0.0,0.0,0.0,0.0,0.0,0.0,0.0,0.0,0.0,0.0,0.0,0.0,0.0,0.0,0.0,0.0,0.0,0.0,0.0,0.0,0.0,0.0,0.0,0.0,0.0,0.0,0.0,0.0,0.0,0.0,0.0,0.0,0.0,0.0,0.0,0.0,0.0,0.0,0.0,0.0,0.0,0.0,0.0,0.0,0.0,0.0,0.0,0.0,0.0,0.0,0.0,0.0,0.0,0.0,0.0,1.9354,2.2609,2.7163,2.8762,3.0174,3.1494,3.1898,2.9938,2.4974,2.3273,0.0,0.0,0.0,0.0,0.0,0.0,0.0,0.0,0.0,0.0,0.0,0.0,0.0,0.0,0.0,0.0,0.0,0.0,0.0,0.0,0.0,0.0,0.0,0.0,0.0,0.0,0.0,0.0,0.0,0.0,0.0,0.0,0.0,0.0,0.0,0.0,0.0,0.0,0.0,0.0,0.0,0.0,0.0,0.0,0.0,0.0,0.0,0.0,0.0,0.0,0.0,0.0,0.0,0.0,0.0,0.0,0.0,0.0,0.0,0.0,0.0,0.0,0.0,0.0,0.0,0.0,0.0,0.0,0.0,0.0,0.0,0.0,0.0,0.0,0.0,0.0,0.0,0.0,0.0,0.0,0.0,0.0,0.0,0.0,0.0,0.0,0.0,0.0,0.0,0.0,0.0,0.0,0.0,0.0,0.0,0.0,0.0,0.0,0.0,0.0,0.0,0.0,0.0,2.0646,2.8401,2.9669,3.0751,3.2632,3.3305,3.1349,2.5924,0.0,0.0,0.0,0.0,0.0,0.0,0.0,0.0,0.0,0.0,0.0,0.0,0.0,0.0,0.0,0.0,0.0,0.0,0.0,0.0,0.0,0.0,0.0,0.0,0.0,0.0,0.0,0.0,0.0,0.0,0.0,0.0,0.0,0.0,0.0,0.0,0.0,0.0,0.0,0.0,0.0,0.0,0.0,0.0,0.0,0.0,0.0,0.0,0.0,0.0,0.0,0.0,0.0,0.0,0.0,0.0,0.0,0.0,0.0,0.0,0.0,0.0,0.0,0.0,0.0,0.0,0.0,0.0,0.0,0.0,0.0,0.0,0.0,0.0,0.0,0.0,0.0,0.0,0.0,0.0,0.0,0.0,0.0,0.0,0.0,0.0,0.0,0.0,0.0,0.0,0.0,0.0,0.0,0.0,0.0,0.0,0.0,0.0,0.0,0.0,0.0,0.0,0.0,0.0,2.1555,2.6291,2.955,3.2189,3.4096,3.4333,3.1563,2.4808,0.0,0.0,0.0,0.0,0.0,0.0,0.0,0.0,0.0,0.0,0.0,0.0,0.0,0.0]}],[{"header":{"parameterUnit":"kt","parameterCategory":2,"dx":1,"dy":1,"la1":29.285339999999998,"la2":30.599998999999997,"lo1":-89.70041500000002,"lo2":-87.6738589999976,"nx":112,"ny":82,"refTime":"2022-10-07T00:00:00:Z","depth":0,"parameterNumber":2,"parameterNumberName":"V-component_of_WINDS"},"data":[-7.2097,-7.2513,0.0,-6.2372,-6.0047,0.0,-4.7392,0.0,-4.7738,0.0,0.0,0.0,0.0,0.0,0.0,0.0,0.0,0.0,0.0,-3.1001,0.0,0.0,0.0,0.0,0.0,0.0,0.0,0.0,0.0,0.0,0.0,0.0,-6.1206,-6.2178,-6.2215,-6.2215,-6.2215,-6.2215,-6.2552,-6.3112,-6.2316,-6.2264,-6.2812,-6.2428,-6.2812,-6.3777,-6.2944,-6.3813,-6.5584,-6.4629,-6.4791,-6.5644,-6.5093,-6.4879,-6.4859,-6.4859,-6.438,-6.3406,-6.1347,-5.8966,-5.662,-5.592,-5.4556,-5.3133,-5.2179,-5.1253,-5.0463,-5.011,-4.8894,-4.779,-4.782,-4.6877,-4.5864,-4.5864,-4.5864,-4.5864,-4.5864,-4.4642,-4.3139,-4.2016,-4.0444,-3.9166,-3.856,-3.8537,-3.8537,-3.8537,-3.8537,-3.8464,-3.8436,-3.8485,-3.8485,-3.8485,-3.8485,-3.8485,-3.8485,-3.8485,-3.8485,-3.8485,-3.8485,-3.8284,-3.7756,-3.7756,-3.7529,-3.7019,-3.7019,-3.7019,-3.7019,-3.7019,-3.7019,-3.7019,-3.7019,-3.7019,0.0,0.0,-6.8262,-5.7632,0.0,0.0,0.0,0.0,0.0,0.0,0.0,0.0,0.0,0.0,0.0,0.0,0.0,0.0,0.0,0.0,0.0,0.0,0.0,0.0,0.0,0.0,0.0,0.0,0.0,0.0,0.0,-6.3598,-6.2888,-6.3898,-6.3935,-6.3935,-6.3935,-6.3935,-6.4234,-6.4795,-6.4234,-6.4234,-6.482,-6.4533,-6.464,-6.489,-6.4052,-6.4494,-6.5644,-6.4613,-6.4791,-6.5715,-6.5715,-6.5715,-6.5715,-6.5715,-6.5715,-6.5501,-6.401,-6.1404,-5.8496,-5.7286,-5.5587,-5.3722,-5.2311,-5.1454,-5.0912,-5.0603,-4.9636,-4.8744,-4.894,-4.7419,-4.5906,-4.589,-4.5864,-4.5864,-4.5864,-4.4614,-4.2958,-4.1248,-4.0315,-3.971,-3.9774,-3.9039,-3.8766,-3.961,-3.8988,-3.846,-3.844,-3.8462,-3.8485,-3.8485,-3.8485,-3.8485,-3.8485,-3.8485,-3.8485,-3.8485,-3.8485,-3.8485,-3.8485,-3.8485,-3.8485,-3.8485,-3.8485,-3.8485,-3.8485,-3.8485,-3.8485,-3.8485,-3.8485,-3.8485,0.0,0.0,0.0,-5.2886,0.0,0.0,0.0,0.0,-4.4496,0.0,0.0,0.0,0.0,0.0,0.0,0.0,0.0,0.0,0.0,0.0,0.0,0.0,0.0,0.0,0.0,0.0,0.0,0.0,0.0,0.0,-6.3673,-6.4084,-6.4047,-6.4122,-6.4122,-6.4122,-6.4122,-6.4122,-6.4944,-6.6515,-6.4907,-6.4982,-6.6552,-6.6552,-6.6007,-6.5095,-6.6743,-6.6787,-6.5696,-6.568,-6.5715,-6.5715,-6.5715,-6.5715,-6.5715,-6.5715,-6.5715,-6.5715,-6.5715,-6.3714,-6.0793,-5.8346,-5.602,-5.3856,-5.2344,-5.1883,-5.1752,-5.0843,-5.0271,-4.9848,-4.9268,-4.7488,-4.5855,-4.5881,-4.5919,-4.5835,-4.5835,-4.5864,-4.4471,-3.9631,-4.0687,-4.2222,-4.2105,-4.0225,-3.9543,-4.196,-4.0289,-3.8675,-3.8529,-3.8538,-3.8485,-3.8485,-3.8485,-3.8485,-3.8485,-3.8485,-3.8485,-3.8485,-3.8485,-3.8485,-3.8485,-3.8485,-3.8485,-3.8485,-3.8485,-3.8485,-3.8485,-3.8485,-3.8485,-3.8485,-3.8485,-3.8485,-5.8771,0.0,0.0,0.0,0.0,0.0,0.0,0.0,0.0,0.0,0.0,0.0,0.0,0.0,0.0,0.0,0.0,-4.4686,0.0,0.0,0.0,0.0,0.0,0.0,0.0,0.0,0.0,0.0,0.0,-6.0159,-6.7263,-6.6477,-6.6328,-6.7599,-6.7636,-6.7636,-6.7636,-6.7636,-6.7861,-6.8309,-6.7861,-6.7861,-6.8309,-6.8309,-6.7978,-6.7331,-6.7428,-6.7019,-6.6238,-6.5871,-6.5715,-6.5715,-6.5715,-6.5715,-6.5715,-6.5715,-6.5715,-6.5715,-6.5715,-6.5148,-6.377,-5.9837,-5.7619,-5.6018,-5.287,-5.1883,-5.1818,-5.1587,-5.0787,-5.0131,-5.0913,-4.8515,-4.5875,-4.5826,-4.5885,-4.5843,-4.5843,-4.5847,-4.5438,-4.4074,-4.4443,-4.376,-4.0138,-4.1883,-4.4044,-4.4796,-4.4256,-4.2511,-3.8943,-3.8538,-3.8485,-3.8485,-3.8485,-3.8485,-3.8485,-3.8485,-3.8485,-3.8485,-3.8485,-3.8485,-3.8485,-3.8485,-3.8485,-3.8485,-3.8485,-3.8485,-3.8485,-3.8485,-3.8485,-3.8485,-3.8485,-3.8485,0.0,0.0,0.0,0.0,0.0,0.0,-4.4534,0.0,-4.2028,0.0,0.0,0.0,0.0,0.0,0.0,0.0,-4.5445,0.0,0.0,0.0,0.0,0.0,0.0,0.0,0.0,0.0,0.0,0.0,-6.3754,-6.2813,-6.8795,-6.8122,-6.801,-6.8956,-6.8993,-6.8993,-6.8993,-6.8993,-6.8993,-6.8993,-6.8993,-6.8993,-6.8993,-6.8993,-6.8714,-6.8224,-6.7687,-6.7073,-6.6415,-6.5921,-6.5715,-6.5715,-6.5715,-6.5715,-6.5715,-6.5715,-6.5715,-6.5715,-6.5715,-6.5715,-6.5255,-6.2257,-5.9774,-5.746,-5.4346,-5.2927,-5.2302,-5.2014,-5.1356,-5.0916,-5.1757,-5.0141,-4.8424,-4.841,-4.8406,-4.7929,-4.6203,-4.5902,-4.5847,-4.589,-4.5864,-4.4954,-4.2119,-4.3932,-4.5926,-4.5874,-4.5922,-4.4126,-3.9105,-3.8445,-3.851,-3.8489,-3.8514,-3.8514,-3.846,-3.8485,-3.8485,-3.8485,-3.8485,-3.8485,-3.8485,-3.8485,-3.8485,-3.8485,-3.8485,-3.8485,-3.8485,-3.8485,-3.8485,-3.8485,-3.8485,-3.8485,0.0,0.0,0.0,0.0,-5.1937,0.0,0.0,0.0,-4.4724,-4.2484,0.0,0.0,0.0,0.0,0.0,0.0,0.0,0.0,0.0,0.0,0.0,0.0,0.0,0.0,0.0,-6.4715,-6.5645,-7.0008,-6.5927,-6.5164,-6.957,-6.9655,-6.9618,-6.9618,-6.9581,-6.9468,-6.9282,-6.9282,-6.9207,-6.8993,-6.8993,-6.8993,-6.8993,-6.8993,-6.8758,-6.8296,-6.7742,-6.7154,-6.6558,-6.5993,-6.5783,-6.5715,-6.5715,-6.5715,-6.5715,-6.5715,-6.5715,-6.5715,-6.5715,-6.5715,-6.5557,-6.4866,-6.2158,-5.8701,-5.6626,-5.4571,-5.2891,-5.211,-5.1883,-5.1883,-5.1899,-5.1923,-5.1913,-5.1919,-5.189,-5.0895,-4.73,-4.6222,-4.5915,-4.5881,-4.589,-4.5864,-4.5864,-4.5864,-4.5864,-4.5864,-4.5903,-4.4286,-3.9898,-3.9137,-3.8894,-3.8913,-3.8771,-3.8707,-3.8735,-3.8585,-3.8485,-3.8485,-3.8485,-3.8485,-3.8485,-3.8485,-3.8485,-3.8485,-3.8485,-3.8485,-3.8485,-3.8485,-3.8485,-3.8485,-3.8485,-3.8485,0.0,0.0,0.0,0.0,0.0,-4.7837,0.0,0.0,0.0,0.0,0.0,0.0,0.0,0.0,0.0,0.0,0.0,0.0,0.0,0.0,0.0,0.0,0.0,0.0,-7.316,-7.28,-7.2897,-7.3643,-7.2652,-7.2445,-7.3381,-7.33,-7.3235,-7.3235,-7.3058,-7.2273,-7.0927,-7.0889,-7.0254,-6.8993,-6.8993,-6.8993,-6.8993,-6.8993,-6.8939,-6.8834,-6.8304,-6.777,-6.7228,-6.6614,-6.6115,-6.5715,-6.5715,-6.5715,-6.5715,-6.5715,-6.5715,-6.5715,-6.5715,-6.5715,-6.5715,-6.5504,-6.3755,-6.1381,-5.9663,-5.6315,-5.2891,-5.211,-5.1883,-5.1916,-5.1883,-5.1949,-5.1915,-5.188,-5.1895,-5.1663,-5.089,-4.819,-4.5846,-4.5885,-4.59,-4.5864,-4.5864,-4.5864,-4.5864,-4.5864,-4.5903,-4.5521,-4.4543,-4.2732,-4.1512,-4.1434,-4.0599,-4.0032,-4.0037,-3.9082,-3.8485,-3.8485,-3.8485,-3.8485,-3.8485,-3.8485,-3.8485,-3.8485,-3.8485,-3.8485,-3.8485,-3.8485,-3.8485,-3.8485,-3.8485,-3.8485,0.0,0.0,0.0,-4.6486,0.0,0.0,0.0,-4.6059,-4.7273,-5.1412,-5.2321,-5.3376,-5.6725,-5.8134,-5.8809,-5.8809,-6.3023,0.0,0.0,0.0,0.0,0.0,0.0,0.0,-7.502,-7.5039,-7.4965,-7.4851,-7.4667,-7.4545,-7.4532,-7.4338,-7.4273,-7.4273,-7.4021,-7.3469,-7.2609,-7.2609,-7.2235,-7.145,-7.059,-7.0152,-7.0152,-6.9329,-6.8993,-6.8993,-6.8461,-6.7955,-6.7375,-6.6747,-6.6163,-6.5715,-6.5715,-6.5715,-6.5715,-6.5715,-6.5715,-6.5715,-6.5715,-6.5715,-6.5715,-6.5715,-6.4953,-6.3798,-6.2206,-5.9291,-5.6016,-5.3428,-5.2687,-5.2528,-5.2047,-5.1883,-5.1883,-5.1883,-5.1915,-5.1906,-5.1886,-5.0308,-4.8345,-4.6282,-4.75,-4.8227,-4.6178,-4.5864,-4.5864,-4.5864,-4.5901,-4.5846,-4.5846,-4.4781,-4.3538,-4.2315,-4.2078,-4.1526,-4.0519,-3.9842,-3.9181,-3.8485,-3.8485,-3.8485,-3.8485,-3.8485,-3.8485,-3.8485,-3.8485,-3.8485,-3.8485,-3.8485,-3.8485,-3.8485,-3.8485,-3.8485,-4.5212,-4.5586,-4.6396,-4.4154,0.0,0.0,-4.4677,-4.5387,-4.7645,0.0,-5.3109,-5.5478,-5.9775,-6.2998,-6.458,-6.3213,-6.7465,-7.2628,-7.7374,0.0,0.0,0.0,0.0,0.0,-7.6007,-7.6007,-7.6007,-7.6007,-7.5835,-7.5717,-7.5717,-7.5472,-7.5284,-7.5218,-7.5031,-7.4703,-7.4366,-7.4366,-7.4179,-7.3843,-7.2497,-7.1796,-7.1796,-7.0189,-6.9442,-6.9404,-6.8678,-6.8032,-6.74,-6.69,-6.6295,-6.5715,-6.5715,-6.5715,-6.5715,-6.5715,-6.5715,-6.5715,-6.5715,-6.5715,-6.5715,-6.5715,-6.5715,-6.5394,-6.3824,-6.201,-5.9641,-5.5547,-5.3778,-5.2925,-5.2143,-5.1883,-5.1883,-5.1883,-5.1883,-5.1883,-5.1935,-5.192,-5.0907,-4.7701,-4.9342,-5.0384,-4.7569,-4.6433,-4.5864,-4.5864,-4.5864,-4.5864,-4.5864,-4.5864,-4.5127,-4.307,-4.3376,-4.294,-4.1255,-4.0876,-4.0301,-3.923,-3.8958,-3.8884,-3.8884,-3.8585,-3.8485,-3.8485,-3.8485,-3.8485,-3.8485,-3.8485,-3.8485,-3.8485,-3.8485,-3.8485,-4.3017,-4.3723,-4.558,-4.8115,-4.5839,0.0,-5.6999,-5.6428,-5.6471,0.0,-6.9502,-7.0382,-7.2345,-7.3249,-7.3577,-7.3388,-7.3995,-7.5703,-7.931,-7.9652,-7.9614,-7.9766,0.0,0.0,-7.9538,-7.9538,-7.9538,-7.9538,-7.9495,-7.9488,-7.9488,-7.9233,-7.8958,-7.8771,-7.8621,-7.7761,-7.6124,-7.6124,-7.5339,-7.388,-7.3656,-7.3581,-7.3544,-7.1834,-7.1086,-7.1011,-6.9564,-6.8373,-6.7437,-6.74,-6.669,-6.5715,-6.5715,-6.5715,-6.5715,-6.5715,-6.5715,-6.5715,-6.5715,-6.5715,-6.5715,-6.5715,-6.5715,-6.5394,-6.3804,-6.2824,-6.1528,-5.8453,-5.4963,-5.2072,-5.1946,-5.1883,-5.1883,-5.1883,-5.1883,-5.1916,-5.1916,-5.187,-5.1772,-5.1303,-5.0174,-4.9692,-5.1012,-4.8227,-4.5864,-4.5864,-4.5864,-4.5864,-4.5864,-4.5864,-4.5751,-4.5496,-4.467,-4.3998,-4.376,-4.2686,-4.1924,-4.1805,-4.0755,-4.023,-4.023,-3.9082,-3.8485,-3.8485,-3.8485,-3.8485,-3.8485,-3.8485,-3.8485,-3.8485,-3.8485,-3.8485,-4.0816,-4.1102,-4.22,-4.4495,0.0,0.0,-5.3059,-5.5178,0.0,0.0,-6.9147,-7.1814,-7.5351,-7.7098,-7.7981,-7.7981,-7.7981,-7.8475,-7.988,-8.007,-8.007,-8.007,-8.007,-8.007,-8.007,-8.007,-8.007,-8.007,-8.007,-8.007,-8.007,-7.982,-7.9631,-7.9519,-7.9257,-7.8734,-7.7986,-7.7806,-7.7395,-7.6685,-7.575,-7.5339,-7.5264,-7.3619,-7.2805,-7.2693,-7.1114,-6.9763,-6.8886,-6.9794,-6.9164,-6.7611,-6.7226,-6.6483,-6.5715,-6.5715,-6.5715,-6.5715,-6.5715,-6.5715,-6.5715,-6.5715,-6.5715,-6.5573,-6.4946,-6.3885,-6.2646,-6.1151,-5.905,-5.6394,-5.2858,-5.2583,-5.305,-5.208,-5.1883,-5.1883,-5.1883,-5.1909,-5.1784,-5.1257,-5.0881,-5.0556,-5.0271,-4.9776,-4.8623,-4.6178,-4.5864,-4.5864,-4.5864,-4.5864,-4.5864,-4.5864,-4.5442,-4.4813,-4.4202,-4.3643,-4.2959,-4.2175,-4.104,-4.0423,-4.0423,-3.9181,-3.8485,-3.8485,-3.8485,-3.8485,-3.8485,-3.8485,-3.8485,-3.8485,-3.8485,-3.8485,-3.9483,0.0,0.0,0.0,0.0,0.0,0.0,0.0,-6.0271,-6.6178,-6.9658,-7.2879,-7.6854,-7.8983,-8.007,-8.007,-8.007,-8.007,-8.007,-8.007,-8.007,-8.007,-8.007,-8.007,-8.007,-8.007,-8.007,0.0,-8.007,-8.007,-8.007,-7.9898,-7.9779,-7.9699,-7.9346,-7.9159,-7.9108,-7.8883,-7.8704,-7.8704,-7.7582,-7.7021,-7.6984,-7.5301,-7.4553,-7.4479,-7.2796,-7.1778,-7.1428,-7.1951,-7.116,-6.9566,-6.8974,-6.7784,-6.6357,-6.6357,-6.6072,-6.5715,-6.5715,-6.5715,-6.5715,-6.5715,-6.5715,-6.5715,-6.5715,-6.4895,-6.3896,-6.3546,-6.2497,-6.0194,-5.4588,-5.3702,-5.3943,-5.2824,-5.2177,-5.1883,-5.1883,-5.1913,-5.1701,-5.1078,-5.1166,-5.1025,-4.9979,-5.0069,-4.9281,-4.6291,-4.5864,-4.5864,-4.5864,-4.5864,-4.5864,-4.5864,-4.5864,-4.5527,-4.4639,-4.4639,-4.4174,-4.3292,-4.2136,-4.1444,-4.1444,-3.9914,-3.9082,-3.9082,-3.8685,-3.8485,-3.8485,-3.8485,-3.8485,-3.8485,-3.8485,-3.8485,0.0,0.0,0.0,-5.1821,-5.1484,-5.2885,-6.7412,0.0,-6.6066,-7.4329,-7.6393,-7.7257,-7.8928,-7.9704,-8.007,-8.007,-8.007,-8.007,-8.007,-8.007,-8.007,-8.007,-8.007,-8.007,-8.007,-8.007,-8.007,-8.007,-8.007,-8.007,-8.007,-8.0069,-7.9941,-7.9691,-7.9418,-7.9251,-7.9108,-7.8883,-7.8704,-7.8704,-7.8666,-7.8629,-7.8591,-7.7021,-7.6311,-7.6198,-7.4516,-7.4412,-7.5264,-7.3023,-7.1814,-7.1212,-7.0731,-6.9445,-6.7925,-6.7944,-6.7035,-6.5715,-6.5715,-6.5715,-6.5715,-6.5715,-6.5715,-6.5715,-6.5715,-6.5644,-6.5624,-6.5635,-6.4134,-6.1569,-5.7367,-5.5226,-5.4226,-5.4192,-5.3017,-5.1883,-5.1883,-5.1916,-5.1916,-5.1883,-5.0855,-5.0379,-5.1615,-4.8606,-4.6033,-4.5861,-4.5864,-4.5864,-4.5864,-4.5864,-4.5864,-4.5864,-4.5864,-4.5864,-4.578,-4.578,-4.578,-4.578,-4.4639,-4.4026,-4.4026,-4.1631,-4.0327,-4.0327,-3.9181,-3.8485,-3.8485,-3.8485,-3.8485,-3.8485,-3.8485,-3.8485,-4.3446,-4.4772,-4.6866,-5.3989,-5.7392,-6.0607,-6.6702,-7.0216,-7.302,-7.5907,-7.7619,-7.8752,-7.9446,-7.9835,-8.007,-8.007,-8.007,-8.007,-8.007,-8.007,-8.007,-8.007,-8.007,-8.007,-8.007,-8.007,-8.007,-8.007,-8.007,0.0,-8.007,-8.007,-8.0057,-7.9941,-7.9857,-7.9625,-7.9257,-7.907,-7.8921,-7.8704,-7.8704,-7.8704,-7.8704,-7.818,-7.7918,-7.7844,-7.6236,-7.6348,-7.7596,-7.6464,-7.5006,-7.3462,-7.2865,-7.1453,-6.9691,-6.9711,-6.9373,-6.8892,-6.8892,-6.8892,-6.889,-6.891,-6.8195,-6.7265,-6.7249,-6.6536,-6.5732,-6.5707,-6.5176,-6.3687,-5.951,-5.7629,-5.6264,-5.4236,-5.3187,-5.2554,-5.2014,-5.1883,-5.1883,-5.1883,-5.1522,-5.1415,-5.183,-4.8538,-4.5904,-4.5885,-4.5851,-4.5835,-4.589,-4.5864,-4.5864,-4.5864,-4.5864,-4.5864,-4.5864,-4.5864,-4.5864,-4.5864,-4.4726,-4.4114,-4.4114,-4.2504,-4.1579,-4.1579,-4.0398,-3.9745,-3.9745,-3.9745,-3.9378,-3.8485,-3.8485,-3.8485,-4.552,-4.7278,-4.9391,-5.6569,-6.1617,-6.5617,-6.8459,-7.2946,-7.6685,-7.7328,-7.8559,-7.9517,-7.9678,-7.9918,-8.007,-8.007,-8.007,-8.007,-8.007,-8.007,-8.007,-8.007,-8.007,-8.007,-8.007,-8.007,-8.007,-8.007,-8.007,-8.007,-8.007,-8.007,-8.007,-8.007,-8.0103,-7.9886,-7.9444,-7.922,-7.8995,-7.8704,-7.8704,-7.8704,-7.8704,-7.8704,-7.8704,-7.8666,-7.7657,-7.7769,-7.8673,-7.8169,-7.709,-7.5729,-7.4879,-7.3318,-7.1633,-7.1465,-7.1067,-7.0582,-7.0582,-7.0587,-7.0555,-7.0536,-6.984,-6.8838,-6.8213,-6.7356,-6.6393,-6.5819,-6.5298,-6.4211,-6.1336,-5.9879,-5.8469,-5.5557,-5.4597,-5.3861,-5.2242,-5.1883,-5.1883,-5.1883,-5.1883,-5.1883,-5.1923,-4.971,-4.7571,-4.6121,-4.5896,-4.5894,-4.5861,-4.5864,-4.5864,-4.5864,-4.5864,-4.5864,-4.5864,-4.5864,-4.5864,-4.5864,-4.5186,-4.4726,-4.4726,-4.3498,-4.2868,-4.2868,-4.1672,-4.104,-4.104,-4.0615,-3.9745,-3.8485,-3.8485,-3.8485,-4.5931,-4.8568,-5.1801,-6.0084,-6.4496,-6.8122,-7.2908,0.0,-7.7141,-7.8763,-7.9451,-7.9673,-7.9712,-7.9877,-8.0068,-8.007,-8.007,-8.007,-8.007,-8.007,-8.007,-8.007,-8.007,-8.007,-8.007,-8.007,-8.007,-8.007,-8.007,-8.007,-8.007,-8.007,-8.007,-8.007,-8.0065,-7.9945,-7.9706,-7.9332,-7.9033,-7.8741,-7.8704,-7.8704,-7.8704,-7.8704,-7.8704,-7.8704,-7.8704,-7.8704,-7.8673,-7.8206,-7.7987,-7.7834,-7.6518,-7.5112,-7.3742,-7.3191,-7.207,-7.0828,-7.0828,-7.0828,-7.0817,-7.0775,-7.0746,-7.0389,-6.8783,-6.823,-6.7927,-6.6286,-6.4788,-6.3488,-6.2903,-6.1956,-6.0575,-5.838,-5.7204,-5.5729,-5.2764,-5.2047,-5.1982,-5.1916,-5.1883,-5.1883,-5.1928,-5.1886,-5.0595,-4.6596,-4.5945,-4.5834,-4.5886,-4.5864,-4.5864,-4.5864,-4.5864,-4.5864,-4.5864,-4.5864,-4.5864,-4.5864,-4.5864,-4.5864,-4.5864,-4.4813,-4.423,-4.423,-4.3049,-4.2358,-4.2267,-4.1135,-3.9842,-3.8585,-3.8509,-3.8485,-5.1746,-5.6233,-6.0159,-6.7113,-7.0441,-7.2647,-7.5152,0.0,-7.8391,0.0,-7.9344,-7.9474,-7.964,-7.9746,-7.9856,-8.0063,-8.007,-8.007,-8.007,-8.007,-8.007,-8.007,-8.007,-8.007,-8.007,-8.007,-8.007,-8.007,-8.007,-8.007,-8.007,-8.007,-8.007,-8.007,-8.0075,-8.0045,-7.9998,-7.9669,-7.9369,-7.9033,-7.8846,-7.8704,-7.8704,-7.8704,-7.8704,-7.8704,-7.8704,-7.8704,-7.8704,-7.8611,-7.8311,-7.7873,-7.7064,-7.6202,-7.537,-7.4819,-7.4397,-7.4028,-7.4028,-7.4028,-7.4052,-7.4004,-7.3287,-7.22,-7.1801,-7.1373,-7.0571,-6.8141,-6.7499,-6.716,-6.5394,-6.386,-6.2633,-6.2019,-5.9189,-5.6327,-5.5543,-5.4409,-5.3199,-5.2114,-5.1883,-5.1884,-5.1915,-5.1915,-5.1052,-4.8557,-4.6871,-4.5826,-4.5885,-4.5876,-4.5864,-4.5864,-4.5864,-4.5864,-4.5864,-4.5864,-4.5864,-4.5864,-4.5864,-4.5864,-4.5864,-4.5612,-4.5442,-4.5442,-4.5129,-4.4524,-4.3643,-4.232,-4.1108,-3.994,-3.8983,-3.8485,-5.0793,-5.6868,-6.3187,-6.973,-7.2609,-7.4329,-7.6012,-7.7694,-7.8963,-7.9173,-7.9225,-7.9338,-7.9645,-7.9669,-7.9752,-8.0054,-8.007,-8.007,-8.007,-8.007,-8.007,-8.007,-8.007,-8.007,-8.007,-8.007,-8.007,-8.007,-8.007,-8.007,-8.007,-8.007,-8.007,-8.007,-8.007,-8.0102,-8.0073,-7.9848,-7.9544,-7.9188,-7.8878,-7.8704,-7.8704,-7.8704,-7.8704,-7.8704,-7.8704,-7.8704,-7.8704,-7.8704,-7.8542,-7.8241,-7.7636,-7.7021,-7.6395,-7.5772,-7.5419,-7.5241,-7.5241,-7.5241,-7.5241,-7.5241,-7.4622,-7.3787,-7.3122,-7.2515,-7.1551,-6.8819,-6.832,-6.8106,-6.6215,-6.5073,-6.4253,-6.3539,-6.0911,-5.8544,-5.8544,-5.6487,-5.4258,-5.3068,-5.2311,-5.1883,-5.1883,-5.1883,-5.1555,-5.0443,-4.929,-4.8221,-4.7368,-4.6441,-4.5864,-4.5864,-4.5864,-4.5864,-4.5864,-4.5864,-4.5864,-4.5864,-4.5864,-4.5864,-4.5864,-4.5864,-4.5864,-4.5864,-4.6446,-4.5846,-4.4114,-4.3988,-4.2913,-4.1094,-4.146,-4.0965,-4.8512,-5.5261,-6.3561,-7.0067,-7.2796,-7.4366,-7.6273,-7.7948,-7.907,0.0,-7.9108,-7.9182,-7.9519,-7.9645,-7.9723,-7.9976,-8.0065,-8.007,-8.007,-8.007,-8.007,-8.007,-8.007,-8.007,-8.007,-8.007,-8.007,-8.007,-8.007,-8.007,-8.007,-8.007,-8.007,-8.007,-8.007,-8.0091,-8.0091,-7.9862,-7.9603,-7.9327,-7.8976,-7.8808,-7.8704,-7.8704,-7.8704,-7.8704,-7.8704,-7.8704,-7.8704,-7.8704,-7.8704,-7.8673,-7.8134,-7.7593,-7.6991,-7.6303,-7.5776,-7.5463,-7.5265,-7.5252,-7.5298,-7.5265,-7.5241,-7.4991,-7.36,-7.2922,-7.2008,-6.9406,-6.8657,-6.8355,-6.675,-6.6179,-6.568,-6.436,-6.2898,-6.1701,-6.113,-5.8357,-5.5643,-5.4552,-5.3199,-5.2179,-5.2179,-5.2015,-5.1883,-5.1895,-5.1864,-5.1197,-4.9219,-4.7153,-4.5864,-4.5864,-4.5864,-4.5864,-4.5864,-4.5864,-4.5864,-4.5864,-4.5864,-4.5864,-4.5864,-4.6039,-4.6213,-4.6388,-4.7551,-4.7025,-4.4885,-4.5864,-4.5034,-4.26,-4.4582,-4.4208,-5.7227,-6.1416,-6.5418,-7.1824,-7.3656,-7.4628,-7.7619,-7.8554,-7.8883,-7.907,-7.8958,-7.8883,-7.9145,-7.9301,-7.9461,-7.9728,-7.9947,-8.007,-8.007,-8.007,-8.007,-8.007,-8.007,-8.007,-8.007,-8.007,-8.007,-8.007,-8.007,-8.007,-8.007,-8.007,-8.007,-8.007,-8.007,-8.0104,-8.007,-8.0054,-7.9908,-7.9609,-7.9354,-7.9033,-7.8704,-7.8704,-7.8704,-7.8704,-7.8704,-7.8704,-7.8704,-7.8704,-7.8704,-7.8673,-7.8134,-7.7894,-7.7636,-7.6455,-7.6313,-7.6543,-7.56,-7.5537,-7.5789,-7.5363,-7.5241,-7.5169,-7.4884,-7.4777,-7.4313,-7.2529,-7.203,-7.1673,-7.0139,-6.8676,-6.7552,-6.7267,-6.6515,-6.5012,-6.1736,-5.9925,-5.8362,-5.6336,-5.4711,-5.3692,-5.3692,-5.2705,-5.1916,-5.1883,-5.1894,-5.1159,-4.9262,-4.718,-4.5864,-4.5864,-4.5864,-4.5864,-4.5864,-4.5864,-4.5864,-4.5864,-4.5864,-4.5864,-4.5864,-4.6941,-4.8017,-4.9093,-4.9325,-4.9235,-4.8822,-4.8047,-4.6803,-4.5185,-4.5366,-4.4612,-5.4991,-5.973,-6.5044,-6.8069,-7.1357,-7.4516,-7.6946,-7.8143,-7.9003,-8.0012,-7.9414,-7.8808,-7.907,-7.9202,-7.9379,-7.9654,-7.9912,-8.007,-8.007,-8.007,-8.007,-8.007,-8.007,-8.007,-8.007,-8.007,-8.007,-8.007,-8.007,-8.007,-8.007,-8.007,-8.007,-8.007,-8.007,-8.007,-8.007,-8.0083,-7.9961,-7.9669,-7.9556,-7.9295,-7.8921,-7.8921,-7.8883,-7.8704,-7.8704,-7.8704,-7.8704,-7.8704,-7.8704,-7.8704,-7.8453,-7.8167,-7.7873,-7.7249,-7.7016,-7.6867,-7.6353,-7.6289,-7.6445,-7.5807,-7.586,-7.6036,-7.5395,-7.5241,-7.4848,-7.3029,-7.2494,-7.2208,-7.0888,-6.9961,-6.914,-6.823,-6.8435,-6.781,-6.4143,-6.2465,-6.0787,-5.7992,-5.6256,-5.5007,-5.4149,-5.3494,-5.2771,-5.2015,-5.131,-5.0443,-4.9119,-4.717,-4.5864,-4.5864,-4.5864,-4.5864,-4.5864,-4.5864,-4.5864,-4.5864,-4.6533,-4.6911,-4.6911,-4.8802,-4.982,-4.9791,-5.0431,-5.046,-4.9791,-4.9844,-4.9149,-4.7802,-4.9636,-4.9439,-5.3089,-5.8462,-6.5007,-6.5229,-6.9084,-7.3553,-7.6273,-7.7582,-7.8704,-8.0349,-7.9377,-7.8434,-7.8995,-7.8921,-7.9,-7.9591,-7.9931,-8.007,-8.007,-8.007,-8.007,-8.007,-8.007,-8.007,-8.007,-8.007,-8.007,-8.007,-8.007,-8.007,-8.007,-8.007,-8.007,-8.007,-8.007,-8.007,-8.007,-8.009,-7.9978,-7.979,-7.9731,-7.9519,-7.922,-7.922,-7.9108,-7.8846,-7.8846,-7.8808,-7.8704,-7.8704,-7.8704,-7.8704,-7.8704,-7.8479,-7.8112,-7.796,-7.7696,-7.7333,-7.7056,-7.7085,-7.71,-7.6433,-7.6504,-7.6701,-7.5764,-7.5334,-7.4846,-7.3243,-7.2757,-7.2579,-7.178,-7.1316,-7.071,-6.9426,-7.0103,-7.0131,-6.6735,-6.5064,-6.333,-6.0015,-5.8262,-5.6684,-5.4875,-5.4215,-5.3593,-5.2114,-5.0892,-4.9877,-4.9384,-4.7488,-4.6169,-4.6169,-4.6032,-4.5864,-4.5864,-4.5864,-4.601,-4.6301,-4.729,-4.79,-4.819,-5.0721,-5.1623,-5.0605,-5.1885,-5.1885,-5.0605,-5.1885,-5.1644,-5.0076,-5.3161,-5.3481,-6.0088,-6.3792,-6.7289,-6.8611,-6.929,-7.1179,-7.7171,-7.7507,-7.7058,-7.8629,-7.7694,-7.7096,-7.8808,-7.8052,-7.7721,-7.942,-7.9916,-8.007,-8.007,-8.007,-8.007,-8.007,-8.007,-8.007,-8.007,-8.007,-8.007,-8.007,-8.007,-8.007,-8.007,-8.007,-8.007,-8.007,-8.007,-8.007,-8.007,-8.0103,-8.006,-8.0057,-7.9812,-7.9669,-7.9631,-7.9631,-7.9482,-7.9257,-7.9145,-7.8958,-7.8704,-7.8704,-7.8704,-7.8704,-7.8704,-7.8704,-7.8574,-7.8123,-7.8204,-7.8385,-7.7313,-7.7365,-7.7756,-7.7108,-7.6664,-7.6416,-7.6338,-7.5788,-7.5194,-7.4989,-7.4955,-7.492,-7.4813,-7.3742,-7.2601,-7.2458,-7.2529,-7.1692,-6.8193,-6.7338,-6.6304,-6.3037,-6.1221,-5.938,-5.6585,-5.4974,-5.3593,-5.2114,-5.1049,-5.0457,-5.0393,-4.8574,-4.725,-4.725,-4.6417,-4.5864,-4.5864,-4.5864,-4.6388,-4.7522,-4.7725,-4.8306,-4.9558,-5.2059,-5.3466,-5.3252,-5.456,-5.4589,-5.3252,-5.4589,-5.3884,-5.1392,-5.2658,-5.3096,-5.2051,-5.6282,-6.1326,-6.188,-6.5718,-7.0234,-7.3702,-7.4703,-7.56,-7.818,-7.904,-7.8928,-7.7694,-7.7911,0.0,-7.8063,-7.9066,-7.9936,-8.0066,-8.007,-8.007,-8.007,-8.007,-8.007,-8.007,-8.007,-8.007,-8.007,-8.0943,-8.1095,-8.0145,-8.0981,-8.1057,-8.0107,-8.007,-8.007,-8.007,-8.007,-8.007,-8.007,-7.9985,-7.9924,-7.995,-7.9779,-7.9631,-7.9519,-7.922,-7.907,-7.8958,-7.8808,-7.8704,-7.8704,-7.8704,-7.8704,-7.871,-7.8497,-7.8561,-7.8642,-7.8208,-7.8207,-7.8308,-7.7721,-7.7673,-7.7807,-7.7805,-7.6561,-7.5212,-7.5204,-7.5241,-7.5241,-7.5241,-7.4777,-7.4277,-7.4277,-7.4277,-7.3324,-6.9819,-6.9059,-6.808,-6.4759,-6.3621,-6.2569,-6.064,-5.8295,-5.6256,-5.4777,-5.2765,-5.1185,-5.0635,-4.9392,-4.8563,-4.8563,-4.8417,-4.822,-4.822,-4.822,-4.8453,-4.9005,-4.9762,-5.075,-5.203,-5.3145,-5.3979,-5.4793,-5.5317,-5.5724,-5.5956,-5.648,-5.5764,-5.4011,-5.5931,-5.6409,-4.8054,-5.2008,-5.7201,-5.7239,-6.264,-6.8266,-6.9348,-7.1096,-7.3254,-7.5974,-7.747,-7.7918,-7.6714,-7.7125,-7.7696,-7.7669,-7.8767,-7.9816,-8.0508,-8.0156,-8.0065,-8.0633,-8.0292,-8.0014,-8.0069,-8.007,-8.007,-8.007,-8.1095,-8.1246,-8.0145,-8.1133,-8.1208,-8.0107,-8.007,-8.007,-8.007,-8.007,-8.007,-8.007,-8.007,-8.007,-8.0069,-7.9893,-7.9817,-7.9781,-7.9444,-7.9257,-7.9145,-7.8958,-7.8808,-7.8704,-7.8704,-7.8704,-7.8704,-7.8704,-7.8704,-7.8704,-7.8704,-7.8704,-7.8673,-7.8311,-7.8429,-7.8729,-7.8705,-7.7086,-7.522,-7.5191,-7.5241,-7.5241,-7.5241,-7.5241,-7.5241,-7.5241,-7.5241,-7.4388,-7.1378,-7.0678,-6.9651,-6.6202,-6.5561,-6.4969,-6.3062,-6.0761,-5.8656,-5.721,-5.4843,-5.2996,-5.2344,-5.1833,-5.1308,-5.0987,-5.053,-5.0275,-5.0275,-4.9943,-4.9936,-5.0314,-5.1187,-5.2263,-5.364,-5.3699,-5.424,-5.5578,-5.5985,-5.6596,-5.7498,-5.7847,-5.7381,-5.6218,-5.7963,-5.8516,-5.2496,-5.461,-5.7367,-5.7504,-6.1086,-6.4611,-6.4595,-6.7017,-6.9648,-7.1086,-7.1413,-7.2497,-7.5928,-7.5358,-7.5396,-7.8734,-7.9301,-7.9878,-8.1596,-8.0385,-8.0007,-8.1999,-8.0729,-7.9768,-8.0065,-8.007,-8.007,-8.007,-8.0107,-8.0107,-8.007,-8.0107,-8.0107,-8.007,-8.007,-8.007,-8.007,-8.007,-8.007,-8.007,-8.007,-8.007,-8.007,-8.0069,-8.0099,-8.0073,-7.9811,-7.9519,-7.9295,-7.9182,-7.8958,-7.8704,-7.8704,-7.8704,-7.8704,-7.8704,-7.8704,-7.8704,-7.8704,-7.8704,-7.8704,-7.8704,-7.8704,-7.8697,-7.8734,-7.7084,-7.5216,-7.5256,-7.5241,-7.5241,-7.5241,-7.5241,-7.5241,-7.5241,-7.5241,-7.4707,-7.2693,-7.2331,-7.1257,-6.7773,-6.7008,-6.612,-6.3227,-6.155,-6.0136,-5.8722,-5.7243,-5.6289,-5.6289,-5.6322,-5.5899,-5.4885,-5.275,-5.1471,-5.1471,-5.0424,-5.0314,-5.1594,-5.1681,-5.2263,-5.364,-5.3699,-5.424,-5.5578,-5.6829,-5.7469,-5.7498,-5.869,-5.8661,-5.7469,-5.7498,-5.8167,-4.5828,-4.9553,-5.4188,-5.5463,-6.0298,-6.4653,-6.4655,-6.7034,-6.9965,-7.2656,-7.2207,-7.1674,-7.2796,-7.4507,-7.5741,0.0,-7.8709,-8.1131,-8.1746,-8.2382,-8.3075,-8.3839,-8.2462,-8.1482,-8.1659,-8.0715,-8.007,-8.007,-8.1095,-8.1208,-8.0145,-8.1095,-8.1208,-8.0107,-8.007,-8.007,-8.007,-8.007,-8.007,-8.007,-8.007,-8.0639,-8.1626,-8.0563,-8.0661,-8.1609,-8.0292,-7.9539,-7.9288,-7.9159,-7.8958,-7.8704,-7.8704,-7.8704,-7.8704,-7.8704,-7.8704,-7.8704,-7.8704,-7.8704,-7.8704,-7.8704,-7.8704,-7.8723,-7.8728,-7.7654,-7.6426,-7.6472,-7.5851,-7.5241,-7.5241,-7.5241,-7.5241,-7.5241,-7.5241,-7.4866,-7.356,-7.2764,-7.1749,-6.994,-6.8999,-6.8257,-6.7337,-6.5199,-6.3095,-6.1648,-5.938,-5.7473,-5.6454,-5.6393,-5.6291,-5.6158,-5.4955,-5.4156,-5.4156,-5.3109,-5.2554,-5.2961,-5.299,-5.3262,-5.3669,-5.4473,-5.5578,-5.6887,-5.8109,-5.9185,-6.0086,-6.0464,-5.9999,-5.8748,-5.9679,-5.9824,-4.5726,-4.9111,-5.2883,-5.5351,-5.9478,-6.2955,-6.2851,-6.3755,-6.5375,-6.793,-6.7584,-6.7162,-6.8347,-7.2347,-7.5563,-7.5891,-7.8547,-8.1015,-8.2393,-8.2928,-8.3798,-8.5404,-8.4057,-8.2857,-8.2456,-8.155,-8.0715,-8.0107,-8.0981,-8.1133,-8.0145,-8.1019,-8.1095,-8.0107,-8.007,-8.007,-8.007,-8.007,-8.007,-8.007,-8.007,-8.0601,-8.1512,-8.1133,-8.1512,-8.2347,-8.1212,-8.0593,-8.0339,-7.9534,-7.907,-7.8883,-7.8741,-7.8704,-7.8704,-7.8704,-7.8704,-7.8704,-7.8704,-7.8704,-7.8704,-7.8704,-7.8704,-7.8717,-7.8727,-7.8001,-7.7287,-7.7545,-7.6472,-7.5241,-7.5241,-7.5241,-7.5241,-7.5241,-7.5241,-7.4928,-7.3927,-7.2976,-7.1995,-7.0947,-6.9949,-6.9244,-6.9244,-6.7304,-6.5265,-6.3786,-6.2076,-6.0235,-5.8229,-5.85,-5.863,-5.8281,-5.7766,-5.6986,-5.6124,-5.4605,-5.3699,-5.3699,-5.3699,-5.3804,-5.4328,-5.5142,-5.6422,-5.8138,-5.8923,-5.997,-6.1195,-6.1195,-6.0871,-6.0086,-6.093,-6.0842,-4.9912,-5.174,-5.3028,-5.6184,-5.8617,-6.0144,-5.9897,-5.8346,-5.7356,-5.8683,-5.893,-5.9864,-6.2888,-6.8646,-7.4105,-7.7619,-7.8591,-8.005,-8.3302,0.0,-8.3265,-8.6634,-8.5554,-8.399,-8.2525,-8.2309,-8.1626,-8.0221,-8.007,-8.007,-8.007,-8.007,-8.007,-8.007,-8.007,-8.007,-8.007,-8.007,-8.007,-8.007,-8.007,-8.0145,-8.0297,-8.174,-8.2461,-8.2575,-8.2461,-8.241,-8.2267,-8.0319,-7.9429,-7.9257,-7.9033,-7.8816,-7.8704,-7.8704,-7.8704,-7.8704,-7.8704,-7.8704,-7.8704,-7.8704,-7.8704,-7.8717,-7.8726,-7.8153,-7.7699,-7.8424,-7.7015,-7.53,-7.5241,-7.5241,-7.5241,-7.5241,-7.5241,-7.4928,-7.3993,-7.2976,-7.2036,-7.1072,-6.9915,-6.9244,-6.9244,-6.8093,-6.6712,-6.5298,-6.5101,-6.4082,-6.1287,-6.2109,-6.2372,-6.0958,-6.0794,-5.9804,-5.7335,-5.5112,-5.3894,-5.3815,-5.3815,-5.4328,-5.5666,-5.5811,-5.6945,-5.9243,-5.9388,-6.0057,-6.1195,-6.1195,-6.1195,-6.1195,-6.1195,-6.1195,-4.2537,-4.7315,-5.2205,-5.1822,-5.6774,-6.1663,-6.163,-5.8302,-5.5316,-5.5649,-5.5554,-5.5987,-5.7953,-6.1692,0.0,-7.2123,-7.7358,-8.1396,-8.3489,-8.685,-8.9016,-8.8574,-8.7308,-8.5362,-8.2547,-8.1258,-8.0487,-8.0107,-8.007,-8.007,-8.007,-8.007,-8.007,-8.007,-8.007,-8.007,-8.007,-8.007,-8.007,-8.007,-8.007,-8.0715,-8.1892,-8.2234,-8.3107,-8.4284,-8.2993,-8.3092,-8.4004,-8.2035,-8.1154,-8.1039,-8.0791,-7.9863,-7.8704,-7.8704,-7.8704,-7.8704,-7.8704,-7.8704,-7.8704,-7.8704,-7.8704,-7.8741,-7.8723,-7.7948,-7.7158,-7.7314,-7.6795,-7.6006,-7.5418,-7.5241,-7.5241,-7.5241,-7.5241,-7.5181,-7.4928,-7.3528,-7.2184,-7.1995,-7.0463,-6.9244,-6.9244,-6.8948,-6.8224,-6.6778,-6.6547,-6.5923,-6.4147,-6.4213,-6.3851,-6.2405,-6.224,-6.0922,-5.7429,-5.6632,-5.5999,-5.5155,-5.5142,-5.5724,-5.7003,-5.7934,-5.869,-5.9272,-6.029,-6.0876,-6.1195,-6.1195,-6.1195,-6.1195,-6.1195,-6.1195,-4.2628,-4.8053,-5.2546,-4.937,-5.3132,-5.7156,-5.5646,-5.2614,-5.0067,-5.0001,-4.9852,-5.1167,-5.5731,-5.7467,-6.0869,-6.8945,0.0,-7.7806,-8.0984,-8.3858,-8.6509,0.0,0.0,-8.5465,-8.4536,-8.2462,-8.0867,-8.0145,-8.007,-8.007,-8.007,-8.007,-8.007,-8.007,-8.007,-8.007,-8.007,-8.007,-8.007,-8.007,-8.0791,-8.1588,-8.2461,-8.4018,-8.5233,-8.603,-8.4322,-8.4504,-8.5816,-8.3101,-8.2348,-8.2804,-8.1801,-8.0797,-7.9794,-7.9003,-7.8704,-7.8704,-7.8704,-7.8704,-7.8704,-7.8704,-7.8704,-7.8704,-7.8704,-7.8131,-7.7396,-7.7284,-7.6846,-7.6222,-7.5383,-7.5241,-7.5241,-7.5241,-7.5241,-7.5241,-7.5241,-7.3487,-7.1841,-7.1841,-7.0457,-6.9244,-6.9244,-6.9244,-6.875,-6.7271,-6.7633,-6.7435,-6.5857,-6.5216,-6.4428,-6.3264,-6.3132,-6.1764,-5.8422,-5.8183,-5.7132,-5.4847,-5.5811,-5.7032,-5.8283,-5.8952,-5.9592,-6.0203,-6.093,-6.1195,-6.1195,-6.1195,-6.1195,-6.1195,-6.1889,-6.218,-4.5088,-5.0435,-5.3751,-4.9533,-5.0477,-5.1627,-4.8648,-4.6047,-4.4204,-4.382,-4.3741,-4.5911,-5.3,-5.367,-5.6002,-6.4882,-6.8133,-7.1572,0.0,0.0,-8.1757,-8.7561,0.0,-8.4819,-8.5867,-8.3525,-8.1459,-8.0183,-8.007,-8.007,-8.007,-8.007,-8.007,-8.007,-8.007,-8.007,-8.007,-8.007,-8.007,-8.0107,-8.1664,-8.2423,-8.2537,-8.5954,-8.7473,-8.7397,-8.5954,-8.6296,-8.7621,-8.4318,-8.3682,-8.4604,-8.3015,-8.21,-8.1407,-7.975,-7.9108,-7.907,-7.8846,-7.8704,-7.8704,-7.8704,-7.8704,-7.8704,-7.8704,-7.8379,-7.7871,-7.7556,-7.7052,-7.6364,-7.5441,-7.5241,-7.5241,-7.5241,-7.5241,-7.5241,-7.5241,-7.3245,-7.1389,-7.1041,-7.0074,-6.9244,-6.9244,-6.9244,-6.8816,-6.7567,-6.8454,-6.8672,-6.7062,-6.6084,-6.5177,-6.4149,-6.3885,-6.2526,-5.9456,-5.9278,-5.7894,-5.4439,-5.6451,-5.8254,-5.9243,-5.9505,-6.0144,-6.1166,-6.1195,-6.1195,-6.1195,-6.137,-6.1457,-6.1515,-6.2907,-6.3489,-4.2511,-4.9372,-5.6067,-5.5292,-5.4517,-5.3428,-5.1614,-4.6622,-4.1976,-4.0545,-4.023,-4.1016,-4.3595,-4.621,-4.9384,-5.3649,-5.8258,0.0,-7.5444,-8.0702,-8.3817,-8.4656,-8.4702,0.0,-8.1093,-8.0384,-8.0122,-8.0068,-8.007,-8.007,-8.007,-8.007,-8.007,-8.007,-8.007,-8.007,-8.007,-8.007,-8.007,-8.0107,-8.1664,-8.2423,-8.2537,-8.5954,-8.7473,-8.7435,-8.7207,-8.8042,-8.9444,-8.7225,-8.638,-8.6466,-8.5975,-8.4765,-8.319,-8.1495,-8.0889,-8.0672,-7.922,-7.8704,-7.8704,-7.8704,-7.8704,-7.8704,-7.8704,-7.8379,-7.7834,-7.7225,-7.7223,-7.7041,-7.5557,-7.5241,-7.5241,-7.5241,-7.5241,-7.5241,-7.5241,-7.3627,-7.1634,-6.9827,-6.9376,-6.9244,-6.9244,-6.9244,-6.9178,-6.8948,-6.9079,-6.9112,-6.8783,-6.8598,-6.7855,-6.6215,-6.5325,-6.3183,-5.8974,-5.9015,-5.8608,-5.702,-5.8254,-5.9097,-5.9301,-6.0377,-6.0992,-6.1195,-6.1195,-6.1195,-6.1195,-6.2384,-6.2907,-6.2936,-6.4216,-6.4827,-4.4605,-5.0475,-5.6121,-5.4363,-5.3387,-5.2448,-5.0789,-4.67,-4.2756,-4.109,-4.0043,-4.0492,-4.3895,-4.4293,-4.6958,-5.565,-5.8319,-6.2366,0.0,0.0,-8.0359,-8.4791,-8.325,-8.2283,-8.3463,-8.1353,-7.9908,-7.9885,-8.0021,-8.007,-8.007,-8.007,-8.007,-8.007,-8.007,-8.007,-8.007,-8.007,-8.007,-8.0107,-8.2575,-8.379,-8.3904,-8.7283,-8.884,-8.8802,-8.7852,-8.8422,-8.9864,-8.8041,-8.7626,-8.8068,-8.7094,-8.606,-8.484,-8.3233,-8.2025,-8.1151,-8.0372,-7.9482,-7.8704,-7.8704,-7.8704,-7.8704,-7.8704,-7.8542,-7.8204,-7.7238,-7.7276,-7.722,-7.565,-7.5241,-7.5241,-7.5241,-7.5241,-7.5241,-7.5241,-7.2793,-7.0385,-6.9378,-6.9161,-6.9244,-6.9244,-6.9244,-6.9244,-6.9244,-6.9244,-6.9244,-6.9244,-6.9244,-6.8861,-6.804,-6.7572,-6.5411,-6.0486,-6.1645,-6.1986,-6.0761,-6.119,-6.1193,-6.0377,-6.0959,-6.1195,-6.1195,-6.1195,-6.1686,-6.2614,-6.2329,-6.2792,-6.4274,-6.5289,-6.584,-4.9896,0.0,-5.7691,-5.5223,-5.4326,-5.3391,0.0,-4.782,-4.4754,-4.2287,-4.0567,-4.0642,-4.4435,-4.3296,-4.5315,-5.5859,-5.7497,-5.9752,-6.634,-7.0077,0.0,-8.3213,-8.1292,-8.0817,-8.4825,-8.2329,-8.0303,-7.9844,-7.9969,-8.007,-8.007,-8.007,-8.007,-8.007,-8.007,-8.007,-8.007,-8.007,-8.007,-8.0107,-8.3373,-8.4929,-8.5081,-8.846,-9.0016,-8.9941,-8.865,-8.8802,-8.9903,-8.8612,-8.8565,-8.9196,-8.793,-8.7177,-8.6596,-8.496,-8.3494,-8.2349,-8.1974,-8.0709,-7.9302,-7.9302,-7.904,-7.8704,-7.8704,-7.8704,-7.851,-7.7525,-7.7328,-7.7111,-7.5768,-7.5324,-7.5241,-7.5241,-7.5241,-7.5241,-7.5241,-7.2786,-7.0466,-7.0003,-6.9886,-6.9788,-6.9276,-6.9244,-6.9244,-6.9244,-6.9244,-6.9244,-6.9244,-6.9244,-6.9244,-6.9244,-6.8948,-6.7119,-6.295,-6.4545,-6.5209,-6.3943,-6.3554,-6.2839,-6.1807,-6.1391,-6.1195,-6.1195,-6.1457,-6.2297,-6.3576,-6.3256,-6.4067,-6.6085,-6.6775,-6.7117,0.0,-6.1953,-6.3374,-6.315,-6.1991,-5.9673,-5.4962,-5.126,0.0,-4.2773,-4.0567,-3.9595,-3.9931,-4.1074,-4.2756,-4.5166,-4.9487,-5.4838,-6.1257,-6.5043,0.0,0.0,-7.8383,-7.9392,-8.014,-8.1113,-8.1259,-8.013,-8.0069,-8.007,-8.007,-8.007,-8.007,-8.007,-8.007,-8.007,-8.007,-8.007,-8.007,-8.0107,-8.3373,-8.4929,-8.5081,-8.846,-9.0016,-9.0016,-8.9865,-8.9865,-9.0016,-8.9865,-8.9748,-8.9568,-8.9203,-8.8945,-8.8574,-8.6671,-8.5882,-8.5536,-8.4101,-8.2498,-8.1096,-8.1096,-8.0012,-7.8704,-7.8704,-7.8704,-7.8611,-7.8061,-7.748,-7.6874,-7.6157,-7.5584,-7.5241,-7.5241,-7.5241,-7.5241,-7.5241,-7.4979,-7.4262,-7.2477,-7.2085,-7.145,-6.9516,-6.9244,-6.9244,-6.9244,-6.9244,-6.9244,-6.9244,-6.9244,-6.9244,-6.9244,-6.8135,-6.705,-6.6354,-6.6799,-6.6548,-6.5278,-6.4017,-6.3373,-6.3236,-6.1888,-6.1195,-6.1195,-6.2471,-6.3111,-6.3227,-6.6734,-6.8532,-6.8709,-6.8829,-6.8869,-6.1206,-6.3524,-6.5019,-6.3,-6.2776,-6.1766,-5.6794,-5.313,-4.9353,-4.4381,-4.1277,-3.9483,-3.9483,-3.9991,-4.2607,-4.9391,-5.2113,-5.6047,-6.3598,0.0,0.0,-7.3133,-7.7669,0.0,-8.3702,-8.2789,-8.1829,-8.1224,-8.0506,-8.0101,-8.0069,-8.007,-8.007,-8.007,-8.007,-8.007,-8.007,-8.007,-8.007,-8.0107,-8.2309,-8.3904,-8.5005,-8.7359,-8.8991,-9.0016,-9.0016,-9.0016,0.0,-9.0016,-8.9849,-8.9568,-8.9318,-8.9142,-8.8907,-8.8013,-8.7004,-8.606,-8.5424,-8.46,-8.3553,-8.2212,-8.0386,-7.8704,-7.8704,-7.8704,-7.8605,-7.8097,-7.748,-7.6801,-7.6171,-7.5605,-7.5241,-7.5241,-7.5241,-7.5241,-7.5241,-7.522,-7.5027,-7.4254,-7.3135,-7.1682,-6.9516,-6.9244,-6.9244,-6.9244,-6.9244,-6.9244,-6.9244,-6.9244,-6.9244,-6.9244,-6.8738,-6.8405,-6.8308,-6.8373,-6.7953,-6.6644,-6.6066,-6.5078,-6.3449,-6.2839,-6.2491,-6.2471,-6.2965,-6.3867,-6.524,-6.7826,-6.8967,-6.8946,-6.9024,-6.9015,-6.4122,-6.558,-6.6739,-6.4533,-6.4757,-6.4122,-5.8626,-5.4849,-5.0961,-4.5427,-4.1726,-3.9483,-3.9483,-3.9857,-4.2773,-5.0624,-5.3204,-5.6906,-6.4571,0.0,0.0,-7.2908,-7.7544,-8.1994,-8.5317,-8.391,-8.2341,-8.1244,-8.044,-8.0,-8.0068,-8.007,-8.007,-8.007,-8.007,-8.007,-8.007,-8.007,-8.007,-8.0107,-8.2234,-8.3828,-8.5005,-8.7245,-8.8915,-9.0016,-9.0016,-9.0016,-9.0016,-9.0016,-8.9922,-8.9708,-8.9367,-8.9215,-8.9169,-8.8795,-8.7972,-8.7037,-8.6962,-8.6214,-8.4975,-8.2741,-8.0536,-7.8741,-7.8704,-7.8704,-7.8642,-7.8311,-7.7605,-7.6884,-7.6421,-7.5771,-7.5241,-7.5241,-7.5241,-7.5241,-7.5241,-7.5231,-7.5115,-7.4753,-7.3634,-7.2065,-7.0181,-6.9537,-6.9244,-6.9244,-6.9244,-6.9244,-6.9244,-6.9244,-6.9244,-6.9244,-6.9244,-6.9244,-6.9244,-6.9244,-6.8827,-6.792,-6.7521,-6.6451,-6.4529,-6.3856,-6.3257,-6.2589,-6.4217,-6.5737,-6.7236,-6.8468,-6.9012,-6.9015,-6.9015,-6.9015,-6.8571,-6.8993,-6.8993,-6.8993,-6.8993,-6.7236,0.0,-5.6569,-5.2344,-4.5689,-4.1726,-3.9483,-3.9483,-4.0754,-4.2922,-4.6342,-5.1018,-5.6495,-6.3075,-6.6926,-7.0889,0.0,-7.7806,-8.0124,-8.3489,-8.3905,-8.2816,-7.993,-7.9736,-7.9833,-8.0068,-8.007,-8.007,-8.007,-8.007,-8.007,-8.007,-8.007,-8.007,-8.0107,-8.3335,-8.4891,-8.5081,-8.8422,-8.9979,-9.0016,-9.0016,-9.0016,-9.0016,-9.0016,-9.0016,-8.9941,-8.9447,-8.9367,-8.9543,-8.8907,-8.8832,-8.8982,-8.8724,-8.7191,-8.4989,-8.2784,-8.0548,-7.8754,-7.8741,-7.8741,-7.8704,-7.8704,-7.7875,-7.6974,-7.6974,-7.611,-7.5241,-7.5241,-7.5241,-7.5241,-7.5241,-7.5241,-7.4928,-7.3892,-7.3463,-7.2866,-7.1613,-7.0148,-6.9244,-6.9244,-6.9244,-6.9244,-6.9244,-6.9244,-6.9244,-6.9244,-6.9244,-6.9244,-6.9244,-6.9244,-6.9244,-6.9244,-6.8012,-6.712,-6.665,-6.4947,-6.3081,-6.1319,-6.6319,-6.9037,-6.9037,-6.9004,-6.9015,-6.9015,-6.9015,-6.9015,-6.887,-6.8993,-6.8993,-6.8993,-6.8993,-6.7236,0.0,0.0,-5.2344,-4.5689,-4.1726,-3.9483,-3.9483,-4.0754,-4.367,-4.9353,-5.2494,-5.6906,-6.4645,-6.9581,-7.3432,-7.6086,0.0,-8.4312,-8.5321,-8.5625,-8.4574,-8.1712,-8.0532,-8.0014,-8.0069,-8.007,-8.007,-8.007,-8.007,-8.007,-8.007,-8.007,-8.007,-8.0107,-8.1057,-8.2727,-8.4967,-8.5992,-8.7739,-9.0016,-9.0016,-9.0016,-9.0016,-9.0016,-9.0016,-8.9979,-8.9637,-8.9556,-8.9543,-8.9094,-8.8982,-8.8982,-8.8724,-8.8234,-8.7187,-8.4237,-8.1183,-7.9016,-8.0573,-7.9937,-7.8704,-7.8704,-7.8473,-7.8023,-7.7195,-7.611,-7.5241,-7.5241,-7.5241,-7.5241,-7.5241,-7.5241,-7.4928,-7.3892,-7.3598,-7.3112,-7.1591,-7.1029,-7.035,-6.9364,-6.9244,-6.9244,-6.9244,-6.9244,-6.9244,-6.9244,-6.9244,-6.9244,-6.9244,-6.9244,-6.9244,-6.9244,-6.8827,-6.7764,-6.5846,-6.3327,-6.3514,-6.6644,-6.8276,-6.8997,-6.9004,-6.9054,-6.9015,-6.9015,-6.9015,-6.9015,-6.8993,-6.8993,-6.8993,-6.8993,-6.8993,-6.7449,-6.1467,0.0,-5.2531,-4.6567,-4.2212,-3.967,-4.0268,-4.2249,-4.5764,-5.1746,-5.5223,-5.9822,-6.7337,-7.2123,-7.5974,-7.8965,-8.334,-8.6406,0.0,0.0,-8.4813,-8.3175,-8.1097,-7.9956,-8.007,-8.007,-8.007,-8.007,-8.007,-8.007,-8.007,-8.007,-8.007,-8.007,-8.0715,-8.2385,-8.4967,-8.565,-8.7435,-9.0016,-9.0016,-9.0016,-9.0016,-9.0016,-9.0016,-8.9978,-8.9714,-8.9632,-8.9595,-8.9164,-8.9019,-8.8982,-8.8724,-8.8645,-8.8309,-8.6326,-8.3751,-8.1401,-8.1657,-8.0311,-7.8704,-7.8704,-7.8704,-7.8441,-7.728,-7.6445,-7.5807,-7.5324,-7.5241,-7.5241,-7.5241,-7.5241,-7.4989,-7.4385,-7.3993,-7.3392,-7.2425,-7.1657,-7.0894,-7.0115,-6.9537,-6.9244,-6.9244,-6.9244,-6.9244,-6.9244,-6.9244,-6.9244,-6.9244,-6.9244,-6.9244,-6.9244,-6.9244,-6.8445,-6.6897,-6.5279,-6.5826,-6.9005,-6.8986,-6.9041,-6.9015,-6.9015,-6.9015,-6.9015,-6.9015,-6.9015,-6.8993,-6.8993,-6.8993,-6.8993,-6.8993,-6.7711,-6.2738,0.0,-5.3167,-4.7951,-4.3259,-4.0455,-4.1389,-4.4717,-4.8811,-5.3466,-5.8514,-6.4159,-7.0889,-7.4591,-7.8442,-8.3415,0.0,0.0,-8.8645,-8.5899,-8.4053,-8.4161,-8.1398,-7.9842,-8.007,-8.007,-8.007,-8.007,-8.007,-8.007,-8.007,-8.007,-8.007,-8.0107,-8.1512,-8.3069,-8.4777,-8.6448,-8.8156,-8.9751,-8.9941,-9.0016,-9.0016,-9.0016,-9.0016,-8.9973,-8.9717,-8.9621,-8.9591,-8.9171,-8.9019,-8.8982,-8.8724,-8.8612,-8.8608,-8.8305,-8.6845,-8.4718,-8.2255,-8.0199,-7.8704,-7.8704,-7.8704,-7.8473,-7.7365,-7.7019,-7.6698,-7.5564,-7.5265,-7.5241,-7.5241,-7.5241,-7.5241,-7.5241,-7.4448,-7.376,-7.3659,-7.2184,-7.0968,-7.1238,-7.0115,-6.9244,-6.9244,-6.9244,-6.9244,-6.9244,-6.9244,-6.9244,-6.9244,-6.9244,-6.9244,-6.9244,-6.9244,-6.9236,-6.9195,-6.9417,-6.9525,-6.9447,-6.9125,-6.9015,-6.9015,-6.9015,-6.9015,-6.9015,-6.9015,-6.9015,-6.9057,-6.8993,-6.8993,-6.8993,-6.8993,-6.7711,-6.2738,-5.9785,-5.5934,-4.84,-4.6006,-4.4194,-4.0604,-4.5801,-5.1447,-5.384,-5.9411,-6.6216,-7.4179,-7.6984,-8.005,-8.5022,-8.7228,0.0,-8.712,-8.5538,-8.4049,-8.2787,-8.1017,-8.0032,-8.007,-8.007,-8.007,-8.007,-8.007,-8.007,-8.007,-8.007,-8.007,-8.007,-8.0411,-8.1436,-8.3031,-8.4701,-8.641,-8.808,-8.9409,-9.0016,-9.0016,-9.0016,-9.0016,-8.9978,-8.9715,-8.9616,-8.9591,-8.9171,-8.9019,-8.8982,-8.8724,-8.8612,-8.82,-8.5625,-8.4499,-8.4013,-8.3415,-8.1096,-7.8704,-7.8704,-7.8704,-7.8574,-7.7912,-7.736,-7.6792,-7.6038,-7.5528,-7.5241,-7.5241,-7.5241,-7.5241,-7.5241,-7.5085,-7.461,-7.3826,-7.2764,-7.1693,-7.0968,-6.9898,-6.9244,-6.9244,-6.9244,-6.9244,-6.9244,-6.9244,-6.9244,-6.9244,-6.9244,-6.9244,-6.9244,-6.9244,-6.9163,-6.9185,-7.1438,-7.2621,-7.2573,-7.021,-6.9015,-6.9015,-6.9015,-6.9015,-6.9015,-6.9015,-6.9015,-6.9132,-6.9057,-6.8993,-6.8993,-6.8993,-6.8122,-6.472,0.0,0.0,-5.2738,-4.9615,-4.6923,-4.3633,-4.9054,-5.4326,-5.5186,-6.1579,-6.8721,-7.5451,-7.7881,-8.076,-8.5728,-8.7303,-8.7693,-8.6863,-8.4795,-8.3183,-8.2385,-8.0905,-8.007,-8.007,-8.007,-8.007,-8.007,-8.007,-8.007,-8.007,-8.007,-8.007,-8.007,-8.007,-8.0905,-8.2461,-8.3335,-8.5119,-8.7549,-8.8422,-8.9257,-9.0016,-9.0016,-9.0016,-8.9979,-8.9827,-8.9734,-8.9581,-8.9261,-8.9094,-8.8982,-8.8724,-8.8612,-8.835,-8.6667,-8.4499,-8.2592,-8.2592,-8.076,-7.8704,-7.8704,-7.8704,-7.8611,-7.8061,-7.7443,-7.6838,-7.612,-7.564,-7.5241,-7.5241,-7.5241,-7.5241,-7.5241,-7.5241,-7.5085,-7.4511,-7.3627,-7.2621,-7.1693,-7.0625,-6.978,-6.9211,-6.9244,-6.9244,-6.9244,-6.9244,-6.9244,-6.9244,-6.9244,-6.9244,-6.9244,-6.9244,-6.9219,-6.9242,-7.1628,-7.2857,-7.2767,-7.1655,-7.0464,-6.9015,-6.9015,-6.9015,-6.9015,-6.9015,-6.9015,-6.9132,-6.9132,-6.9057,-6.8993,-6.8993,-6.8571,-6.6851,-6.4384,0.0,-5.7728,-5.3989,-5.0699,-4.8512,-5.3449,-5.8027,-5.8626,-6.5244,-7.1936,-7.6572,-7.853,-8.0953,-8.4769,-8.5713,-8.6009,-8.5837,-8.3638,-8.2196,-8.2044,-8.0563,-7.9652,-7.9652,-7.9918,-8.007,-8.007,-8.007,-8.007,-8.007,-8.007,-8.007,-8.007,-8.007,-8.0753,-8.2044,-8.2309,-8.3942,-8.6638,-8.7207,-8.827,-8.9599,-8.9865,-9.0016,-9.0016,-8.9957,-8.9754,-8.9536,-8.9269,-8.9094,-8.8945,-8.8686,-8.8387,-8.8013,-8.7893,-8.483,-8.1246,-8.1246,-8.005,-7.8704,-7.8704,-7.8704,-7.8642,-7.8169,-7.7642,-7.6974,-7.6322,-7.5735,-7.5347,-7.5205,-7.5241,-7.5241,-7.5241,-7.5241,-7.5241,-7.5241,-7.4385,-7.339,-7.2404,-7.1385,-7.0414,-6.9298,-6.9244,-6.9244,-6.9244,-6.9244,-6.9244,-6.9244,-6.9244,-6.9244,-6.9244,-6.9244,-6.9383,-6.9978,-7.1283,-7.2168,-7.2413,-7.3016,-7.1775,-6.9004,-6.9054,-6.9015,-6.9015,-6.9015,-6.9015,-6.887,-6.9207,-6.9169,-6.9057,-6.8993,-6.8571,-6.6851,-6.6141,-6.4496,-5.9747,-5.9411,-5.8588,-5.4064,-5.8588,-6.3935,-6.6889,-7.1899,-7.661,-8.0124,-8.0894,-8.0866,-8.0175,-8.1717,-8.2297,-8.0829,-8.1702,-8.1854,-8.0487,-7.8855,-7.7905,-7.7905,-7.9272,-8.007,-8.007,-8.007,-8.007,-8.007,-8.007,-8.007,-8.007,-8.007,-8.0221,-8.0449,-8.1778,-8.2689,-8.3259,-8.6182,-8.7625,-8.7928,-8.9409,-9.0016,-8.9973,-8.9724,-8.9507,-8.9279,-8.9119,-8.8907,-8.8649,-8.8649,-8.7378,-8.562,-8.4723,-8.2966,-8.1246,-8.1246,-8.005,-7.8704,-7.8704,-7.8704,-7.8704,-7.8642,-7.8239,-7.7642,-7.7019,-7.6322,-7.5753,-7.5288,-7.5241,-7.5241,-7.5241,-7.5241,-7.5241,-7.5241,-7.4385,-7.339,-7.2404,-7.1385,-7.0414,-6.9298,-6.9244,-6.9244,-6.9244,-6.9244,-6.9244,-6.9244,-6.9244,-6.9244,-6.9244,-6.9244,-7.0338,-7.2938,-7.2026,-7.245,-7.456,-7.2993,-7.1085,-6.8961,-6.9049,-6.9015,-6.9015,-6.9015,-6.9015,-6.6287,-6.792,-6.9207,-6.9132,-6.9095,-6.8833,-6.8085,-6.7898,-6.7001,-6.386,-6.3823,-6.3112,-5.9112,-6.2215,-6.5543,-6.6103,-6.9581,-7.3058,-7.5376,-7.6759,-7.761,-7.7874,-7.8908,-7.931,-7.8589,-7.8361,-7.7981,-7.7298,-7.745,-7.7564,-7.7564,-7.9158,-8.007,-8.007,-8.007,-8.007,-8.007,-8.007,-8.007,-8.007,-8.007,-8.007,-8.0107,-8.0791,-8.1588,-8.2499,-8.398,-8.5195,-8.6182,-8.789,-8.8574,-8.8649,-8.9493,-8.977,-8.9629,-8.9171,-8.9094,-8.8945,-8.734,-8.4503,-8.1706,-8.2186,-8.1209,-7.9825,-7.9825,-7.9302,-7.8704,-7.8704,-7.8704,-7.8704,-7.8704,-7.8345,-7.7836,-7.7602,-7.6745,-7.5949,-7.5735,-7.5428,-7.5241,-7.5241,-7.5241,-7.5241,-7.5241,-7.4831,-7.4028,-7.2584,-7.192,-7.1072,-6.9384,-6.9244,-6.9244,-6.9244,-6.9244,-6.9244,-6.9244,-6.9244,-6.9244,-6.9244,-6.9244,-7.0559,-7.3551,-7.3475,-7.3895,-7.505,-7.5194,-7.3271,-6.9061,-7.0084,-7.0044,-6.9015,-6.9015,-6.9015,-6.3524,-6.5738,-6.7696,-6.8881,-6.9132,-6.9057,-6.8993,-6.8993,-6.8683,-6.7375,-6.7113,-6.6365,-6.3972,-6.5505,-6.7113,-6.7113,-6.9244,-7.1301,-7.2515,-7.4029,-7.5065,-7.5114,-7.5796,-7.6273,-7.6273,-7.5514,-7.4678,-7.3805,-7.5286,-7.6463,-7.688,-7.8513,-7.9652,-8.007,-8.007,-8.007,-8.007,-8.007,-8.007,-8.007,-8.007,-8.007,-8.007,-8.007,-8.0715,-8.1854,-8.2234,-8.3145,-8.4436,-8.6144,-8.6827,-8.6941,-8.8194,-8.894,-8.9173,-8.8544,-8.8471,-8.8159,-8.4877,-8.1818,-7.9501,-8.0318,-7.975,-7.8704,-7.8704,-7.8704,-7.8704,-7.8704,-7.8704,-7.8704,-7.8704,-7.8445,-7.8097,-7.7987,-7.7064,-7.6171,-7.6054,-7.5584,-7.5241,-7.5241,-7.5241,-7.5241,-7.5241,-7.5241,-7.4582,-7.2584,-7.2292,-7.1582,-6.9471,-6.9244,-6.9244,-6.9244,-6.9244,-6.9244,-6.9244,-6.9244,-6.9244,-6.9244,-6.9244,-7.046,-7.3123,-7.4362,-7.5273,-7.5769,-7.6474,-7.4779,-7.0503,-7.0992,-7.0444,-6.9015,-6.9015,-6.9015,-6.1469,-6.2435,-6.3643,-6.8069,-6.9207,-6.9169,-6.9057,-6.8993,-6.8982,-6.8908,-6.887,-6.8833,-6.8683,-6.8795,-7.0403,-7.5002,-7.5899,-7.6069,-7.6293,-7.6507,-7.5064,-7.0681,-7.1679,-7.2742,-7.2742,-7.4147,-7.3691,-7.0502,-7.1793,-7.3463,-7.5058,-7.6766,-7.8437,-8.0032,-8.007,-8.007,-8.007,-8.007,-8.007,-8.007,-8.007,-8.007,-8.007,-8.007,-8.0107,-8.0297,-8.1778,-8.2461,-8.2689,-8.4398,-8.5081,-8.5081,-8.5195,-8.6048,-8.716,-8.6646,-8.6222,-8.5317,-8.0921,-8.0205,-8.0872,-7.9339,-7.8778,-7.8704,-7.8704,-7.8704,-7.8704,-7.8704,-7.8704,-7.8704,-7.8704,-7.8704,-7.8579,-7.8061,-7.7401,-7.6792,-7.6157,-7.5584,-7.5241,-7.5241,-7.5241,-7.5241,-7.5241,-7.5241,-7.4582,-7.2584,-7.2292,-7.1582,-6.9471,-6.9244,-6.9244,-6.9244,-6.9244,-6.9244,-6.9244,-6.9244,-6.9244,-6.9244,-6.9244,-7.0066,-7.212,-7.4025,-7.5873,-7.7721,-7.5176,-7.4005,-7.471,-7.09,-6.9141,-6.9015,-6.9015,-6.9015,-5.9305,-6.1487,-6.3132,-6.6997,-6.8582,-6.9207,-6.9169,-6.9095,-6.8993,-6.8993,-6.9805,-7.0515,-7.0515,-7.0515,-7.1151,-7.3086,-7.2487,-7.1851,-7.1916,-7.2138,-7.168,-6.997,-7.0426,-7.0882,-7.0882,-7.1451,-7.1299,-7.0085,-7.1565,-7.278,-7.3388,-7.6045,-7.783,-7.8437,-7.9538,-8.007,-8.007,-8.007,-8.007,-8.007,-8.007,-8.007,-8.007,-8.007,-8.007,-8.0107,-8.0677,-8.0905,-8.1057,-8.2651,-8.3297,-8.3448,-8.4511,-8.5242,-8.5618,-8.4754,-8.4641,-8.4307,-8.0461,-7.9339,-7.9526,-7.889,-7.8704,-7.8704,-7.8704,-7.8704,-7.8704,-7.8704,-7.8704,-7.8704,-7.8704,-7.8704,-7.8673,-7.8478,-7.7684,-7.6929,-7.6698,-7.5898,-7.5241,-7.5241,-7.5241,-7.5241,-7.5241,-7.5241,-7.4582,-7.2584,-7.2292,-7.1845,-7.0414,-6.9609,-6.9244,-6.9244,-6.9244,-6.9244,-6.9244,-6.9244,-6.9244,-6.9244,-6.9244,-7.0033,-7.2021,-7.338,-7.5392,-7.7855,-7.6845,-7.5257,-7.3022,-7.1175,-6.9867,-6.9015,-6.9015,-6.9015,-5.5832,-5.9016,-6.1996,-6.4091,-6.6615,-6.8507,-6.8384,-6.8758,-6.9095,-6.9095,-6.988,-7.059,-7.059,-7.059,-7.0665,-7.0842,-6.9972,-6.9327,-6.9468,-6.9655,-6.9819,-6.9857,-6.9933,-6.9971,-6.9971,-6.9971,-6.9971,-6.9971,-7.1034,-7.1907,-7.2476,-7.464,-7.6387,-7.7526,-7.8665,-7.95,-8.007,-8.007,-8.007,-8.007,-8.007,-8.007,-8.007,-8.007,-8.007,-8.007,-8.007,-8.007,-8.0145,-8.1208,-8.1626,-8.174,-8.2879,-8.3638,-8.397,-8.2724,-8.2416,-8.2307,-7.9982,-7.8995,-7.8704,-7.8704,-7.8704,-7.8704,-7.8704,-7.8704,-7.8704,-7.8704,-7.8704,-7.8704,-7.8704,-7.8704,-7.8704,-7.8704,-7.7838,-7.6974,-7.6974,-7.6058,-7.5241,-7.5241,-7.5241,-7.5241,-7.5241,-7.5241,-7.4769,-7.346,-7.3011,-7.2549,-7.1811,-7.0544,-6.9642,-6.9244,-6.9244,-6.9244,-6.9244,-6.9244,-6.9244,-6.9244,-6.9244,-6.977,-7.1075,-7.1816,-7.3726,-7.6874,-7.632,-7.4625,-7.175,-7.0395,-6.9547,-6.9015,-6.9015,-6.9015,-5.1281,-5.4823,-5.9822,-5.9515,-6.3292,-6.6986,-6.6552,-6.7812,-6.9084,-6.9132,-6.9095,-6.9057,-6.9057,-6.9132,-6.9207,-6.9222,-6.9298,-6.949,-6.974,-6.9781,-6.9857,-6.9971,-6.9971,-6.9971,-6.9971,-6.9971,-6.9971,-6.9971,-6.9971,-7.0692,-7.2362,-7.2476,-7.3995,-7.7298,-7.745,-7.8285,-7.9994,-7.9994,-8.0032,-8.007,-8.007,-8.007,-8.007,-8.007,-8.007,-8.007,-8.007,-8.007,-8.007,-8.007,-8.007,-8.007,-8.007,-8.1019,-8.2151,-8.0657,-7.9738,-7.9323,-7.9325,-7.907,-7.8704,-7.8704,-7.8704,-7.8704,-7.8704,-7.8704,-7.8704,-7.8704,-7.8704,-7.8704,-7.8704,-7.8704,-7.8704,-7.8704,-7.7838,-7.6974,-7.6974,-7.6058,-7.5241,-7.5241,-7.5241,-7.5241,-7.5241,-7.5241,-7.5241,-7.5241,-7.4385,-7.3694,-7.3659,-7.2002,-7.0381,-6.9384,-6.9244,-6.9244,-6.9244,-6.9244,-6.9244,-6.9244,-6.9244,-6.9244,-6.9244,-6.9285,-7.1094,-7.4869,-7.2946,-7.1789,-7.1264,-6.8397,-6.7619,-6.8898,-6.8957,-6.8957,-5.3988,-5.5751,-5.6561,-5.7772,-6.0883,-6.3271,-6.1913,-6.379,-6.6154,-6.7388,-6.8507,-6.9282,-6.9282,-6.9319,-6.939,-6.9603,-6.9662,-6.9732,-6.9895,-6.9933,-6.9933,-6.9971,-6.9971,-6.9971,-6.9971,-6.9971,-6.9971,-6.9971,-6.9971,-7.016,-7.0654,-7.1831,-7.2932,-7.3881,-7.5096,-7.6539,-7.8247,-7.8247,-7.8893,-8.007,-8.007,-8.007,-8.007,-8.007,-8.007,-8.007,-8.007,-8.007,-8.007,-8.007,-8.007,-8.007,-8.007,-8.0373,-8.0676,-8.0248,-7.9747,-7.9323,-7.9325,-7.907,-7.8704,-7.8704,-7.8704,-7.8704,-7.8704,-7.8704,-7.8704,-7.8704,-7.8704,-7.8704,-7.8704,-7.8704,-7.8642,-7.8276,-7.7565,-7.6838,-7.6372,-7.5716,-7.5241,-7.5241,-7.5241,-7.5241,-7.5241,-7.5241,-7.5241,-7.5241,-7.4989,-7.4547,-7.376,-7.3184,-7.2224,-7.0463,-6.9609,-6.9244,-6.9244,-6.9244,-6.9244,-6.9244,-6.9244,-6.9244,-6.9244,-7.0548,-7.1793,-7.2891,-7.0149,-6.8698,-6.8506,-6.6621,-6.5816,-6.6194,-6.7153,-6.7561,-5.1619,-5.2467,-5.1962,-5.296,-5.4635,-5.6848,-5.9947,-6.1057,-6.2329,-6.5366,-6.7302,-6.8425,-6.8425,-6.9053,-6.9591,-6.9777,-6.9819,-6.9895,-6.9971,-6.9971,-6.9971,-6.9971,-6.9971,-6.9971,-6.9971,-6.9971,-6.9971,-6.9971,-6.9971,-6.9971,-6.9971,-7.092,-7.1755,-7.2476,-7.3463,-7.4792,-7.6501,-7.7222,-7.8057,-7.9044,-7.9766,-8.007,-8.007,-8.007,-8.007,-8.007,-8.007,-8.007,-8.007,-8.007,-8.007,-8.007,-8.007,-8.007,-8.007,-7.9956,-7.9673,-7.9323,-7.925,-7.8995,-7.8704,-7.8704,-7.8704,-7.8704,-7.8704,-7.8704,-7.8704,-7.8704,-7.8704,-7.8673,-7.8453,-7.8385,-7.8243,-7.7642,-7.7019,-7.647,-7.6069,-7.5584,-7.5241,-7.5241,-7.5241,-7.5241,-7.5241,-7.5241,-7.5241,-7.5241,-7.5241,-7.5024,-7.4385,-7.3927,-7.3115,-7.1617,-7.0463,-6.9695,-6.9244,-6.9244,-6.9244,-6.9244,-6.9244,-6.8882,-6.8153,-6.995,-7.0382,-6.9288,-6.6941,-6.6043,-6.6445,-6.5061,-6.4594,-6.5118,-6.5874,-6.5081,-4.5227,-4.6103,-4.6527,-4.6444,-4.6644,-4.9051,0.0,-5.7549,-5.7112,-6.1884,-6.4383,-6.5803,-6.6197,-6.7917,-6.9287,-6.9477,-6.9778,-6.9965,-6.997,-6.9971,-6.9971,-6.9971,-6.9971,-6.9971,-6.9971,-6.9971,-6.9971,-6.9971,-6.9971,-6.9971,-6.9971,-6.9971,-7.0654,-7.2173,-7.2211,-7.3046,-7.4754,-7.6235,-7.7108,-7.7298,-7.8817,-7.9538,-7.9538,-7.9728,-7.9804,-7.9804,-7.9994,-8.007,-8.007,-8.007,-8.007,-8.007,-8.007,-8.007,-7.9994,-7.9764,-7.9484,-7.9253,-7.9111,-7.8921,-7.8704,-7.8704,-7.8704,-7.8704,-7.8704,-7.8704,-7.8704,-7.8704,-7.8704,-7.8611,-7.806,-7.7938,-7.7775,-7.7056,-7.6421,-7.6002,-7.5896,-7.5528,-7.5241,-7.5241,-7.5241,-7.5241,-7.5241,-7.5241,-7.5241,-7.5241,-7.5241,-7.5241,-7.5241,-7.4448,-7.3493,-7.2439,-7.1463,-7.0496,-6.9331,-6.9244,-6.9244,-6.9244,-6.9244,-6.8551,-6.7018,-6.8102,-6.7661,-6.5109,-6.3839,-6.361,-6.4462,-6.3358,-6.314,-6.398,-6.4273,-6.1577,0.0,0.0,0.0,0.0,0.0,0.0,0.0,-4.5563,-4.8132,-5.1725,-5.5012,-5.8047,-6.0893,-6.3856,-6.6326,-6.7693,-6.9043,-6.998,-6.9966,-6.9971,-6.9971,-6.9971,-6.9971,-6.9971,-6.9971,-6.9971,-6.9971,-6.9971,-6.9971,-6.9971,-6.9971,-6.9971,-7.0123,-7.0464,-7.0464,-7.1299,-7.297,-7.3312,-7.4185,-7.5514,-7.5855,-7.6007,-7.6045,-7.7412,-7.8057,-7.8133,-7.95,-8.007,-8.007,-8.007,-8.007,-8.007,-8.007,-7.9956,-7.9726,-7.9505,-7.931,-7.9121,-7.8876,-7.8741,-7.8704,-7.8704,-7.8704,-7.8704,-7.8704,-7.8704,-7.8704,-7.8704,-7.8704,-7.8629,-7.8094,-7.7948,-7.7643,-7.6482,-7.6099,-7.5879,-7.5449,-7.5324,-7.5241,-7.5241,-7.5241,-7.5241,-7.5241,-7.5241,-7.5241,-7.5241,-7.5241,-7.5241,-7.5241,-7.5085,-7.4257,-7.2511,-7.2145,-7.1229,-6.9384,-6.9244,-6.9244,-6.9244,-6.9244,-6.9032,-6.8704,-6.6959,-6.5365,-6.3734,-6.2327,-6.1286,-6.0436,-6.0138,-5.9043,-5.7132,-5.9331,-5.7606,0.0,0.0,0.0,0.0,0.0,0.0,0.0,0.0,0.0,0.0,0.0,-5.1673,-5.4414,0.0,-6.1897,-6.4498,-6.701,-6.8941,-6.9852,-6.996,-6.9917,-6.9714,-6.9676,-6.9676,-6.9676,-6.9676,-6.9676,-6.9676,-6.9676,-6.9744,-6.9869,-6.9893,-6.9916,-6.997,-6.9971,-7.0388,-7.1224,-7.2059,-7.2932,-7.3805,-7.464,-7.502,-7.5058,-7.5893,-7.6311,-7.6349,-7.7184,-7.7564,-7.7564,-7.7564,-7.8057,-7.8779,-7.8475,-7.7852,-7.7201,-7.7534,-7.7237,-7.6759,-7.7358,-7.7544,-7.7694,-7.8442,-7.8704,-7.8704,-7.8704,-7.818,-7.7552,-7.7552,-7.6954,-7.6101,-7.524,-7.562,-7.5949,-7.4708,-7.5029,-7.5528,-7.5265,-7.5241,-7.5241,-7.5241,-7.5241,-7.5241,-7.5241,-7.5241,-7.5241,-7.5241,-7.5241,-7.5241,-7.5241,-7.4769,-7.3329,-7.0407,-6.9048,-6.7985,-6.7176,-6.5791,-6.617,-6.9042,-6.833,-6.7464,-6.6541,-6.4429,-6.2375,-6.0508,-5.907,-5.8109,-5.744,-5.6085,-5.4765,-5.3452,-5.2966,-5.0943,0.0,0.0,0.0,0.0,0.0,0.0,0.0,0.0,0.0,0.0,0.0,0.0,0.0,0.0,0.0,-6.0332,-6.3876,-6.6982,-6.9137,-6.9415,-6.9285,-6.8976,-6.9225,-6.9399,-6.9399,-6.9399,-6.9399,-6.9399,-6.9399,-6.9506,-6.9682,-6.971,-6.9785,-6.9843,-6.9905,-6.9928,-6.9928,-7.1333,-7.2021,-7.2021,-7.3388,0.0,-7.4071,-7.4375,-7.4564,-7.4564,-7.4906,-7.502,-7.502,-7.502,-7.5817,-7.6994,-7.6109,-7.5065,-7.417,-7.5218,-7.4852,-7.4039,-7.5189,-7.5712,-7.6124,-7.7358,-7.7948,-7.8098,-7.8098,-7.7066,0.0,-7.5907,-7.4832,-7.3481,-7.2358,-7.2951,-7.3636,-7.2663,-7.3636,-7.4682,-7.442,-7.4813,-7.5134,-7.4848,-7.5027,-7.5241,-7.5241,-7.4991,-7.467,-7.4384,-7.4848,-7.4931,-7.411,-7.3834,-7.2344,-6.8783,-6.6735,-6.5535,-6.5347,-6.3464,-6.3807,-6.7271,-6.6863,-6.5163,-6.2223,-6.0581,-5.8741,-5.6467,-5.5113,-5.4606,-5.4867,-5.2474,-5.0972,-5.0099,-4.4731,-4.2277,0.0,0.0,0.0,0.0,0.0,0.0,0.0,0.0,0.0,0.0,0.0,0.0,0.0,0.0,0.0,0.0,-5.952,-6.3737,-6.6954,-6.7414,-6.7347,-6.7347,-6.8574,-6.9385,-6.9385,-6.9385,-6.9385,-6.9385,-6.9385,-6.9397,-6.9431,-6.943,0.0,0.0,0.0,-6.9808,-6.9808,-7.0102,-7.0274,-7.0274,-7.0464,-7.054,-7.0616,-7.2097,-7.278,-7.2856,-7.4375,-7.502,-7.502,-7.502,-7.5134,-7.5132,-7.3464,-7.2483,-7.2212,-7.3606,-7.3432,-7.2544,-7.2721,0.0,0.0,-7.4366,-7.5031,-7.5779,-7.5779,-7.5048,-7.4167,-7.4161,-7.3665,-7.3011,-7.2286,-7.1895,-7.1526,-7.097,-7.2011,-7.2818,-7.1367,-7.3279,-7.4813,-7.3386,-7.4277,-7.5241,-7.5241,-7.4063,-7.2672,-7.1281,-7.3457,-7.3896,-7.0199,-7.204,-7.2802,-7.0677,-7.0226,0.0,-6.6993,-6.769,-6.6338,-6.1904,-6.4647,-6.3434,-5.6613,-5.5164,-5.3823,-5.2417,-5.1099,-5.1032,-5.2185,-5.0742,-4.8213,-4.4535,-3.3794,-3.1538,0.0,0.0,0.0,0.0,0.0,0.0,0.0,0.0,0.0,0.0,0.0,0.0,0.0,0.0,0.0,0.0,-5.4801,-5.784,-5.9196,-6.2,-6.462,-6.649,-6.7288,-6.8085,-6.9057,-6.9169,-6.9169,-6.9169,-6.9169,-6.9207,-6.9282,-6.9269,-6.9311,-6.9386,-6.951,-6.9559,-6.9543,-6.9627,-6.9655,-6.9655,-6.9655,-6.9655,-6.9655,-7.0376,-7.0679,-7.0747,-7.1609,-7.1976,-7.1992,-7.2066,-7.2052,-7.1876,0.0,0.0,0.0,0.0,-7.0777,-7.0665,-7.2572,-7.3133,-7.317,-7.4366,-7.4657,-7.4535,-7.4525,-7.3506,-7.2337,-7.2066,-7.113,-7.0048,-6.9065,-6.9388,-6.9813,-6.9223,-7.038,-7.1345,-7.0704,-7.158,-7.2315,-7.1637,-7.2066,0.0,-7.2529,-7.1959,-7.1316,-7.0639,-7.1219,-7.1046,-6.9337,-6.9334,-6.8528,-6.5918,-6.4479,-6.3943,-6.4524,-6.433,0.0,0.0,0.0,-6.2865,-5.8598,-5.8895,0.0,0.0,0.0,-4.5758,-4.5368,-3.9929,0.0,0.0,-3.0395,-2.9443,0.0,0.0,0.0,0.0,0.0,0.0,0.0,0.0,0.0,0.0,0.0,0.0,0.0,0.0,0.0,0.0,-4.8854,-5.181,-5.1632,-5.6139,-6.02,-6.2042,-6.4359,-6.573,-6.5617,-6.7263,-6.8309,-6.8309,-6.8758,-6.9057,-6.9169,-6.9169,-6.9207,-6.9282,-6.9319,-6.932,-6.9349,-6.9349,-6.9349,-6.9387,-6.9425,-6.9463,-6.9463,-6.9425,-6.9387,-6.9408,-6.9583,-6.9685,-6.9675,-6.9776,-6.9755,-6.9639,-6.9381,-6.9207,-6.8993,-6.8993,-6.8993,-6.9356,-7.1712,-7.2048,-7.1609,-7.2913,-7.2897,-7.231,-7.2167,-7.1234,-7.0199,-6.9805,-6.8745,-6.756,-6.6666,-6.7265,-6.7963,-6.7499,-6.8663,-6.9762,-6.9315,-6.9941,-7.0424,-6.9961,-6.9497,-6.9354,-6.9782,-6.9854,-6.9655,-6.9025,-6.9034,-6.8721,-6.7341,-6.6782,-6.5567,-6.3054,-6.1281,-6.0958,-6.2681,-6.2194,-5.9896,-5.5358,-5.9951,-6.2462,-6.1584,-6.1592,-5.9875,-5.5971,-4.7376,-4.1841,0.0,0.0,0.0,0.0,0.0,0.0,0.0,0.0,0.0,0.0,0.0,0.0,0.0,0.0,0.0,0.0,0.0,0.0,0.0,0.0,0.0,0.0,0.0,0.0,-4.6008,-5.0644,-5.3475,-5.1793,-5.8946,-6.2178,-5.7429,-6.2776,-6.6552,-6.6552,-6.8085,-6.8993,-6.8993,-6.8993,-6.8993,-6.9057,-6.9169,-6.9207,-6.9196,-6.9196,-6.9271,-6.9383,-6.9532,-6.957,-6.957,-6.9458,-6.9383,-6.9383,-6.9394,-6.9419,-6.9426,-6.9402,-6.9402,-6.9375,-6.9119,-6.8993,-6.8993,-6.8993,-6.8993,-6.9057,-6.9132,-6.9169,-6.9013,-6.8312,-6.8213,-6.8295,-6.7818,-6.7616,-6.7584,-6.7546,-6.7077,-6.653,-6.6462,-6.616,-6.5787,-6.5787,-6.6945,-6.7709,-6.6162,-6.832,-7.0068,-6.8408,-6.6893,-6.6357,-6.7837,-6.8087,-6.7334,-6.5065,-6.7266,0.0,-6.268,-6.4624,-6.6071,-6.4935,-6.4772,-6.4213,-6.2865,-6.4033,-6.4362,-6.3259,-6.1659,-6.1759,-6.3948,-5.9979,-5.5896,-5.1964,-4.5556,-4.0567,-3.7235,0.0,0.0,0.0,0.0,0.0,0.0,0.0,0.0,0.0,0.0,0.0,0.0,0.0,0.0,0.0,0.0,0.0,0.0,0.0,0.0,0.0,0.0,0.0,0.0,-4.6378,-5.076,-5.1064,-5.3759,-5.4554,-5.1913,-5.6264,-5.9435,-5.9874,-6.3207,-6.589,-6.7263,-6.7337,-6.7861,-6.8956,-6.9057,-6.9095,-6.9095,-6.9095,-6.9132,-6.9169,-6.9207,-6.9207,-6.9207,-6.9169,-6.9169,-6.9169,-6.9244,-6.9261,-6.9262,-6.9262,-6.9224,-6.9127,-6.9061,-6.8993,-6.8993,-6.8993,-6.8993,-6.8993,-6.8993,-6.8993,-6.8993,-6.8714,-6.8333,-6.781,-6.681,-6.6932,-6.7248,-6.6288,-6.6279,-6.639,-6.6065,-6.5822,-6.5715,-6.5715,-6.6091,-6.6323,-6.5822,-6.6571,-6.7178,-6.6607,-6.436,-6.1706,-5.8961,-6.1692,-6.2204,-5.5916,-5.873,-6.0842,-5.9168,-6.0257,-6.1007,-6.0695,-6.1517,-6.245,-6.3221,-6.2552,-6.2783,-6.4327,-6.566,-6.6079,-6.569,-6.3609,-6.0626,-5.6836,-5.3744,-4.6723,-3.5572,0.0,0.0,0.0,0.0,0.0,0.0,0.0,0.0,0.0,0.0,0.0,0.0,0.0,0.0,0.0,0.0,0.0,0.0,0.0,0.0,0.0,0.0,0.0,0.0,0.0,0.0,-4.83,-5.011,0.0,-4.7557,-5.0261,-5.2397,-5.2912,-5.6214,-5.9626,-6.2776,-6.2925,-6.4533,-6.801,-6.7936,-6.8208,-6.902,-6.8993,-6.8993,-6.8993,-6.8993,-6.8993,-6.8993,-6.8993,-6.8993,-6.8993,-6.9132,-6.9132,-6.9132,-6.9132,-6.9095,-6.8993,-6.8993,-6.8993,-6.8993,-6.8993,-6.8993,-6.8993,-6.8993,-6.8461,-6.796,-6.8751,-6.6195,-6.2611,-6.1569,-6.0564,-5.9878,-6.0462,-6.1661,-6.296,-6.4205,-6.513,-6.5715,-6.5715,-6.5715,-6.5715,-6.5715,-6.4823,-6.436,-6.5501,-6.3457,-5.9858,-5.4558,-5.6089,-5.6109,-5.0577,-5.2403,-5.5156,-5.6921,-5.7898,-5.8525,-5.8525,-5.9807,-6.1166,-6.2429,-6.1361,-6.1866,-6.4772,-6.6624,-6.7303,-6.6524,-6.5444,-6.23,-5.6663,-5.4755,-4.6969,0.0,0.0,0.0,0.0,0.0,0.0,0.0,0.0,0.0,0.0,0.0,0.0,0.0,0.0,0.0,0.0,0.0,0.0,0.0,0.0,0.0,0.0,0.0,0.0,0.0,0.0,0.0,-4.3211,-4.7337,0.0,0.0,0.0,0.0,-4.5682,-4.7413,-5.0626,-5.565,-5.5934,-5.9037,-6.5704,-6.5218,-6.6078,-6.8667,-6.8881,-6.8993,-6.8993,-6.8806,-6.8806,-6.8993,-6.903,-6.9003,-6.9003,-6.8993,-6.8993,-6.8993,-6.8993,-6.8854,-6.8538,-6.7557,-6.7034,-6.6858,-6.6858,-6.7492,-6.8351,-6.8351,-6.7006,-6.5548,-6.7682,-6.1968,-5.4124,-5.3359,-4.9837,0.0,0.0,-5.361,-5.6222,-6.0739,-6.3498,-6.518,-6.5501,-6.5573,-6.5608,-6.568,-6.3361,-6.1969,-6.4451,-6.3126,-5.9595,-5.3475,0.0,-4.9161,-4.8111,-4.8393,-5.0432,-5.5178,-5.738,-5.8467,-5.8467,-5.9891,-6.0781,-6.0771,-6.0771,-6.188,-6.4573,-6.4739,-6.5157,-6.612,-6.4919,-6.0223,-5.1663,-4.8234,0.0,0.0,0.0,0.0,0.0,0.0,0.0,0.0,0.0,0.0,0.0,0.0,0.0,0.0,0.0,0.0,0.0,0.0,0.0,0.0,0.0,0.0,0.0,0.0,0.0,0.0,-3.3763,-3.6911,-3.9305,-3.7625,-3.4923,0.0,0.0,0.0,0.0,0.0,0.0,-4.6791,-4.7178,-5.0708,-5.8136,-5.5133,-5.6897,-6.4158,-6.7426,-6.8993,-6.8956,-6.5754,-6.5932,-6.8993,-6.9019,-6.9012,-6.9008,-6.9004,-6.8993,-6.8993,-6.8993,-6.662,-6.1675,-4.7578,-4.0007,-3.7008,-3.7008,-4.663,-5.9572,-5.9572,-5.9226,-5.8851,-5.9403,-6.0953,-6.2577,-6.2377,0.0,0.0,0.0,0.0,-4.7759,-5.361,-5.5856,-5.7834,-6.2811,-6.4003,-6.4288,-6.5465,-6.5073,-6.2497,-5.5498,-5.1792,-4.6768,-3.7185,-3.8662,0.0,-3.4306,-3.9946,-4.5623,-4.7998,-5.3856,-5.7825,-5.7825,-6.0619,-6.2516,-6.2528,-6.2562,-6.2299,-6.1814,-6.1737,-6.1869,-6.2088,-5.7312,-5.2609,-4.8143,0.0,0.0,0.0,0.0,0.0,0.0,0.0,0.0,0.0,0.0,0.0,0.0,0.0,0.0,0.0,0.0,0.0,0.0,0.0,0.0,0.0,0.0,0.0,0.0,0.0,0.0,0.0,-2.9252,-3.2965,-3.5509,-3.2995,-3.042,0.0,0.0,0.0,0.0,0.0,0.0,0.0,0.0,0.0,-4.9888,-4.6184,-4.7019,-5.3154,-6.0046,-6.3469,-6.3474,-6.3763,-6.376,-6.3479,-6.3475,-6.4975,-6.755,-6.7557,-6.6015,-6.3437,-6.3437,-5.6823,-4.5522,0.0,0.0,0.0,0.0,-3.1424,-4.4917,-4.3535,-4.642,-5.0672,-5.0672,0.0,0.0,0.0,0.0,0.0,0.0,0.0,-4.1925,-4.7484,-5.1897,-5.5891,-5.9921,-6.144,-6.2185,-6.3066,-6.0775,-5.6419,-4.8826,-4.4591,-3.9488,-3.0858,-3.0746,0.0,0.0,0.0,-4.0395,-4.5422,-5.2818,-5.7947,-5.8975,-6.1544,-6.3254,-6.3572,-6.3365,-6.2772,-6.1818,-6.1065,-6.0668,-6.0662,-5.4053,-4.6814,0.0,0.0,0.0,0.0,0.0,0.0,0.0,0.0,0.0,0.0,0.0,0.0,0.0,0.0,0.0,0.0,0.0,0.0,0.0,0.0,0.0,0.0,0.0,0.0,0.0,0.0,0.0,0.0,0.0,-3.011,-3.1684,0.0,0.0,0.0,0.0,0.0,0.0,0.0,0.0,0.0,0.0,0.0,0.0,0.0,-3.6509,-3.8754,-4.9161,-5.5061,-5.6395,-5.9743,-5.8731,-5.3835,-5.4204,-5.66,-6.0406,-5.9496,0.0,-5.6145,-5.3685,0.0,0.0,0.0,0.0,0.0,0.0,0.0,0.0,0.0,0.0,0.0,0.0,0.0,0.0,0.0,0.0,0.0,0.0,0.0,0.0,0.0,0.0,-5.4192,-5.5209,-5.7522,-5.9033,-5.7584,-5.2645,-4.7189,-4.264,-3.8957,-3.4658,0.0,0.0,0.0,0.0,0.0,0.0,-4.4853,-5.2946,-5.8698,-6.095,-6.2627,-6.3734,-6.4287,-6.3842,-6.3537,-6.3531,-6.1737,-6.0633,-6.0675,-5.2304,0.0,0.0,0.0,0.0,0.0,0.0,0.0,0.0,0.0,0.0,0.0,0.0,0.0,0.0,0.0,0.0,0.0,0.0,0.0,0.0,0.0,0.0,0.0,0.0,0.0,0.0,0.0,0.0,0.0,0.0,0.0,0.0,0.0,0.0,0.0,0.0,0.0,0.0,0.0,0.0,0.0,0.0,0.0,0.0,0.0,0.0,0.0,0.0,0.0,0.0,-4.416,-3.9113,-4.0361,-4.2755,-3.9891,-3.2641,-2.6726,-3.6404,-5.5147,-3.9533,0.0,0.0,0.0,0.0,0.0,0.0,0.0,0.0,0.0,0.0,0.0,0.0,0.0,0.0,0.0,0.0,0.0,0.0,0.0,0.0,0.0,0.0,-3.9745,-4.3014,-5.0045,-5.3548,-4.4517,0.0,0.0,0.0,0.0,0.0,0.0,0.0,0.0,0.0,0.0,0.0,-4.068,-5.2062,-6.0319,-6.1936,-6.3987,-6.5299,-6.5416,-6.5332,-6.5268,-6.5276,-6.2324,-6.0639,0.0,0.0,0.0,0.0,0.0,0.0,0.0,0.0,0.0,0.0,0.0,0.0,0.0,0.0,0.0,0.0,0.0,0.0,0.0,0.0,0.0,0.0,0.0,0.0,0.0,0.0,0.0,0.0,0.0,0.0,0.0,0.0,0.0,0.0,0.0,0.0,0.0,0.0,0.0,0.0,0.0,0.0,0.0,0.0,0.0,0.0,0.0,0.0,0.0,0.0,0.0,0.0,0.0,0.0,0.0,0.0,0.0,0.0,-2.2713,-2.7063,0.0,0.0,0.0,0.0,0.0,0.0,0.0,0.0,0.0,0.0,0.0,0.0,0.0,0.0,0.0,0.0,0.0,0.0,0.0,0.0,0.0,0.0,0.0,0.0,0.0,0.0,0.0,0.0,0.0,0.0,0.0,0.0,0.0,0.0,0.0,0.0,0.0,0.0,0.0,0.0,-4.0223,-5.2155,-6.1109,-6.3816,-6.5059,-6.5717,-6.5733,-6.5716,-6.544,-6.4898,-6.223,0.0,0.0,0.0,0.0,0.0,0.0,0.0,0.0,0.0,0.0,0.0,0.0,0.0,0.0,0.0,0.0,0.0,0.0,0.0,0.0,0.0,0.0,0.0,0.0,0.0,0.0,0.0,0.0,0.0,0.0,0.0,0.0,0.0,0.0,0.0,0.0,0.0,0.0,0.0,0.0,0.0,0.0,0.0,0.0,0.0,0.0,0.0,0.0,0.0,0.0,0.0,0.0,0.0,0.0,0.0,0.0,0.0,0.0,0.0,-2.383,-2.1908,0.0,0.0,0.0,0.0,0.0,0.0,0.0,0.0,0.0,0.0,0.0,0.0,0.0,0.0,0.0,0.0,0.0,0.0,0.0,0.0,0.0,0.0,0.0,0.0,0.0,0.0,0.0,0.0,0.0,0.0,0.0,0.0,0.0,0.0,0.0,0.0,0.0,0.0,0.0,0.0,-4.0761,-5.2531,-6.1658,-6.5306,-6.5715,-6.5715,-6.5715,-6.5709,-6.537,-6.4518,-5.6264,0.0,0.0,0.0,0.0,0.0,0.0,0.0,0.0,0.0,0.0,0.0,0.0,0.0,0.0,0.0,0.0,0.0,0.0,0.0,0.0,0.0,0.0,0.0,0.0,0.0,0.0,0.0,0.0,0.0,0.0,0.0,0.0,0.0,0.0,0.0,0.0,0.0,0.0,0.0,0.0,0.0,0.0,0.0,0.0,0.0,0.0,0.0,0.0,0.0,0.0,0.0,0.0,0.0,0.0,0.0,0.0,0.0,0.0,0.0,0.0,0.0,0.0,0.0,0.0,0.0,0.0,0.0,0.0,0.0,0.0,0.0,0.0,0.0,0.0,0.0,0.0,0.0,0.0,0.0,0.0,0.0,0.0,0.0,0.0,0.0,0.0,0.0,0.0,0.0,0.0,0.0,0.0,0.0,0.0,0.0,0.0,0.0,0.0,0.0,0.0,0.0,-4.0797,-5.2935,-6.2169,-6.5358,-6.5715,-6.5715,-6.5715,-6.5709,-6.5653,-6.5599,0.0,0.0,0.0,0.0,0.0,0.0,0.0,0.0,0.0,0.0,0.0,0.0,0.0,0.0,0.0,0.0,0.0,0.0,0.0,0.0,0.0,0.0,0.0,0.0,0.0,0.0,0.0,0.0,0.0,0.0,0.0,0.0,0.0,0.0,0.0,0.0,0.0,0.0,0.0,0.0,0.0,0.0,0.0,0.0,0.0,0.0,0.0,0.0,0.0,0.0,0.0,0.0,0.0,0.0,0.0,0.0,0.0,0.0,0.0,0.0,0.0,0.0,0.0,0.0,0.0,0.0,0.0,0.0,0.0,0.0,0.0,0.0,0.0,0.0,0.0,0.0,0.0,0.0,0.0,0.0,0.0,0.0,0.0,0.0,0.0,0.0,0.0,0.0,0.0,0.0,0.0,0.0,0.0,0.0,0.0,0.0,0.0,0.0,0.0,0.0,0.0,0.0,-4.0937,-5.3787,-6.3289,-6.5465,-6.5715,-6.5522,-6.5052,-6.4876,-6.4148,-6.2749,0.0,0.0,0.0,0.0,0.0,0.0,0.0,0.0,0.0,0.0,0.0,0.0,0.0,0.0,0.0,0.0,0.0,0.0,0.0,0.0,0.0,0.0,0.0,0.0,0.0,0.0,0.0,0.0,0.0,0.0,0.0,0.0,0.0,0.0,0.0,0.0,0.0,0.0,0.0,0.0,0.0,0.0,0.0,0.0,0.0,0.0,0.0,0.0,0.0,0.0,0.0,0.0,0.0,0.0,0.0,0.0,0.0,0.0,0.0,0.0,0.0,0.0,0.0,0.0,0.0,0.0,0.0,0.0,0.0,0.0,0.0,0.0,0.0,0.0,0.0,0.0,0.0,0.0,0.0,0.0,0.0,0.0,0.0,0.0,0.0,0.0,0.0,0.0,0.0,0.0,0.0,0.0,0.0,0.0,0.0,0.0,0.0,0.0,0.0,0.0,0.0,0.0,-4.3242,-5.5352,-6.4003,-6.5537,-6.6108,-6.5912,-6.4655,-6.4853,-6.3777,-6.084,0.0,0.0,0.0,0.0,0.0,0.0,0.0,0.0,0.0,0.0,0.0,0.0,0.0,0.0,0.0,0.0,0.0,0.0,0.0,0.0,0.0,0.0,0.0,0.0,0.0,0.0,0.0,0.0,0.0,0.0,0.0,0.0,0.0,0.0,0.0,0.0,0.0,0.0,0.0,0.0,0.0,0.0,0.0,0.0,0.0,0.0,0.0,0.0,0.0,0.0,0.0,0.0,0.0,0.0,0.0,0.0,0.0,0.0,0.0,0.0,0.0,0.0,0.0,0.0,0.0,0.0,0.0,0.0,0.0,0.0,0.0,0.0,0.0,0.0,0.0,0.0,0.0,0.0,0.0,0.0,0.0,0.0,0.0,0.0,0.0,0.0,0.0,0.0,0.0,0.0,0.0,0.0,0.0,0.0,0.0,0.0,0.0,0.0,0.0,0.0,0.0,0.0,-4.8423,-5.7591,-6.4003,-6.5537,-6.7107,-6.703,-6.4761,-6.6158,-6.5316,0.0,0.0,0.0,0.0,0.0,0.0,0.0,0.0,0.0,0.0,0.0,0.0,0.0,0.0,0.0,0.0,0.0,0.0,0.0,0.0,0.0,0.0,0.0,0.0,0.0,0.0,0.0,0.0,0.0,0.0,0.0,0.0,0.0,0.0,0.0,0.0,0.0,0.0,0.0,0.0,0.0,0.0,0.0,0.0,0.0,0.0,0.0,0.0,0.0,0.0,0.0,0.0,0.0,0.0,0.0,0.0,0.0,0.0,0.0,0.0,0.0,0.0,0.0,0.0,0.0,0.0,0.0,0.0,0.0,0.0,0.0,0.0,0.0,0.0,0.0,0.0,0.0,0.0,0.0,0.0,0.0,0.0,0.0,0.0,0.0,0.0,0.0,0.0,0.0,0.0,0.0,0.0,0.0,0.0,0.0,0.0,0.0,0.0,0.0,0.0,0.0,0.0,0.0,-4.3632,-5.6418,-6.5189,-6.5624,-6.6143,-6.6442,-6.6409,-6.4875,-6.2966,-6.079,0.0,0.0,0.0,0.0,0.0,0.0,0.0,0.0,0.0,0.0,0.0,0.0,0.0,0.0,0.0,0.0,0.0,0.0,0.0,0.0,0.0,0.0,0.0,0.0,0.0,0.0,0.0,0.0,0.0,0.0,0.0,0.0,0.0,0.0,0.0,0.0,0.0,0.0,0.0,0.0,0.0,0.0,0.0,0.0,0.0,0.0,0.0,0.0,0.0,0.0,0.0,0.0,0.0,0.0,0.0,0.0,0.0,0.0,0.0,0.0,0.0,0.0,0.0,0.0,0.0,0.0,0.0,0.0,0.0,0.0,0.0,0.0,0.0,0.0,0.0,0.0,0.0,0.0,0.0,0.0,0.0,0.0,0.0,0.0,0.0,0.0,0.0,0.0,0.0,0.0,0.0,0.0,0.0,0.0,0.0,0.0,0.0,0.0,0.0,0.0,0.0,0.0,0.0,-5.3878,-6.4696,-6.5183,-6.5803,-6.5873,-6.527,-6.3431,-6.1779,-6.0732,0.0,0.0,0.0,0.0,0.0,0.0,0.0,0.0,0.0,0.0,0.0,0.0,0.0,0.0,0.0,0.0,0.0,0.0,0.0,0.0,0.0,0.0,0.0,0.0,0.0,0.0,0.0,0.0,0.0,0.0,0.0,0.0,0.0,0.0,0.0,0.0,0.0,0.0,0.0,0.0,0.0,0.0,0.0,0.0,0.0,0.0,0.0,0.0,0.0,0.0,0.0,0.0,0.0,0.0,0.0,0.0,0.0,0.0,0.0,0.0,0.0,0.0,0.0,0.0,0.0,0.0,0.0,0.0,0.0,0.0,0.0,0.0,0.0,0.0,0.0,0.0,0.0,0.0,0.0,0.0,0.0,0.0,0.0,0.0,0.0,0.0,0.0,0.0,0.0,0.0,0.0,0.0,0.0,0.0,0.0,0.0,0.0,0.0,0.0,0.0,0.0,0.0,0.0,-5.1058,-6.2758,-6.4352,-6.5837,-6.5337,-6.1935,-6.1764,-6.1296,-6.0133,-4.9305,0.0,0.0,0.0,0.0,0.0,0.0,0.0,0.0,0.0,0.0,0.0,0.0,0.0,0.0,0.0,0.0,0.0,0.0,0.0,0.0,0.0,0.0,0.0,0.0,0.0,0.0,0.0,0.0,0.0,0.0,0.0,0.0,0.0,0.0,0.0,0.0,0.0,0.0,0.0,0.0,0.0,0.0,0.0,0.0,0.0,0.0,0.0,0.0,0.0,0.0,0.0,0.0,0.0,0.0,0.0,0.0,0.0,0.0,0.0,0.0,0.0,0.0,0.0,0.0,0.0,0.0,0.0,0.0,0.0,0.0,0.0,0.0,0.0,0.0,0.0,0.0,0.0,0.0,0.0,0.0,0.0,0.0,0.0,0.0,0.0,0.0,0.0,0.0,0.0,0.0,0.0,0.0,0.0,0.0,0.0,0.0,0.0,0.0,0.0,0.0,0.0,0.0,-5.5317,-6.0879,-6.3904,-6.4577,-6.3518,-6.0315,-6.0112,-5.8312,-5.4214,-4.4469,0.0,0.0,0.0,0.0,0.0,0.0,0.0,0.0,0.0,0.0,0.0,0.0,0.0,0.0,0.0,0.0,0.0,0.0,0.0,0.0,0.0,0.0,0.0,0.0,0.0,0.0,0.0,0.0,0.0,0.0,0.0,0.0,0.0,0.0,0.0,0.0,0.0,0.0,0.0,0.0,0.0,0.0,0.0,0.0,0.0,0.0,0.0,0.0,0.0,0.0,0.0,0.0,0.0,0.0,0.0,0.0,0.0,0.0,0.0,0.0,0.0,0.0,0.0,0.0,0.0,0.0,0.0,0.0,0.0,0.0,0.0,0.0,0.0,0.0,0.0,0.0,0.0,0.0,0.0,0.0,0.0,0.0,0.0,0.0,0.0,0.0,0.0,0.0,0.0,0.0,0.0,0.0,0.0,0.0,0.0,0.0,0.0,0.0,0.0,0.0,0.0,0.0,-4.532,-5.1688,-6.03,-6.2033,-6.1866,-6.0178,-5.7545,-5.4853,-5.2066,-4.031,0.0,0.0,0.0,0.0,0.0,0.0,0.0,0.0,0.0,0.0,0.0,0.0,0.0,0.0,0.0,0.0,0.0,0.0,0.0,0.0,0.0,0.0,0.0,0.0,0.0,0.0,0.0,0.0,0.0,0.0,0.0,0.0,0.0,0.0,0.0,0.0,0.0,0.0,0.0,0.0,0.0,0.0,0.0,0.0,0.0,0.0,0.0,0.0,0.0,0.0,0.0,0.0,0.0,0.0,0.0,0.0,0.0,0.0,0.0,0.0,0.0,0.0,0.0,0.0,0.0,0.0,0.0,0.0,0.0,0.0,0.0,0.0,0.0,0.0,0.0,0.0,0.0,0.0,0.0,0.0,0.0,0.0,0.0,0.0,0.0,0.0,0.0,0.0,0.0,0.0,0.0,0.0,0.0,0.0,0.0,0.0,0.0,0.0,0.0,0.0,0.0,0.0,0.0,-4.074,-5.3697,-5.7916,-5.9707,-5.9481,-5.4885,-5.1409,-5.0065,0.0,0.0,0.0,0.0,0.0,0.0,0.0,0.0,0.0,0.0,0.0,0.0,0.0,0.0,0.0,0.0,0.0,0.0,0.0,0.0,0.0,0.0,0.0,0.0,0.0,0.0,0.0,0.0,0.0,0.0,0.0,0.0,0.0,0.0,0.0,0.0,0.0,0.0,0.0,0.0,0.0,0.0,0.0,0.0,0.0,0.0,0.0,0.0,0.0,0.0,0.0,0.0,0.0,0.0,0.0,0.0,0.0,0.0,0.0,0.0,0.0,0.0,0.0,0.0,0.0,0.0,0.0,0.0,0.0,0.0,0.0,0.0,0.0,0.0,0.0,0.0,0.0,0.0,0.0,0.0,0.0,0.0,0.0,0.0,0.0,0.0,0.0,0.0,0.0,0.0,0.0,0.0,0.0,0.0,0.0,0.0,0.0,0.0,0.0,0.0,0.0,0.0,0.0,0.0,-3.6961,-4.2486,-5.067,-5.5196,-5.4039,-5.3122,-4.9306,-4.1698,0.0,0.0,0.0,0.0,0.0,0.0,0.0,0.0,0.0,0.0,0.0,0.0,0.0,0.0]}]]]